[[{"header":{"parameterUnit":"m.s-1","parameterCategory":1,"la1":31.0,"la2":29.5877,"lo1":-88.7671,"lo2":-86.6584,"dy":0.0162,"dx":0.0185,"nx":115,"ny":88,"refTime":"2024-04-20T06:00:00:Z","depth":0,"parameterNumber":2,"parameterNumberName":"U-component_of_WINDS"},"data":[0.0,0.0,0.0,0.0,0.0,0.0,0.0,0.0,0.0,0.0,0.0,0.0,0.0,0.0,0.0,0.0,0.0,0.0,0.0,0.0,0.0,0.0,0.0,0.0,0.0,0.0,0.0,0.0,0.0,0.0,0.0,0.0,0.0,0.0,0.0,0.0,0.0,0.0,0.0,0.0,0.0,0.0,0.0,0.0,0.0,0.0,0.0,0.0,0.0,0.0,0.0,0.0,0.0,0.0,0.0,0.0,0.0,0.0,0.0,0.0,0.0,0.0,0.0,0.0,0.0,0.0,0.0,0.0,0.0,0.0,0.0,0.0,0.0,0.0,0.0,0.0,0.0,0.0,0.0,0.0,0.0,0.0,0.0,0.0,0.0,0.0,0.0,0.0,0.0,0.0,0.0,0.0,0.0,0.0,0.0,0.0,0.0,0.0,0.0,0.0,0.0,0.0,0.0,0.0,0.0,0.0,0.0,0.0,0.0,0.0,0.0,0.0,0.0,0.0,0.0,0.0,0.0,0.0,0.0,0.0,0.0,0.0,0.0,0.0,0.0,0.0,0.0,0.0,0.0,0.0,0.0,0.0,0.0,0.0,0.0,0.0,0.0,0.0,0.0,0.0,0.0,0.0,0.0,0.0,0.0,0.0,0.0,0.0,0.0,0.0,0.0,0.0,0.0,0.0,0.0,0.0,0.0,0.0,0.0,0.0,0.0,0.0,0.0,0.0,0.0,0.0,0.0,0.0,0.0,0.0,0.0,0.0,0.0,0.0,0.0,0.0,0.0,0.0,0.0,0.0,0.0,0.0,0.0,0.0,0.0,0.0,0.0,0.0,0.0,0.0,0.0,0.0,0.0,0.0,0.0,0.0,0.0,0.0,0.0,0.0,0.0,0.0,0.0,0.0,0.0,0.0,0.0,0.0,0.0,0.0,0.0,0.0,0.0,0.0,0.0,0.0,0.0,0.0,0.0,0.0,0.0,0.0,0.0,0.0,0.0,0.0,0.0,0.0,0.0,0.0,0.0,0.0,0.0,0.0,0.0,0.0,0.0,0.0,0.0,0.0,0.0,0.0,0.0,0.0,0.0,0.0,0.0,0.0,0.0,0.0,0.0,0.0,0.0,0.0,0.0,0.0,0.0,0.0,0.0,0.0,0.0,0.0,0.0,0.0,0.0,0.0,0.0,0.0,0.0,0.0,0.0,0.0,0.0,0.0,0.0,0.0,0.0,0.0,0.0,0.0,0.0,0.0,0.0,0.0,0.0,0.0,0.0,0.0,0.0,0.0,0.0,0.0,0.0,0.0,0.0,0.0,0.0,0.0,0.0,0.0,0.0,0.0,0.0,0.0,0.0,0.0,0.0,0.0,0.0,0.0,0.0,0.0,0.0,0.0,0.0,0.0,0.0,0.0,0.0,0.0,0.0,0.0,0.0,0.0,0.0,0.0,0.0,0.0,0.0,0.0,0.0,0.0,0.0,0.0,0.0,0.0,0.0,0.0,0.0,0.0,0.0,0.0,0.0,0.0,0.0,0.0,0.0,0.0,0.0,0.0,0.0,0.0,0.0,0.0,0.0,0.0,0.0,0.0,0.0,0.0,0.0,0.0,0.0,0.0,0.0,0.0,0.0,0.0,0.0,0.0,0.0,0.0,0.0,0.0,0.0,0.0,0.0,0.0,0.0,0.0,0.0,0.0,0.0,0.0,0.0,0.0,0.0,0.0,0.0,0.0,0.0,0.0,0.0,0.0,0.0,0.0,0.0,0.0,0.0,0.0,0.0,0.0,0.0,0.0,0.0,0.0,0.0,0.0,0.0,0.0,0.0,0.0,0.0,0.0,0.0,0.0,0.0,0.0,0.0,0.0,0.0,0.0,0.0,0.0,0.0,0.0,0.0,0.0,0.0,0.0,0.0,0.0,0.0,0.0,0.0,0.0,0.0,0.0,0.0,0.0,0.0,0.0,0.0,0.0,0.0,0.0,0.0,0.0,0.0,0.0,0.0,0.0,0.0,0.0,0.0,0.0,0.0,0.0,0.0,0.0,0.0,0.0,0.0,0.0,0.0,0.0,0.0,0.0,0.0,0.0,0.0,0.0,0.0,0.0,0.0,0.0,0.0,0.0,0.0,0.0,0.0,0.0,0.0,0.0,0.0,0.0,0.0,0.0,0.0,0.0,0.0,0.0,0.0,0.0,0.0,0.0,0.0,0.0,0.0,0.0,0.0,0.0,0.0,0.0,0.0,0.0,0.0,0.0,0.0,0.0,0.0,0.0,0.0,0.0,0.0,0.0,0.0,0.0,0.0,0.0,0.0,0.0,0.0,0.0,0.0,0.0,0.0,0.0,0.0,0.0,0.0,0.0,0.0,0.0,0.0,0.0,0.0,0.0,0.0,0.0,0.0,0.0,0.0,0.0,0.0,0.0,0.0,0.0,0.0,0.0,0.0,0.0,0.0,0.0,0.0,0.0,0.0,0.0,0.0,0.0,0.0,0.0,0.0,0.0,0.0,0.0,0.0,0.0,0.0,0.0,0.0,0.0,0.0,0.0,0.0,0.0,0.0,0.0,0.0,0.0,0.0,0.0,0.0,0.0,0.0,0.0,0.0,0.0,0.0,0.0,0.0,0.0,0.0,0.0,0.0,0.0,0.0,0.0,0.0,0.0,0.0,0.0,0.0,0.0,0.0,0.0,0.0,0.0,0.0,0.0,0.0,0.0,0.0,0.0,0.0,0.0,0.0,0.0,0.0,0.0,0.0,0.0,0.0,0.0,0.0,0.0,0.0,0.0,0.0,0.0,0.0,0.0,0.0,0.0,0.0,0.0,0.0,0.0,0.0,0.0,0.0,0.0,0.0,0.0,0.0,0.0,0.0,0.0,0.0,0.0,0.0,0.0,0.0,0.0,0.0,0.0,0.0,0.0,0.0,0.0,0.0,0.0,0.0,0.0,0.0,0.0,0.0,0.0,0.0,0.0,0.0,0.0,0.0,0.0,0.0,0.0,0.0,0.0,0.0,0.0,0.0,0.0,0.0,0.0,0.0,0.0,0.0,0.0,0.0,0.0,0.0,0.0,0.0,0.0,0.0,0.0,0.0,0.0,0.0,0.0,0.0,0.0,0.0,0.0,0.0,0.0,0.0,0.0,0.0,0.0,0.0,0.0,0.0,0.0,0.0,0.0,0.0,0.0,0.0,0.0,0.0,0.0,0.0,0.0,0.0,0.0,0.0,0.0,0.0,0.0,0.0,0.0,0.0,0.0,0.0,0.0,0.0,0.0,0.0,0.0,0.0,0.0,0.0,0.0,0.0,0.0,0.0,0.0,0.0,0.0,0.0,0.0,0.0,0.0,0.0,0.0,0.0,0.0,0.0,0.0,0.0,0.0,0.0,0.0,0.0,0.0,0.0,0.0,0.0,0.0,0.0,0.0,0.0,0.0,0.0,0.0,0.0,0.0,0.0,0.0,0.0,0.0,0.0,0.0,0.0,0.0,0.0,0.0,0.0,0.0,0.0,0.0,0.0,0.0,0.0,0.0,0.0,0.0,0.0,0.0,0.0,0.0,0.0,0.0,0.0,0.0,0.0,0.0,0.0,0.0,0.0,0.0,0.0,0.0,0.0,0.0,0.0,0.0,0.0,0.0,0.0,0.0,0.0,0.0,0.0,0.0,0.0,0.0,0.0,0.0,0.0,0.0,0.0,0.0,0.0,0.0,0.0,0.0,0.0,0.0,0.0,0.0,0.0,0.0,0.0,0.0,0.0,0.0,0.0,0.0,0.0,0.0,0.0,0.0,0.0,0.0,0.0,0.0,0.0,0.0,0.0,0.0,0.0,0.0,0.0,0.0,0.0,0.0,0.0,0.0,0.0,0.0,0.0,0.0,0.0,0.0,0.0,0.0,0.0,0.0,0.0,0.0,0.0,0.0,0.0,0.0,0.0,0.0,0.0,0.0,0.0,0.0,0.0,0.0,0.0,0.0,0.0,0.0,0.0,0.0,0.0,0.0,0.0,0.0,0.0,0.0,0.0,0.0,0.0,0.0,0.0,0.0,0.0,0.0,0.0,0.0,0.0,0.0,0.0,0.0,0.0,0.0,0.0,0.0,0.0,0.0,0.0,0.0,0.0,0.0,0.0,0.0,0.0,0.0,0.0,0.0,0.0,0.0,0.0,0.0,0.0,0.0,0.0,0.0,0.0,0.0,0.0,0.0,0.0,0.0,0.0,0.0,0.0,0.0,0.0,0.0,0.0,0.0,0.0,0.0,0.0,0.0,0.0,0.0,0.0,0.0,4.7637,0.0,0.0,0.0,0.0,0.0,0.0,0.0,0.0,0.0,0.0,0.0,0.0,0.0,0.0,0.0,0.0,0.0,0.0,0.0,0.0,0.0,0.0,0.0,0.0,0.0,0.0,0.0,0.0,0.0,0.0,0.0,0.0,0.0,0.0,0.0,0.0,0.0,0.0,0.0,0.0,0.0,0.0,0.0,0.0,0.0,0.0,0.0,0.0,0.0,0.0,0.0,0.0,0.0,0.0,0.0,0.0,0.0,0.0,0.0,0.0,0.0,0.0,0.0,0.0,0.0,0.0,0.0,0.0,0.0,0.0,0.0,0.0,0.0,0.0,0.0,0.0,0.0,0.0,0.0,0.0,0.0,0.0,0.0,0.0,0.0,0.0,0.0,0.0,0.0,0.0,0.0,0.0,0.0,0.0,0.0,0.0,0.0,0.0,0.0,0.0,0.0,0.0,0.0,0.0,0.0,0.0,0.0,0.0,0.0,0.0,4.9411,5.0215,4.9824,4.9199,4.834,0.0,0.0,0.0,0.0,0.0,0.0,0.0,0.0,0.0,0.0,0.0,0.0,0.0,0.0,0.0,0.0,0.0,0.0,0.0,0.0,0.0,0.0,0.0,0.0,0.0,0.0,0.0,0.0,0.0,0.0,0.0,0.0,0.0,0.0,0.0,0.0,0.0,0.0,0.0,0.0,0.0,0.0,0.0,0.0,0.0,0.0,0.0,0.0,0.0,0.0,0.0,0.0,0.0,0.0,0.0,0.0,0.0,0.0,0.0,0.0,0.0,0.0,0.0,0.0,0.0,0.0,0.0,0.0,0.0,0.0,0.0,0.0,0.0,0.0,0.0,0.0,0.0,0.0,0.0,0.0,0.0,0.0,0.0,0.0,0.0,0.0,0.0,0.0,0.0,0.0,0.0,0.0,0.0,0.0,0.0,0.0,0.0,0.0,0.0,0.0,0.0,0.0,0.0,0.0,0.0,0.0,0.0,0.0,0.0,0.0,0.0,0.0,5.0801,4.998,4.8906,0.0,0.0,0.0,0.0,0.0,0.0,0.0,0.0,0.0,0.0,0.0,0.0,0.0,0.0,0.0,0.0,0.0,0.0,0.0,0.0,0.0,0.0,0.0,0.0,0.0,0.0,0.0,0.0,0.0,0.0,0.0,0.0,0.0,0.0,0.0,0.0,0.0,0.0,0.0,0.0,0.0,0.0,0.0,0.0,0.0,0.0,0.0,0.0,0.0,0.0,0.0,0.0,0.0,0.0,0.0,0.0,0.0,0.0,0.0,0.0,0.0,0.0,0.0,0.0,0.0,0.0,0.0,0.0,0.0,0.0,0.0,0.0,0.0,0.0,0.0,0.0,0.0,0.0,0.0,0.0,0.0,0.0,0.0,0.0,0.0,0.0,0.0,0.0,0.0,0.0,0.0,0.0,0.0,0.0,0.0,0.0,0.0,0.0,0.0,0.0,0.0,0.0,0.0,0.0,0.0,0.0,0.0,0.0,0.0,0.0,5.0566,5.1367,5.1308,0.0,4.8906,0.0,0.0,0.0,0.0,0.0,0.0,0.0,0.0,0.0,0.0,0.0,0.0,0.0,0.0,0.0,0.0,0.0,0.0,0.0,0.0,0.0,0.0,0.0,0.0,0.0,0.0,0.0,0.0,0.0,0.0,0.0,0.0,0.0,0.0,0.0,0.0,0.0,0.0,0.0,0.0,0.0,0.0,0.0,0.0,0.0,0.0,0.0,0.0,0.0,0.0,0.0,0.0,0.0,0.0,0.0,0.0,0.0,0.0,0.0,0.0,0.0,0.0,0.0,0.0,0.0,0.0,0.0,0.0,0.0,0.0,0.0,0.0,0.0,0.0,0.0,0.0,0.0,0.0,0.0,0.0,0.0,0.0,0.0,0.0,0.0,0.0,0.0,0.0,0.0,0.0,0.0,0.0,0.0,0.0,0.0,0.0,0.0,0.0,0.0,0.0,0.0,0.0,0.0,0.0,0.0,0.0,0.0,0.0,0.0,0.0,5.1055,5.1387,5.043,4.959,0.0,0.0,0.0,0.0,0.0,0.0,0.0,0.0,0.0,0.0,0.0,0.0,0.0,0.0,0.0,0.0,0.0,0.0,0.0,0.0,0.0,0.0,0.0,0.0,0.0,0.0,0.0,0.0,0.0,0.0,0.0,0.0,0.0,0.0,0.0,0.0,0.0,0.0,0.0,0.0,0.0,0.0,0.0,0.0,0.0,0.0,0.0,0.0,0.0,0.0,0.0,0.0,0.0,0.0,0.0,0.0,0.0,0.0,0.0,0.0,0.0,0.0,0.0,0.0,0.0,0.0,0.0,0.0,0.0,0.0,0.0,0.0,0.0,0.0,0.0,0.0,0.0,0.0,0.0,0.0,0.0,0.0,0.0,0.0,0.0,0.0,0.0,0.0,0.0,0.0,0.0,0.0,0.0,0.0,0.0,0.0,0.0,0.0,0.0,0.0,0.0,0.0,0.0,0.0,0.0,0.0,0.0,0.0,0.0,0.0,5.0527,5.1387,5.1328,4.9766,4.8887,4.8887,0.0,0.0,0.0,0.0,0.0,0.0,0.0,0.0,0.0,0.0,0.0,0.0,0.0,0.0,0.0,0.0,0.0,0.0,0.0,0.0,0.0,0.0,0.0,0.0,0.0,0.0,0.0,0.0,0.0,0.0,0.0,0.0,0.0,0.0,0.0,0.0,0.0,0.0,0.0,0.0,0.0,0.0,0.0,0.0,0.0,0.0,0.0,0.0,0.0,0.0,0.0,0.0,0.0,0.0,0.0,0.0,0.0,0.0,0.0,0.0,0.0,0.0,0.0,0.0,0.0,0.0,0.0,0.0,0.0,0.0,0.0,0.0,0.0,0.0,0.0,0.0,0.0,0.0,0.0,0.0,0.0,0.0,0.0,0.0,0.0,0.0,0.0,0.0,0.0,0.0,0.0,0.0,0.0,0.0,0.0,0.0,0.0,0.0,0.0,0.0,0.0,0.0,0.0,0.0,0.0,0.0,0.0,0.0,4.8945,5.0527,5.1387,5.1387,4.9766,4.8887,0.0,0.0,0.0,0.0,0.0,0.0,0.0,0.0,0.0,0.0,0.0,0.0,0.0,0.0,0.0,0.0,0.0,0.0,0.0,0.0,0.0,0.0,0.0,0.0,0.0,0.0,0.0,0.0,0.0,0.0,0.0,0.0,0.0,0.0,0.0,0.0,0.0,0.0,0.0,0.0,0.0,0.0,0.0,0.0,0.0,0.0,0.0,0.0,0.0,0.0,0.0,0.0,0.0,0.0,0.0,0.0,0.0,0.0,0.0,0.0,0.0,0.0,0.0,0.0,0.0,0.0,0.0,0.0,0.0,0.0,0.0,0.0,0.0,0.0,0.0,0.0,0.0,0.0,0.0,0.0,0.0,0.0,0.0,0.0,0.0,0.0,0.0,0.0,0.0,0.0,0.0,0.0,0.0,0.0,0.0,0.0,0.0,0.0,0.0,0.0,0.0,0.0,0.0,0.0,0.0,0.0,0.0,0.0,0.0,4.8965,5.0547,5.166,5.2129,5.0078,4.8887,0.0,0.0,0.0,0.0,0.0,0.0,0.0,0.0,0.0,0.0,0.0,0.0,0.0,0.0,0.0,0.0,0.0,0.0,0.0,0.0,0.0,0.0,0.0,0.0,0.0,0.0,0.0,0.0,0.0,0.0,0.0,0.0,0.0,0.0,0.0,0.0,0.0,0.0,0.0,0.0,0.0,0.0,0.0,0.0,0.0,0.0,0.0,0.0,0.0,0.0,0.0,0.0,0.0,0.0,0.0,0.0,0.0,0.0,0.0,0.0,0.0,0.0,0.0,0.0,0.0,0.0,0.0,0.0,0.0,0.0,0.0,0.0,0.0,0.0,0.0,0.0,0.0,0.0,0.0,0.0,0.0,0.0,0.0,0.0,0.0,0.0,0.0,0.0,0.0,0.0,0.0,0.0,0.0,0.0,0.0,0.0,0.0,0.0,0.0,0.0,0.0,0.0,0.0,0.0,0.0,0.0,0.0,0.0,0.0,5.0117,0.0,5.2109,5.2598,5.0527,4.9199,0.0,0.0,0.0,0.0,0.0,0.0,0.0,0.0,0.0,0.0,0.0,0.0,0.0,0.0,0.0,0.0,0.0,0.0,0.0,0.0,0.0,0.0,0.0,0.0,0.0,0.0,0.0,0.0,0.0,0.0,0.0,0.0,0.0,0.0,0.0,0.0,0.0,0.0,0.0,0.0,0.0,0.0,0.0,0.0,0.0,0.0,0.0,0.0,0.0,0.0,0.0,0.0,0.0,0.0,0.0,0.0,0.0,0.0,0.0,0.0,0.0,0.0,0.0,0.0,0.0,0.0,0.0,0.0,0.0,0.0,0.0,0.0,0.0,0.0,0.0,0.0,0.0,0.0,0.0,0.0,0.0,0.0,0.0,0.0,0.0,0.0,0.0,0.0,0.0,0.0,0.0,0.0,0.0,0.0,0.0,0.0,0.0,0.0,0.0,0.0,0.0,0.0,0.0,0.0,0.0,0.0,0.0,0.0,5.0156,5.2558,5.2676,5.2754,5.2695,5.1113,4.9805,0.0,0.0,0.0,0.0,0.0,0.0,0.0,0.0,0.0,0.0,0.0,0.0,0.0,0.0,0.0,0.0,0.0,0.0,0.0,0.0,0.0,0.0,0.0,0.0,0.0,0.0,0.0,0.0,0.0,0.0,0.0,0.0,0.0,0.0,0.0,0.0,0.0,0.0,0.0,0.0,0.0,0.0,0.0,0.0,0.0,0.0,0.0,0.0,0.0,0.0,0.0,0.0,0.0,0.0,0.0,0.0,0.0,0.0,0.0,0.0,0.0,0.0,0.0,0.0,0.0,0.0,0.0,0.0,0.0,0.0,0.0,0.0,0.0,0.0,0.0,0.0,0.0,0.0,0.0,0.0,0.0,0.0,0.0,0.0,0.0,0.0,0.0,0.0,0.0,0.0,0.0,0.0,0.0,0.0,0.0,0.0,0.0,0.0,0.0,0.0,0.0,0.0,0.0,0.0,0.0,0.0,0.0,0.0,0.0,5.3516,5.3594,5.3887,5.4394,5.2246,5.0644,0.0,0.0,0.0,0.0,0.0,0.0,0.0,0.0,0.0,0.0,0.0,0.0,0.0,0.0,0.0,0.0,0.0,0.0,0.0,0.0,0.0,0.0,0.0,0.0,0.0,0.0,0.0,0.0,0.0,0.0,0.0,0.0,0.0,0.0,0.0,0.0,0.0,0.0,0.0,0.0,0.0,0.0,0.0,0.0,0.0,0.0,0.0,0.0,0.0,0.0,0.0,0.0,0.0,0.0,0.0,0.0,0.0,0.0,0.0,0.0,0.0,0.0,0.0,0.0,0.0,0.0,0.0,0.0,0.0,0.0,0.0,0.0,0.0,0.0,0.0,0.0,0.0,0.0,0.0,0.0,0.0,0.0,0.0,0.0,0.0,0.0,0.0,0.0,0.0,0.0,0.0,0.0,0.0,0.0,0.0,0.0,0.0,0.0,0.0,0.0,0.0,0.0,0.0,0.0,0.0,0.0,0.0,0.0,0.0,5.4863,5.4961,5.5215,5.5781,5.3574,5.168,5.0215,0.0,0.0,0.0,0.0,0.0,0.0,0.0,0.0,0.0,0.0,0.0,0.0,0.0,0.0,0.0,0.0,0.0,0.0,0.0,0.0,0.0,0.0,0.0,0.0,0.0,0.0,0.0,0.0,0.0,0.0,0.0,0.0,0.0,0.0,0.0,0.0,0.0,0.0,0.0,0.0,0.0,0.0,0.0,0.0,0.0,0.0,0.0,0.0,0.0,0.0,0.0,0.0,0.0,0.0,0.0,0.0,0.0,0.0,0.0,0.0,0.0,0.0,0.0,0.0,0.0,0.0,0.0,0.0,0.0,0.0,0.0,0.0,0.0,0.0,0.0,0.0,0.0,0.0,0.0,0.0,0.0,0.0,0.0,0.0,0.0,0.0,0.0,0.0,0.0,0.0,0.0,0.0,0.0,0.0,0.0,0.0,0.0,0.0,0.0,0.0,0.0,0.0,0.0,0.0,0.0,0.0,0.0,0.0,5.664,5.6758,5.6758,5.664,5.4961,5.2871,0.0,0.0,0.0,0.0,0.0,0.0,0.0,0.0,0.0,0.0,0.0,0.0,0.0,0.0,0.0,0.0,0.0,0.0,0.0,0.0,0.0,0.0,0.0,0.0,0.0,0.0,0.0,0.0,0.0,0.0,0.0,0.0,0.0,0.0,0.0,0.0,0.0,0.0,0.0,0.0,0.0,0.0,0.0,0.0,0.0,0.0,0.0,0.0,0.0,0.0,0.0,0.0,0.0,0.0,0.0,0.0,0.0,0.0,0.0,0.0,0.0,0.0,0.0,0.0,0.0,0.0,0.0,0.0,0.0,0.0,0.0,0.0,0.0,0.0,0.0,0.0,0.0,0.0,0.0,0.0,0.0,0.0,0.0,0.0,0.0,0.0,0.0,0.0,0.0,0.0,0.0,0.0,0.0,0.0,0.0,0.0,0.0,0.0,0.0,0.0,0.0,0.0,0.0,0.0,0.0,0.0,0.0,0.0,0.0,5.75,5.8769,5.8828,5.7578,5.5859,5.375,0.0,0.0,0.0,0.0,0.0,0.0,0.0,0.0,0.0,0.0,0.0,0.0,0.0,0.0,0.0,0.0,0.0,0.0,0.0,0.0,0.0,0.0,0.0,0.0,0.0,0.0,0.0,0.0,0.0,0.0,0.0,0.0,0.0,0.0,0.0,0.0,0.0,0.0,0.0,0.0,0.0,0.0,0.0,0.0,0.0,0.0,0.0,0.0,0.0,0.0,0.0,0.0,0.0,0.0,0.0,0.0,0.0,0.0,0.0,0.0,0.0,0.0,0.0,0.0,0.0,0.0,0.0,0.0,0.0,0.0,0.0,0.0,0.0,0.0,0.0,0.0,0.0,0.0,0.0,0.0,0.0,0.0,0.0,0.0,0.0,0.0,0.0,0.0,0.0,0.0,0.0,0.0,0.0,0.0,0.0,0.0,0.0,0.0,0.0,0.0,0.0,0.0,0.0,0.0,0.0,0.0,0.0,0.0,5.5957,5.8398,5.9394,5.959,5.8965,5.7305,5.5176,0.0,0.0,0.0,0.0,0.0,0.0,0.0,0.0,0.0,0.0,0.0,0.0,0.0,0.0,0.0,0.0,0.0,0.0,0.0,0.0,0.0,0.0,0.0,0.0,0.0,0.0,0.0,0.0,0.0,0.0,0.0,0.0,0.0,0.0,0.0,0.0,0.0,0.0,0.0,0.0,0.0,0.0,0.0,0.0,0.0,0.0,0.0,0.0,0.0,0.0,0.0,0.0,0.0,0.0,0.0,0.0,0.0,0.0,0.0,0.0,0.0,0.0,0.0,0.0,0.0,0.0,0.0,0.0,0.0,0.0,0.0,0.0,0.0,0.0,0.0,0.0,0.0,0.0,0.0,0.0,0.0,0.0,0.0,0.0,0.0,0.0,0.0,0.0,0.0,0.0,0.0,0.0,0.0,0.0,0.0,0.0,0.0,0.0,0.0,0.0,0.0,0.0,0.0,0.0,0.0,0.0,0.0,0.0,5.5801,5.9101,5.9297,5.9707,6.0449,5.8828,5.668,0.0,0.0,0.0,0.0,0.0,0.0,0.0,0.0,0.0,0.0,0.0,0.0,0.0,0.0,0.0,0.0,0.0,0.0,0.0,0.0,0.0,0.0,0.0,0.0,0.0,0.0,0.0,0.0,0.0,0.0,0.0,0.0,0.0,0.0,0.0,0.0,0.0,0.0,0.0,0.0,0.0,0.0,0.0,0.0,0.0,0.0,0.0,0.0,0.0,0.0,0.0,0.0,0.0,0.0,0.0,0.0,0.0,0.0,0.0,0.0,0.0,0.0,0.0,0.0,0.0,0.0,0.0,0.0,0.0,0.0,0.0,0.0,0.0,0.0,0.0,0.0,0.0,0.0,0.0,0.0,0.0,0.0,0.0,0.0,0.0,0.0,0.0,0.0,0.0,0.0,0.0,0.0,0.0,0.0,0.0,0.0,0.0,0.0,0.0,0.0,0.0,0.0,0.0,0.0,0.0,0.0,0.0,0.0,5.6387,5.9101,5.9824,6.0547,6.1387,5.914,5.666,0.0,0.0,0.0,0.0,0.0,0.0,0.0,0.0,0.0,0.0,0.0,0.0,0.0,0.0,0.0,0.0,0.0,0.0,0.0,0.0,0.0,0.0,0.0,0.0,0.0,0.0,0.0,0.0,0.0,0.0,0.0,0.0,0.0,0.0,0.0,0.0,0.0,0.0,0.0,0.0,0.0,0.0,0.0,0.0,0.0,0.0,0.0,0.0,5.1875,0.0,0.0,0.0,0.0,0.0,0.0,0.0,0.0,0.0,0.0,0.0,0.0,0.0,0.0,0.0,0.0,0.0,0.0,0.0,0.0,0.0,0.0,0.0,0.0,0.0,0.0,0.0,0.0,0.0,0.0,0.0,0.0,0.0,0.0,0.0,0.0,0.0,0.0,0.0,0.0,0.0,0.0,0.0,0.0,0.0,0.0,0.0,0.0,0.0,0.0,0.0,0.0,0.0,0.0,0.0,0.0,0.0,0.0,0.0,5.5957,5.8496,5.9004,5.9648,6.041,5.8828,5.7051,0.0,0.0,0.0,0.0,0.0,0.0,0.0,0.0,0.0,0.0,0.0,0.0,0.0,0.0,0.0,0.0,0.0,0.0,0.0,0.0,0.0,0.0,0.0,0.0,0.0,0.0,0.0,0.0,0.0,0.0,0.0,0.0,0.0,0.0,0.0,0.0,0.0,0.0,0.0,0.0,0.0,0.0,0.0,0.0,0.0,0.0,0.0,0.0,0.0,0.0,0.0,0.0,0.0,0.0,0.0,0.0,0.0,0.0,0.0,0.0,0.0,0.0,0.0,0.0,0.0,0.0,0.0,0.0,0.0,0.0,0.0,0.0,0.0,0.0,0.0,0.0,0.0,0.0,0.0,0.0,0.0,0.0,0.0,0.0,0.0,0.0,0.0,0.0,0.0,0.0,0.0,0.0,0.0,0.0,0.0,0.0,0.0,0.0,0.0,0.0,0.0,0.0,0.0,0.0,0.0,0.0,0.0,5.3105,5.5273,5.7773,5.789,5.832,5.914,5.8223,5.7246,5.6191,0.0,0.0,0.0,0.0,0.0,0.0,0.0,0.0,0.0,0.0,0.0,0.0,0.0,0.0,0.0,0.0,0.0,0.0,0.0,0.0,0.0,0.0,0.0,0.0,0.0,0.0,0.0,0.0,0.0,0.0,0.0,0.0,0.0,0.0,0.0,0.0,0.0,0.0,5.0723,5.3594,0.0,0.0,0.0,0.0,0.0,0.0,0.0,0.0,5.4394,0.0,0.0,0.0,0.0,0.0,0.0,0.0,0.0,0.0,0.0,0.0,0.0,0.0,0.0,0.0,0.0,0.0,0.0,0.0,0.0,0.0,0.0,0.0,0.0,0.0,0.0,0.0,0.0,0.0,0.0,0.0,0.0,0.0,0.0,0.0,0.0,0.0,0.0,0.0,0.0,0.0,0.0,0.0,0.0,0.0,0.0,0.0,0.0,0.0,0.0,0.0,0.0,0.0,0.0,0.0,0.0,5.1387,5.3125,5.5273,5.7812,5.789,5.832,5.9121,5.7656,5.6055,5.4453,0.0,0.0,0.0,0.0,0.0,0.0,0.0,0.0,0.0,0.0,0.0,0.0,0.0,0.0,0.0,0.0,0.0,0.0,0.0,0.0,0.0,0.0,0.0,0.0,0.0,0.0,0.0,0.0,0.0,0.0,0.0,0.0,0.0,0.0,0.0,0.0,0.0,0.0,0.0,5.5586,5.6601,0.0,0.0,0.0,0.0,0.0,0.0,0.0,0.0,5.5879,0.0,0.0,0.0,0.0,0.0,0.0,0.0,0.0,0.0,0.0,0.0,0.0,0.0,0.0,0.0,0.0,0.0,0.0,0.0,0.0,0.0,0.0,0.0,0.0,0.0,0.0,0.0,0.0,0.0,0.0,0.0,0.0,0.0,0.0,0.0,0.0,0.0,0.0,0.0,0.0,0.0,0.0,0.0,0.0,0.0,0.0,0.0,0.0,0.0,0.0,0.0,0.0,0.0,0.0,0.0,5.0762,5.2461,5.4375,5.6465,5.6543,5.6758,5.7129,5.6367,5.4883,0.0,0.0,0.0,0.0,0.0,0.0,0.0,0.0,0.0,0.0,0.0,0.0,0.0,0.0,0.0,0.0,0.0,0.0,0.0,0.0,0.0,0.0,0.0,0.0,0.0,0.0,0.0,0.0,0.0,0.0,0.0,0.0,0.0,0.0,0.0,0.0,0.0,0.0,0.0,0.0,5.7187,5.8711,5.914,0.0,0.0,0.0,0.0,0.0,0.0,5.7949,5.75,0.0,0.0,0.0,0.0,0.0,0.0,0.0,0.0,0.0,0.0,0.0,0.0,0.0,0.0,0.0,0.0,0.0,0.0,0.0,0.0,0.0,0.0,0.0,0.0,0.0,0.0,0.0,0.0,0.0,0.0,0.0,0.0,0.0,0.0,0.0,0.0,0.0,0.0,0.0,0.0,0.0,0.0,0.0,0.0,0.0,0.0,0.0,0.0,0.0,0.0,0.0,0.0,0.0,0.0,0.0,5.0176,5.168,5.3281,5.4941,5.5039,5.5019,5.5039,5.4687,5.3457,0.0,0.0,0.0,0.0,0.0,0.0,0.0,0.0,0.0,0.0,0.0,0.0,0.0,0.0,0.0,0.0,0.0,0.0,0.0,0.0,0.0,0.0,0.0,0.0,0.0,0.0,0.0,0.0,0.0,0.0,0.0,0.0,0.0,0.0,0.0,0.0,0.0,0.0,0.0,0.0,0.0,6.0351,6.0859,6.0781,0.0,0.0,0.0,0.0,5.9824,5.9824,0.0,0.0,0.0,0.0,0.0,0.0,0.0,0.0,0.0,0.0,0.0,0.0,0.0,0.0,0.0,0.0,0.0,0.0,0.0,0.0,0.0,0.0,0.0,0.0,0.0,0.0,0.0,0.0,0.0,0.0,0.0,0.0,0.0,0.0,0.0,0.0,0.0,0.0,0.0,0.0,0.0,0.0,0.0,0.0,0.0,0.0,0.0,0.0,0.0,0.0,0.0,0.0,0.0,0.0,0.0,0.0,5.0117,5.1094,5.2402,5.4043,5.4141,5.4141,5.4121,5.2656,5.1387,0.0,0.0,0.0,0.0,0.0,0.0,0.0,0.0,0.0,0.0,0.0,0.0,0.0,0.0,0.0,0.0,0.0,0.0,0.0,0.0,0.0,0.0,0.0,0.0,0.0,0.0,0.0,0.0,0.0,0.0,0.0,0.0,0.0,0.0,0.0,0.0,0.0,0.0,0.0,0.0,0.0,6.0156,6.2402,6.2031,6.1816,0.0,0.0,6.1562,6.2441,6.1914,0.0,0.0,0.0,0.0,0.0,0.0,0.0,0.0,0.0,0.0,0.0,0.0,0.0,0.0,0.0,0.0,0.0,0.0,0.0,0.0,0.0,0.0,0.0,0.0,0.0,0.0,0.0,0.0,0.0,0.0,0.0,0.0,0.0,0.0,0.0,0.0,0.0,0.0,0.0,0.0,0.0,0.0,0.0,0.0,0.0,0.0,0.0,0.0,0.0,0.0,0.0,0.0,0.0,0.0,0.0,4.6367,4.7988,4.9805,5.1289,5.248,5.3008,5.3027,5.2539,5.1777,5.0547,0.0,0.0,0.0,0.0,0.0,0.0,0.0,0.0,0.0,0.0,0.0,0.0,0.0,0.0,0.0,0.0,0.0,0.0,0.0,0.0,0.0,0.0,0.0,0.0,0.0,0.0,0.0,0.0,0.0,0.0,0.0,0.0,0.0,0.0,0.0,0.0,0.0,0.0,0.0,0.0,0.0,0.0,6.3379,6.3848,0.0,0.0,0.0,6.3301,6.3672,0.0,0.0,0.0,0.0,0.0,0.0,0.0,0.0,0.0,0.0,0.0,0.0,0.0,0.0,0.0,0.0,0.0,0.0,0.0,0.0,0.0,0.0,0.0,0.0,0.0,0.0,0.0,0.0,0.0,0.0,0.0,0.0,0.0,0.0,0.0,0.0,0.0,0.0,0.0,0.0,0.0,0.0,0.0,0.0,0.0,0.0,0.0,0.0,0.0,0.0,0.0,0.0,0.0,0.0,0.0,0.0,0.0,4.6308,4.8437,4.9961,5.0762,5.1406,5.1426,5.0801,5.0566,0.0,0.0,0.0,0.0,0.0,0.0,0.0,0.0,0.0,0.0,0.0,0.0,0.0,0.0,0.0,0.0,0.0,0.0,0.0,0.0,0.0,0.0,0.0,0.0,0.0,0.0,0.0,3.7793,0.0,0.0,0.0,0.0,0.0,0.0,0.0,0.0,0.0,0.0,0.0,0.0,0.0,0.0,6.0781,6.3594,6.4726,6.543,0.0,0.0,6.4629,6.4629,6.3711,6.2344,0.0,0.0,0.0,0.0,0.0,0.0,0.0,0.0,0.0,0.0,0.0,0.0,0.0,0.0,0.0,0.0,0.0,0.0,0.0,0.0,0.0,0.0,0.0,0.0,0.0,0.0,0.0,0.0,0.0,0.0,0.0,0.0,0.0,0.0,0.0,0.0,0.0,0.0,0.0,0.0,0.0,0.0,0.0,0.0,0.0,0.0,0.0,0.0,0.0,0.0,0.0,0.0,0.0,0.0,0.0,4.6269,4.7266,4.8203,4.9043,4.9121,4.9121,4.9062,4.8301,4.7422,0.0,0.0,0.0,0.0,0.0,0.0,0.0,0.0,0.0,0.0,0.0,0.0,0.0,0.0,0.0,0.0,0.0,0.0,0.0,0.0,0.0,0.0,0.0,0.0,0.0,0.0,0.0,0.0,0.0,0.0,0.0,0.0,0.0,0.0,0.0,0.0,0.0,0.0,0.0,0.0,0.0,5.9297,6.2637,6.3828,6.4961,0.0,0.0,6.5508,6.5488,6.4082,6.2148,5.9687,0.0,0.0,0.0,0.0,0.0,0.0,0.0,0.0,0.0,0.0,0.0,0.0,0.0,0.0,0.0,0.0,0.0,0.0,0.0,0.0,0.0,0.0,0.0,0.0,0.0,0.0,0.0,0.0,0.0,0.0,0.0,0.0,0.0,0.0,0.0,0.0,0.0,0.0,0.0,0.0,0.0,0.0,0.0,0.0,0.0,0.0,0.0,0.0,0.0,0.0,0.0,0.0,0.0,4.3473,4.4687,4.6074,4.7207,4.8066,4.8613,4.8652,4.8105,4.7754,4.6933,0.0,0.0,0.0,0.0,0.0,0.0,0.0,0.0,0.0,0.0,0.0,0.0,0.0,0.0,0.0,0.0,0.0,0.0,0.0,0.0,0.0,0.0,0.0,0.0,0.0,0.0,0.0,0.0,3.8242,3.8008,3.8535,0.0,0.0,0.0,0.0,0.0,0.0,0.0,0.0,0.0,0.0,5.8945,6.1797,6.3398,0.0,0.0,6.5019,6.4805,6.4805,6.334,6.1523,5.9512,5.7031,0.0,0.0,0.0,0.0,0.0,0.0,0.0,0.0,0.0,0.0,0.0,0.0,0.0,0.0,0.0,0.0,0.0,0.0,0.0,0.0,0.0,0.0,0.0,0.0,0.0,0.0,0.0,0.0,0.0,0.0,0.0,0.0,0.0,0.0,0.0,0.0,0.0,0.0,0.0,0.0,0.0,0.0,0.0,0.0,0.0,0.0,0.0,0.0,0.0,0.0,0.0,0.0,4.2839,4.3691,4.5156,4.6328,4.7207,4.7812,4.7832,4.7246,4.7207,4.6387,0.0,0.0,0.0,0.0,0.0,0.0,0.0,0.0,0.0,0.0,0.0,0.0,0.0,0.0,0.0,0.0,0.0,0.0,0.0,0.0,0.0,0.0,0.0,0.0,0.0,0.0,0.0,0.0,3.8828,3.832,3.8945,0.0,0.0,0.0,0.0,0.0,0.0,0.0,0.0,0.0,0.0,5.8144,6.0918,6.2344,6.3301,6.3848,6.3691,6.3437,6.3183,6.1894,6.0371,5.8691,0.0,0.0,0.0,0.0,0.0,0.0,0.0,0.0,0.0,0.0,0.0,0.0,0.0,0.0,0.0,0.0,0.0,0.0,0.0,0.0,0.0,0.0,0.0,0.0,0.0,0.0,0.0,0.0,0.0,0.0,4.1109,0.0,0.0,0.0,0.0,0.0,0.0,0.0,0.0,0.0,0.0,0.0,0.0,0.0,0.0,0.0,0.0,0.0,0.0,0.0,0.0,0.0,0.0,4.2815,4.3686,4.457,4.5449,4.6308,4.6367,4.6387,4.6348,4.6328,4.5508,4.3789,0.0,0.0,0.0,0.0,0.0,0.0,0.0,0.0,0.0,0.0,0.0,0.0,0.0,0.0,0.0,0.0,0.0,0.0,0.0,0.0,0.0,0.0,0.0,0.0,0.0,0.0,3.998,3.9883,3.9844,0.0,0.0,0.0,0.0,0.0,0.0,0.0,0.0,0.0,0.0,5.4258,5.6601,5.9941,6.0469,6.1133,6.2734,6.2265,6.1465,6.0664,5.9805,5.8652,0.0,0.0,0.0,0.0,0.0,0.0,0.0,0.0,0.0,0.0,0.0,0.0,0.0,0.0,0.0,0.0,0.0,0.0,0.0,0.0,0.0,0.0,0.0,0.0,0.0,0.0,0.0,4.2356,4.1883,0.0,0.0,0.0,0.0,0.0,0.0,0.0,0.0,0.0,0.0,0.0,4.3433,4.3382,0.0,0.0,0.0,0.0,0.0,0.0,0.0,0.0,0.0,0.0,0.0,0.0,4.221,4.3637,4.4002,4.4844,4.625,4.6289,4.6289,4.6289,4.6289,4.5469,4.3769,0.0,0.0,0.0,0.0,0.0,0.0,0.0,0.0,0.0,0.0,0.0,0.0,0.0,0.0,0.0,0.0,0.0,0.0,0.0,0.0,0.0,0.0,0.0,0.0,0.0,4.0859,0.0,0.0,0.0,0.0,0.0,0.0,0.0,0.0,0.0,0.0,0.0,5.1308,5.3301,5.5058,5.6777,5.8515,5.9238,5.9824,0.0,0.0,0.0,0.0,0.0,0.0,0.0,0.0,0.0,0.0,0.0,0.0,0.0,0.0,5.1914,5.0781,5.0137,4.9492,4.8633,0.0,0.0,0.0,0.0,0.0,0.0,0.0,0.0,0.0,0.0,0.0,0.0,0.0,0.0,0.0,0.0,4.2797,0.0,0.0,0.0,0.0,0.0,0.0,0.0,0.0,4.3523,4.4007,4.4238,4.4157,4.4176,0.0,4.4221,4.3823,0.0,0.0,0.0,0.0,0.0,0.0,0.0,0.0,4.173,4.3193,4.355,4.4394,4.5781,4.6152,4.6289,4.6289,4.5996,4.5312,4.4199,4.2519,4.0957,0.0,0.0,0.0,0.0,0.0,0.0,0.0,0.0,0.0,0.0,0.0,0.0,0.0,0.0,0.0,0.0,0.0,0.0,0.0,0.0,0.0,0.0,0.0,4.0644,0.0,0.0,0.0,0.0,0.0,0.0,0.0,0.0,0.0,4.8808,5.0371,5.2051,5.3789,5.5234,5.6562,5.7734,0.0,0.0,0.0,0.0,0.0,0.0,0.0,5.7211,5.6665,5.6103,5.5528,5.4974,5.4862,5.4883,5.4902,0.0,0.0,5.2168,5.1426,5.0703,4.957,4.9355,4.9258,4.8965,4.8887,4.8887,0.0,0.0,0.0,0.0,0.0,0.0,0.0,0.0,4.3559,4.3642,0.0,4.363,0.0,0.0,0.0,0.0,0.0,0.0,0.0,0.0,4.4253,4.5025,4.5742,4.5692,4.5731,4.5781,4.5742,4.5298,4.4409,4.2892,0.0,0.0,0.0,0.0,0.0,0.0,4.1468,4.2416,4.3227,4.4099,4.5,4.582,4.6269,4.6269,4.5488,4.5058,4.4941,4.3379,4.209,4.1211,3.959,0.0,0.0,0.0,0.0,0.0,0.0,0.0,0.0,0.0,0.0,0.0,0.0,0.0,0.0,0.0,0.0,0.0,0.0,0.0,0.0,3.9394,0.0,0.0,0.0,0.0,0.0,0.0,0.0,0.0,0.0,0.0,4.8887,5.0391,5.2051,5.373,0.0,0.0,0.0,0.0,5.6875,5.7734,5.7157,5.6631,5.6617,5.6569,5.6511,5.6492,0.0,0.0,5.6484,5.6456,5.6387,5.6504,5.5742,5.4707,5.2988,5.2637,5.2109,5.0586,5.0254,4.9941,4.9219,4.916,4.9101,4.472,0.0,0.0,0.0,0.0,4.3847,4.4152,4.4234,4.4967,4.4967,4.4461,4.4459,0.0,0.0,0.0,0.0,0.0,0.0,4.3419,4.4214,4.5018,4.5519,4.5722,4.5654,4.5673,4.5722,4.5722,4.5314,4.4461,4.3352,4.2524,4.1944,0.0,0.0,0.0,0.0,4.1357,4.2281,4.2627,4.3488,4.4961,4.5254,4.5664,4.6289,4.6055,4.5644,4.5019,4.4512,4.3301,4.1308,4.0723,0.0,0.0,0.0,0.0,0.0,0.0,0.0,0.0,0.0,0.0,0.0,0.0,0.0,0.0,0.0,0.0,0.0,0.0,0.0,3.9473,3.9766,4.0234,0.0,0.0,0.0,0.0,0.0,0.0,0.0,0.0,0.0,4.8848,5.0898,5.25,0.0,0.0,5.4765,5.5879,5.582,5.5976,5.6836,0.0,0.0,0.0,5.648,5.6433,5.6426,5.643,5.6426,5.6439,5.5942,5.5589,5.5667,5.4965,5.4013,5.2988,5.2695,5.2285,5.1328,5.1055,5.0996,5.0762,5.0683,5.0644,4.5278,4.4759,4.4297,4.4085,4.4143,4.4718,4.4993,4.5017,4.564,4.5648,4.5215,4.5187,4.4713,4.3848,4.2992,0.0,0.0,0.0,4.3989,4.4482,4.5315,4.568,4.5657,4.5622,4.5622,4.5637,4.531,4.4903,4.438,4.3173,4.2345,4.1817,0.0,0.0,4.0712,4.0773,4.1111,4.1734,4.2173,4.2932,4.3944,4.4648,4.5254,4.5762,4.6113,4.6055,4.5527,4.5176,4.4141,4.2266,4.1562,4.0176,0.0,0.0,0.0,0.0,0.0,0.0,0.0,0.0,0.0,0.0,0.0,3.9668,3.916,0.0,0.0,0.0,3.8809,3.8965,3.9824,3.9883,0.0,0.0,0.0,0.0,0.0,0.0,0.0,4.6191,4.707,4.7773,4.8359,5.0312,5.1953,5.2598,5.3457,5.418,5.4707,0.0,5.498,5.5485,5.5575,5.5552,5.5494,5.5411,5.5346,5.5314,5.5296,5.5298,5.5303,5.4924,5.4671,5.456,5.3735,5.2776,5.2277,5.1639,5.1289,5.1387,5.1387,5.1308,5.1016,5.0918,5.084,4.5586,4.5586,4.5586,4.5566,4.5605,4.568,4.5676,4.57,4.577,4.5781,4.5819,4.58,4.5302,4.4471,4.3675,0.0,4.3344,4.4056,4.4424,4.453,4.5316,4.5661,4.5586,4.5528,4.549,4.5488,4.4605,4.4162,4.4008,4.2547,4.1761,4.1687,4.0943,4.0588,4.0596,4.0713,4.084,4.0918,4.1824,4.2307,4.2417,4.4042,4.4883,4.4902,4.5664,4.6094,4.6055,4.5312,4.4492,4.3613,4.2109,4.0469,3.8711,0.0,0.0,0.0,0.0,0.0,0.0,0.0,0.0,0.0,0.0,0.0,0.0,0.0,0.0,0.0,3.9082,0.0,3.9824,3.9883,0.0,0.0,0.0,4.3144,4.4824,4.5078,4.543,4.6211,0.0,0.0,4.7598,0.0,5.0586,5.2187,5.3223,5.3808,5.3867,5.3887,5.3904,5.4099,5.4029,5.3991,5.4075,5.3974,5.3888,5.3771,5.3591,5.3674,5.3635,5.3545,5.3575,5.3386,5.2164,5.1103,5.1152,4.9934,4.9297,5.0859,5.1133,5.0918,5.0254,5.0098,4.9883,4.5586,4.5586,4.5586,4.5586,4.5586,4.568,4.5678,4.569,4.5706,4.5719,4.5712,4.5712,4.5248,4.4403,4.4199,4.4118,4.4124,4.4264,4.468,4.5316,4.5528,4.5624,4.5566,4.4913,4.4605,4.4547,4.3778,4.3047,4.2412,4.2008,4.145,4.0835,4.062,4.0554,4.0593,4.0668,4.0779,4.0898,4.1195,4.1675,4.2401,4.3457,4.4004,4.4023,4.4219,4.4316,4.4316,4.4135,4.3626,4.2754,4.2323,4.105,3.8717,3.8412,0.0,0.0,0.0,0.0,0.0,0.0,0.0,0.0,0.0,3.8633,3.7988,0.0,3.9394,0.0,3.873,3.8965,3.9805,3.9883,0.0,0.0,4.2988,4.3808,4.4883,4.5586,4.6074,4.6269,4.6484,4.6855,4.7539,4.7969,4.8613,4.9687,5.1094,5.2246,5.2891,5.2988,5.324,5.3767,5.3865,5.3956,5.3721,5.3683,5.3464,5.3447,5.343,5.3252,5.2655,5.2061,5.1469,5.0849,4.999,4.94,4.9354,4.9009,4.8931,4.9311,4.9452,4.9453,4.9238,4.9219,4.9121,4.5586,4.5586,4.5586,4.5586,4.5586,4.5661,4.5661,4.5657,4.5657,4.5654,4.5651,4.5651,4.5401,4.4941,4.4944,4.4941,4.4938,4.4908,4.5124,4.5586,4.5586,4.5411,4.5007,4.4528,4.4105,4.3739,4.2912,4.2277,4.1797,4.1412,4.095,4.0508,4.0489,4.0515,4.0582,4.0668,4.0757,4.0902,4.0998,4.1309,4.1855,4.2695,4.3125,4.3144,4.3496,4.371,4.3707,4.3704,4.3306,4.2468,4.2385,4.1244,3.8717,3.8551,3.778,0.0,0.0,0.0,0.0,0.0,0.0,0.0,0.0,0.0,0.0,0.0,3.9707,0.0,3.9531,3.9961,4.0449,4.0469,4.1152,4.2812,4.3418,4.4199,4.5449,4.6016,4.6289,4.6289,4.6289,4.6484,4.6973,4.7363,4.7773,4.8262,4.9473,5.0449,5.0898,5.0995,5.1188,5.1645,5.1708,5.162,5.1458,5.1286,5.1148,5.1101,5.1086,5.0913,5.0487,5.0077,4.9641,4.919,4.8528,4.8052,4.8076,4.7768,4.7616,4.7647,4.7673,4.7838,4.8239,4.832,4.8262,4.5586,4.5586,4.5586,4.5586,4.5586,4.5586,4.5586,4.5586,4.5586,4.5586,4.5586,4.5586,4.5586,4.5586,4.5586,4.5528,4.5432,4.5432,4.5374,4.5278,4.5278,4.4891,4.4141,4.4028,4.3624,4.2912,4.2047,4.1623,4.1604,4.0854,4.0489,4.0489,4.0489,4.053,4.0596,4.0681,4.0768,4.0902,4.1035,4.113,4.1211,4.1875,4.2246,4.2285,4.2969,4.3376,4.3359,4.3373,4.3019,4.2295,4.2105,4.0974,3.8629,3.838,3.7632,0.0,3.5991,0.0,0.0,0.0,0.0,0.0,0.0,0.0,0.0,4.0,4.0059,4.0059,4.0762,4.1191,4.1191,4.1191,4.1836,4.334,4.3535,4.418,4.5723,4.5976,4.6016,4.6113,4.6133,4.6152,4.6348,4.6973,4.7441,4.75,4.8047,4.8555,4.8613,4.8885,4.9115,4.8899,4.883,4.9127,4.8832,4.8561,4.8472,4.833,4.8451,4.8145,4.8164,4.8143,4.8116,4.7932,4.7434,4.7061,4.7098,4.6562,4.6166,4.6287,4.632,4.656,4.7204,4.7418,4.7167,4.5586,4.5586,4.5586,4.5586,4.5586,4.5586,4.5586,4.5586,4.5586,4.5586,4.5586,4.5586,4.5586,4.5586,4.5586,4.5201,4.4568,4.4547,4.4184,4.3592,4.3568,4.3489,4.328,4.2604,4.22,4.2008,4.1162,4.0739,4.0739,4.0566,4.0489,4.0489,4.0489,4.053,4.061,0.0,0.0,0.0,4.1046,4.113,4.1191,4.1348,4.1426,4.1426,4.1523,0.0,4.1599,4.1593,4.1513,4.133,4.063,0.0,0.0,0.0,0.0,0.0,0.0,0.0,0.0,0.0,0.0,0.0,3.8516,3.8965,3.9824,4.0547,4.0957,4.0957,4.1094,4.1191,4.1191,4.1191,4.1582,4.2519,4.2656,4.3066,4.4062,4.4219,4.4433,4.5156,4.5254,4.5508,4.6133,4.6465,4.6543,4.6562,4.6699,4.6777,4.6855,4.8006,4.8822,4.8877,4.8638,4.8555,4.8451,4.8265,4.8075,4.8142,4.8105,4.7856,4.7299,4.7105,4.6891,4.6369,4.6136,4.6086,4.6145,4.6019,4.591,4.6007,4.6063,4.6193,4.6426,4.6452,4.6427,4.5586,0.0,4.5586,4.5586,0.0,4.5586,4.5586,4.5586,4.5586,4.5586,4.5566,4.5143,4.4951,4.4932,4.4528,4.4126,4.3707,4.3703,4.3489,4.3104,4.3085,4.2874,4.2447,4.2008,4.1373,4.0566,4.0123,3.9681,3.9296,3.9681,3.9912,3.9927,4.0296,4.0515,4.0615,4.0726,4.0867,4.0994,4.1069,4.1111,4.1133,4.1172,4.1191,4.1191,0.0,0.0,0.0,0.0,0.0,0.0,0.0,0.0,0.0,0.0,0.0,3.5911,3.5909,3.5965,3.6009,3.6015,3.6562,3.7851,3.875,3.9609,4.0469,4.0937,4.1191,4.1191,4.1191,4.1191,4.1191,4.1191,4.1523,4.2285,4.2383,4.2734,4.3516,4.3711,4.3867,4.4258,4.4355,4.4531,4.4961,4.543,4.5625,4.5683,4.6035,4.6269,4.6367,4.7048,4.7606,4.758,4.7457,4.7291,4.7165,4.7071,4.6976,4.6891,4.6855,4.6701,4.6318,4.5893,4.5468,4.5084,4.5064,4.5117,4.5162,4.5189,4.5221,4.5243,4.4993,4.4753,4.4826,4.5169,4.5523,4.5586,4.5586,4.5586,4.5586,4.5586,4.5586,4.5509,4.5355,0.0,0.0,0.0,4.447,4.4085,4.4028,4.3393,4.3011,4.29,4.2876,4.2791,4.2649,4.264,4.2178,4.1382,4.1351,4.0566,3.9104,3.9046,3.87,3.8046,3.8719,3.9142,3.9335,3.995,4.0414,4.061,4.0798,4.0932,4.0994,4.1081,4.1108,4.1113,4.1172,4.1191,4.1191,4.1133,4.1107,4.1115,4.1084,4.065,3.9747,3.9466,3.8646,3.7085,3.6833,3.6463,3.5854,3.5846,3.5919,3.5965,3.5989,3.6367,3.7246,3.8769,4.0039,4.0898,4.1113,4.1133,4.0996,4.0957,4.0898,4.0742,4.0742,4.0996,4.166,4.1719,4.1992,4.2656,4.2969,4.2988,4.3223,4.3359,4.3555,4.3769,4.4355,4.4766,4.4844,4.5293,4.584,4.5898,4.6149,4.6446,4.6378,4.6205,4.5833,4.5622,4.5375,4.5244,4.518,4.5163,4.5163,4.5049,4.4568,4.4145,4.4119,4.416,4.4157,4.4164,4.4225,4.4269,4.4337,4.3802,4.3299,4.3416,4.3839,4.4325,4.5586,4.5586,4.5586,4.5586,4.5586,4.5586,4.5182,4.4489,4.4487,4.4468,4.4432,4.3624,4.3258,4.3258,4.3143,4.2684,4.1997,4.1992,4.1585,0.0,4.087,4.0427,3.9653,3.9657,3.9142,3.8238,3.818,3.8123,3.8027,3.8123,3.8546,3.9219,3.9415,3.9885,4.0637,4.084,4.0932,4.0987,4.1067,4.1111,4.1113,4.1172,4.1191,4.1191,4.1133,4.1107,4.1115,4.1039,4.0614,3.9738,3.886,3.7945,3.6975,3.6209,3.5775,3.5708,3.5782,3.584,3.5927,3.5971,3.6378,3.7246,3.8223,3.9141,4.0019,4.0762,4.0879,4.0176,4.0098,3.9766,3.9101,3.9043,3.9141,3.9199,3.918,3.9219,3.9512,4.0117,4.0801,4.1465,4.2187,4.2812,4.3359,4.3691,4.3848,4.3887,4.418,4.416,4.4433,4.5349,4.615,4.6105,4.5504,4.5007,4.4731,4.4042,4.3755,4.3448,4.3551,4.363,4.3669,4.3419,4.3261,4.3285,4.3285,4.3265,4.3281,4.3281,4.3331,4.3376,4.3163,4.3062,4.3032,4.275,4.2671,4.5586,4.5586,4.5586,4.5586,4.5586,4.5586,4.5105,4.4278,4.3847,4.3638,4.3566,4.2777,4.2412,4.2354,4.1912,4.147,4.1088,4.1085,4.0662,3.9877,3.9854,3.9407,3.8657,3.8604,3.8142,3.7334,3.7296,3.7084,3.6719,3.7065,3.7738,3.8604,3.9518,4.0243,4.0679,4.084,4.0932,4.1007,4.1081,4.1101,4.1111,4.1172,4.1191,4.1191,4.1133,4.1107,4.1096,4.0584,3.9875,3.8991,3.8015,3.7096,3.6207,3.5751,3.5581,3.5646,3.5718,3.5791,3.5897,3.5971,3.6188,3.6582,3.7402,3.8047,3.8437,3.9297,3.9609,3.9238,3.9199,3.9023,3.8652,3.8613,3.8613,3.8613,3.8613,3.8613,3.8633,3.8906,3.9336,3.9746,4.0098,4.0664,4.1543,4.2051,4.2558,4.2891,4.334,4.3652,4.3672,4.4314,4.4865,4.476,4.4374,4.4074,4.3886,4.354,4.3181,4.3102,4.3088,4.309,4.3052,4.278,4.2428,4.2402,4.2399,4.2399,4.2383,4.2387,4.2422,4.2383,4.1994,4.1817,4.1697,4.1147,4.1003,4.5586,4.5586,4.5586,4.5586,4.5586,4.5586,4.4989,4.3989,4.3381,4.2864,4.2431,4.1797,4.1508,4.1431,4.0796,4.0489,4.0489,4.0489,4.0085,3.9342,3.9315,3.8738,3.7777,3.77,3.7257,3.6507,3.6416,3.6103,3.5628,3.6142,3.6969,3.808,3.973,4.0649,4.071,4.082,4.0932,4.1,4.1081,4.1117,4.1107,4.1151,4.1191,4.1191,4.1133,4.1011,4.0788,4.009,3.9194,3.8064,3.7295,3.6489,3.5573,3.5496,3.554,3.5608,3.5662,3.5776,3.5891,3.5962,3.6016,3.6016,3.6621,3.7012,3.707,3.7617,3.8105,3.8262,3.832,3.8223,3.7969,3.7969,3.8008,3.8027,3.8027,3.791,3.8008,3.8184,3.832,3.8301,3.8476,3.8926,3.9531,4.0195,4.0898,4.1699,4.2441,4.2871,4.3066,4.3123,4.3085,4.307,4.3109,4.3141,4.3015,4.2709,4.2506,4.2524,4.245,4.2354,4.2277,4.187,4.1578,4.1501,4.1501,4.1501,4.1501,4.1505,4.1508,4.1466,4.0908,4.0254,4.0,3.9605,3.9361,4.5586,4.5586,4.5586,4.5586,4.5586,4.5586,4.4701,4.3316,4.3131,4.2171,4.0873,4.0662,4.0642,4.0604,4.0527,4.0489,4.0489,4.0489,4.0031,3.9323,3.9315,3.8426,3.6906,3.6815,3.6411,3.5718,3.5661,3.5641,3.5512,3.568,3.6469,3.8041,3.975,4.063,4.0699,4.082,4.0924,4.0986,4.107,4.1117,4.1107,4.1171,4.1191,4.1191,4.1133,4.0718,4.0028,3.9797,3.8882,3.7307,3.6972,3.6472,3.5631,3.5496,3.5528,3.5584,3.5662,3.5754,3.5896,3.5953,3.6016,3.6016,3.6094,3.6191,3.6172,3.623,3.6601,3.7207,3.7402,3.7109,3.6348,3.6328,3.6426,3.6484,3.6426,3.623,3.6426,3.6934,3.7422,3.7422,3.7988,3.8633,3.8691,3.8926,3.9297,4.0137,4.0527,4.0918,4.1445,4.1639,4.1582,4.1524,4.1843,4.2208,4.2078,4.1376,4.1133,4.0943,4.0796,4.0931,4.0969,4.0893,4.0658,4.087,4.062,4.0639,4.062,4.0604,4.0566,4.0392,3.9873,3.92,3.8527,3.8238,3.8329,4.5586,4.5586,4.5586,4.5586,4.5586,4.5586,4.4643,4.3143,4.3092,4.2113,4.062,4.0489,4.0489,4.0489,4.0489,4.0489,4.0469,4.0011,3.9323,3.852,3.7997,3.7142,3.6084,3.5988,3.5782,3.5512,3.5507,3.5507,3.568,3.6469,3.7334,3.8118,3.975,4.063,4.071,4.082,4.0699,4.0298,4.0326,4.0343,4.0455,4.0936,4.1191,4.1133,4.0684,4.023,3.9739,3.8789,3.7812,3.7036,3.6431,3.5965,3.5534,3.5482,3.5509,3.5547,3.5684,3.581,3.5895,3.5974,3.6011,3.6015,3.6016,3.6016,3.6016,3.6016,3.6172,3.6426,3.6543,3.6348,3.6055,3.6016,3.6016,3.6016,3.6016,3.6016,3.6016,3.6309,3.6543,3.6562,3.6855,3.7305,3.7793,3.8301,3.8711,3.916,3.9512,4.0,4.041,4.0799,4.1072,4.105,4.1271,4.1353,4.1246,4.0932,4.0598,4.0519,4.0489,4.0489,4.0489,4.0489,4.0508,4.0469,4.0081,3.9811,3.9792,3.9311,3.9027,3.8988,3.8892,3.8277,3.7416,3.7262,3.7137,4.5586,4.5586,4.5586,4.5586,4.5566,4.5336,4.4432,4.3143,4.2845,4.1902,4.0566,4.0489,4.0489,4.0489,4.0489,4.0408,4.0104,3.9569,3.8708,3.7674,3.6978,3.6281,3.5565,3.5507,3.5507,3.5507,3.5507,3.5507,3.5699,3.718,3.8007,3.8253,3.975,4.0514,4.0382,4.0489,4.0182,3.9507,3.9442,3.9488,3.9627,4.0172,4.0605,4.0762,4.0234,3.9663,3.9103,3.7825,3.6943,3.6658,3.5951,3.5565,3.5501,3.5488,3.552,3.5541,3.5673,3.5821,3.5883,3.5955,3.5984,3.5996,3.6016,3.6016,3.6016,3.6016,3.6016,3.6035,3.6016,3.6035,3.6016,3.6016,3.6016,3.6016,3.6016,3.6016,3.6016,3.6016,3.6035,3.6016,3.6152,3.6211,3.6855,3.7441,3.7851,3.8242,3.8769,3.9492,3.9844,4.0408,4.0784,4.0998,4.0967,4.0867,4.0711,4.0662,4.0579,4.0519,4.0489,4.0489,4.0431,4.0373,4.0158,3.9865,3.9364,3.9018,3.8945,3.8387,3.7834,3.77,3.7603,3.7353,3.6551,3.6421,3.6166,4.5586,4.5586,4.5586,4.5586,4.5528,4.4741,4.3915,4.3028,4.2252,4.1366,4.0566,4.0489,4.0489,4.0489,4.0489,4.0081,3.9446,3.9281,3.8339,3.6925,3.6704,3.6262,3.5526,3.5507,3.5507,3.5507,3.5507,3.5507,3.5603,3.718,3.8007,3.8104,3.975,4.0249,3.9723,3.9721,3.9307,3.8643,3.8608,3.8648,3.8651,3.8709,3.9141,3.9785,3.9863,3.9041,3.7692,3.7225,3.669,3.5794,3.5674,3.5559,3.5522,3.5501,3.5526,3.5578,3.5666,3.5766,3.5872,3.5912,3.5925,3.5996,3.6016,3.6016,3.6016,3.6016,3.5976,3.5957,3.5898,3.5918,3.582,3.5801,3.584,3.582,3.5918,3.5937,3.5957,3.5957,3.5996,3.6016,3.6016,3.6055,3.6113,3.6074,3.6641,3.7168,3.7441,3.7988,3.9297,3.9823,4.0238,4.0749,4.0883,4.0829,4.0711,4.0642,4.0593,4.0481,4.0412,4.0392,4.02,3.9969,3.9615,3.9167,3.8517,3.8137,3.808,3.781,3.7392,3.7103,3.6815,3.6411,3.5955,3.5666,3.5545,4.5586,4.5586,4.5586,4.5586,4.549,4.4664,4.3857,4.3028,4.2175,4.1309,4.06,4.0489,4.0489,4.0489,4.0489,4.0062,3.9292,3.8738,3.782,3.6704,3.6166,3.5762,3.5545,3.5507,3.5507,3.5507,3.5507,3.5507,3.5699,3.7199,3.8007,3.8291,3.9783,4.0273,3.9655,3.9599,3.9026,3.7831,3.7741,3.7764,3.7773,3.7773,3.793,3.8223,3.8242,3.7947,3.7321,3.6699,3.6151,3.5782,3.5662,3.5573,3.5522,3.5482,3.554,3.5599,3.5681,3.5736,3.5811,3.588,3.5945,3.5976,3.6016,3.6016,3.6016,3.5996,3.5781,3.5312,3.5156,3.4961,3.457,3.4824,3.4922,3.4512,3.4844,3.5176,3.5293,3.5644,3.6016,3.6016,3.6016,3.6016,3.6016,3.6016,3.6133,3.6445,3.6934,3.7559,3.8086,3.867,3.9342,4.0008,4.0208,4.0282,4.0773,4.0655,4.0535,4.0346,4.02,3.98,3.955,3.8958,3.8546,3.8358,3.7728,3.7252,3.7175,3.6815,3.6488,3.6315,3.6045,3.6007,3.557,3.5507,3.5507,4.5586,4.5586,4.5586,4.5586,4.5451,4.4397,4.3609,4.297,4.1886,4.1043,4.0566,4.0489,4.0489,4.0489,4.0489,4.0065,3.9238,3.8392,3.7397,3.6325,3.5743,3.5507,3.5507,3.5507,3.5507,3.5507,3.5507,3.5603,3.6012,3.7315,3.8104,3.8522,3.997,4.015,3.9324,3.9225,3.8481,3.7152,3.6872,3.6891,3.6875,3.6875,3.6894,3.6875,3.6875,3.6874,3.6864,3.6251,3.5872,3.5801,3.5704,3.5579,3.5509,3.5495,3.5515,3.5605,3.5669,3.5731,3.5791,3.5851,3.5925,3.5996,3.6016,3.6016,3.6016,3.6016,3.5566,3.4941,3.4687,3.4297,3.3418,3.3555,3.375,3.3476,3.3926,3.4414,3.4668,3.5234,3.5644,3.5937,3.6016,3.6016,3.6016,3.6016,3.6016,3.6016,3.6562,3.6934,3.7324,3.7772,3.8465,3.9189,3.9324,3.9443,3.9615,3.9553,3.9797,3.9692,3.93,3.8996,3.8689,3.8059,3.7613,3.7439,3.7088,3.6559,3.6142,3.5815,3.5628,3.5526,3.5603,3.568,3.5526,3.5507,3.5507,4.5586,4.5586,4.5586,4.5547,4.5259,4.3861,4.3131,4.2739,4.1277,4.0566,4.0489,4.0489,4.0489,4.0489,4.0489,4.0046,3.9238,3.8488,3.7276,3.5815,3.5565,3.5507,3.5507,3.5507,3.5584,3.5622,3.5545,3.5968,3.6757,3.7661,3.8503,3.9283,4.0158,3.9998,3.8381,3.85,3.7714,3.6528,3.6213,3.6092,3.6016,3.6113,3.6133,3.6094,3.6113,3.6113,3.6074,3.5966,3.5866,3.5803,3.5731,3.5624,3.5515,3.5489,3.5534,3.5598,3.5669,3.5723,3.581,3.5866,3.5945,3.5996,3.6016,3.6016,3.6016,3.5918,3.5508,3.4726,3.4414,3.3926,3.2519,3.2266,3.2539,3.3184,3.3301,3.3711,3.4316,3.4668,3.5039,3.5781,3.6016,3.6016,3.6016,3.6016,3.6016,3.6016,3.6113,3.6387,3.6953,3.7206,3.7626,3.8221,3.8472,3.8544,3.8394,3.8252,3.8646,3.8864,3.8377,3.7982,3.78,3.732,3.6858,3.6612,3.6381,3.5892,3.5872,3.5603,3.5584,3.5507,3.5507,3.5507,3.5507,3.5507,3.5507,4.5586,4.5586,4.5586,4.522,4.4605,4.3553,4.2766,4.2124,4.0969,4.0508,4.0489,4.0489,4.0489,4.0489,4.0489,4.0065,3.9296,3.8935,3.7969,3.6483,3.5795,3.5545,3.5545,3.5526,3.5795,3.6243,3.632,3.6762,3.7623,3.8464,3.9095,3.9432,4.0243,4.0156,3.919,3.8702,3.7901,3.6961,3.6294,3.6013,3.6016,3.6016,3.6016,3.6016,3.6016,3.6016,3.6016,3.5927,3.5899,3.5869,3.5766,3.5666,3.5579,3.5515,3.5553,3.5662,3.5685,3.5751,3.5877,3.5924,3.5984,3.5996,3.6016,3.6016,3.5918,3.5449,3.4766,3.3887,3.332,3.2461,3.1601,3.1309,3.1484,3.168,3.2207,3.2695,3.3223,3.4062,3.5019,3.582,3.6016,3.6016,3.6016,3.6016,3.6016,3.6016,3.6016,3.6211,3.6348,3.6504,3.6752,3.7461,3.7542,3.767,3.7694,3.7519,3.7513,3.7698,3.7392,3.7137,3.6935,3.6699,3.6219,3.5944,3.5661,3.5545,3.5507,3.5507,3.5507,3.5507,3.5507,3.5507,3.5507,3.5507,3.5507,4.5586,4.5586,4.5586,4.5105,4.4239,4.3436,4.259,4.1739,4.0873,4.0489,4.0489,4.0489,4.0489,4.0489,4.0489,4.0219,3.9738,3.9473,3.8723,3.7642,3.6796,3.6449,3.643,3.6425,3.6636,3.7103,3.719,3.7632,3.8469,3.9022,3.948,3.986,4.0397,4.0331,3.9657,3.9176,3.855,3.7784,3.727,3.6814,3.6543,3.6484,3.6328,3.6074,3.6016,3.6016,3.5993,3.5962,3.5931,3.5879,3.5775,3.5665,3.5596,3.5577,3.5581,3.5676,3.5716,3.5796,3.59,3.5953,3.6003,3.6016,3.6016,3.582,3.5527,3.4922,3.4258,3.3086,3.2539,3.1855,3.1133,3.0918,3.0918,3.0918,3.1387,3.1992,3.2598,3.3848,3.5,3.5742,3.6016,3.6016,3.6016,3.6016,3.6016,3.6016,3.6016,3.6016,3.6016,3.6035,3.6426,3.6674,3.6699,3.6878,3.7148,3.6881,3.6455,3.6428,3.6367,3.6281,3.6185,3.6012,3.568,3.5699,3.5526,3.5526,3.5507,3.5507,3.5507,3.5507,3.5507,3.5507,3.5507,3.5507,3.5507,4.5586,4.5586,4.5547,4.497,4.4105,4.3316,4.2415,4.1623,4.0873,4.0489,4.0489,4.0489,4.0489,4.0489,4.0489,4.0431,4.0354,3.98,3.9438,3.9089,3.8473,3.8046,3.7738,3.769,3.7824,3.8046,3.8059,3.8535,3.9315,3.9465,3.9773,4.0462,4.0565,4.038,3.9843,3.9708,3.9257,3.8662,3.85,3.8045,3.7402,3.7363,3.6973,3.6211,3.6172,3.6131,3.6005,3.5996,3.5978,3.5903,3.5791,3.5697,3.5635,3.5607,3.5648,3.5737,3.5765,3.5834,3.5911,3.5951,3.6007,3.6016,3.5976,3.5644,3.4961,3.459,3.3887,3.2519,3.2129,3.1738,3.1074,3.0918,3.0918,3.0918,3.1016,3.1699,3.3164,3.4101,3.4863,3.5723,3.6016,3.6016,3.6016,3.6016,3.6016,3.6016,3.6016,3.6016,3.6016,3.6016,3.6016,3.6083,3.6189,3.6253,3.655,3.6416,3.6041,3.5977,3.5894,3.5815,3.5743,3.5589,3.5507,3.5507,3.5507,3.5507,3.5507,3.5507,3.5507,3.5507,3.5507,3.5507,3.5507,3.5507,3.5584,4.5586,4.5528,4.4913,4.4162,4.3355,4.2511,4.1665,4.0873,4.0623,4.0489,4.0489,4.0489,4.0489,4.0489,4.0489,4.0489,4.0412,4.0258,4.0181,4.0162,3.9969,3.9065,3.82,3.8041,3.8387,3.8873,3.8958,3.9396,4.0123,4.0138,4.0292,4.0562,4.0668,4.0645,4.0462,3.9981,3.9661,3.9379,3.8851,3.8552,3.834,3.8262,3.7812,3.7051,3.6973,3.6641,3.6094,3.6003,3.5958,3.5908,3.583,3.5765,3.5747,3.5708,3.5736,3.5815,3.5873,3.5923,3.5963,3.5999,3.6014,3.6016,3.6016,3.5625,3.4766,3.4101,3.3301,3.2285,3.168,3.123,3.0976,3.0976,3.0976,3.0918,3.1074,3.166,3.2988,3.3613,3.4297,3.5664,3.5996,3.6016,3.6016,3.6016,3.6016,3.6016,3.6016,3.6016,3.6016,3.6016,3.6015,3.597,3.6004,3.5919,3.5884,3.5794,3.5715,3.5693,3.5637,3.5622,3.557,3.5545,3.5507,3.5507,3.5507,3.5507,3.5507,3.5507,3.5507,3.5507,3.5622,3.568,3.5584,3.5551,3.5699,4.5586,4.5547,4.5047,4.4182,4.3104,4.2549,4.1646,4.0662,4.0489,4.0489,4.0489,4.0489,4.0489,4.0489,4.0489,4.0489,4.0489,4.0489,4.0489,4.0489,4.0431,3.9912,3.9219,3.9065,3.9335,3.9738,3.9815,4.0046,4.0412,4.0489,4.0546,4.0596,4.0681,4.074,4.0735,4.05,4.0279,4.0257,3.9845,3.9529,3.918,3.916,3.8672,3.8047,3.7832,3.7441,3.666,3.622,3.5981,3.5938,3.5891,3.5826,3.5838,3.5815,3.5811,3.5885,3.5937,3.5957,3.5992,3.6016,3.6016,3.6016,3.6016,3.5547,3.4766,3.3906,3.3066,3.2266,3.1719,3.1504,3.1504,3.1719,3.1914,3.2031,3.1953,3.2363,3.334,3.3398,3.4238,3.541,3.6016,3.6016,3.6016,3.6016,3.6016,3.6016,3.6016,3.6016,3.6016,3.6016,3.6015,3.5991,3.5955,3.589,3.5827,3.5763,3.5648,3.5608,3.5541,3.5507,3.5603,3.5584,3.5507,3.5507,3.5507,3.5507,3.5507,3.5507,3.5507,3.5565,3.5738,3.5988,3.6007,3.6161,3.6252,4.5586,4.5586,4.549,4.4605,4.3316,4.3008,4.2008,4.0835,4.0546,4.0489,4.0489,4.0489,4.0489,4.0489,4.0489,4.0489,4.0489,4.0489,4.0489,4.0489,4.0489,4.0335,4.0258,4.0162,4.0239,4.0412,4.0546,4.0662,4.0835,4.0812,4.0793,4.0881,4.0882,4.0808,4.0829,4.0855,4.1013,4.0998,4.0882,4.0544,4.0137,4.0,3.959,3.8867,3.8476,3.8164,3.7402,3.6731,3.6211,3.6147,3.6001,3.5914,3.5897,3.5911,3.5911,3.5911,3.5981,3.6006,3.6012,3.6016,3.6016,3.6016,3.6016,3.5625,3.4805,3.4043,3.3359,3.2559,3.2344,3.2324,3.2383,3.293,3.3105,3.3086,3.3223,3.3359,3.3516,3.3535,3.4199,3.5703,3.5996,3.6016,3.6016,3.6016,3.6016,3.6016,3.6016,3.6016,3.6016,3.6016,3.6016,3.6013,3.5957,3.5919,3.5866,3.5788,3.5689,3.5601,3.5541,3.5545,3.5776,3.5757,3.5584,3.5507,3.5507,3.5507,3.5526,3.5507,3.5661,3.5988,3.6392,3.6661,3.6873,3.7137,3.7271,4.5586,4.5547,4.4836,4.4374,4.3855,4.2675,4.1889,4.1489,4.0796,4.0566,4.0508,4.0508,4.0489,4.0489,4.0546,4.0489,4.0585,4.062,4.0489,4.0489,4.0489,4.0489,4.0527,4.0566,4.0527,4.0681,4.1239,4.1489,4.1604,4.2021,4.2171,4.1613,4.1615,4.1409,4.0936,4.1046,4.1052,4.1096,4.1114,4.1052,4.0937,4.082,4.0449,3.9668,3.9004,3.8574,3.8223,3.748,3.7046,3.6877,3.6375,3.5974,3.5958,3.5919,3.5919,3.5982,3.5997,3.6007,3.6004,3.6016,3.6016,3.6016,3.5976,3.5625,3.4824,3.4551,3.3984,3.3359,3.3144,3.3164,3.3301,3.332,3.3555,3.3633,3.3613,3.3789,3.4258,3.4394,3.4883,3.5664,3.6016,3.6016,3.6016,3.6016,3.6016,3.6016,3.6016,3.6016,3.6016,3.6016,3.6016,3.6014,3.5986,3.5958,3.5889,3.5857,3.5863,3.5883,3.5843,3.604,3.6252,3.6238,3.6147,3.5839,3.5507,3.5603,3.6045,3.6238,3.6526,3.6796,3.7084,3.7469,3.7796,3.806,3.8344,4.5586,4.5547,4.5105,4.4662,4.4201,4.3335,4.2758,4.2297,4.1485,4.112,4.1008,4.0719,4.0489,4.0546,4.0912,4.1123,4.1235,4.154,4.1501,4.1251,4.1135,4.112,4.1104,4.1104,4.1104,4.12,4.1546,4.197,4.245,4.2829,4.281,4.2464,4.2521,4.2112,4.1485,4.1479,4.1363,4.1135,4.1114,4.113,4.1191,4.1191,4.1074,4.0449,3.9707,3.9199,3.9141,3.793,3.7402,3.7085,3.6493,3.6021,3.6013,3.5965,3.5962,3.5994,3.6009,3.6004,3.6007,3.6016,3.6016,3.6016,3.6016,3.5762,3.5273,3.498,3.4531,3.416,3.4062,3.4141,3.4551,3.4629,3.4609,3.4629,3.4609,3.4824,3.5137,3.4961,3.5039,3.5742,3.6016,3.6016,3.6016,3.6016,3.6016,3.6016,3.6016,3.6016,3.6016,3.6016,3.6016,3.6013,3.6009,3.5974,3.5914,3.5937,3.6047,3.6195,3.6408,3.6793,3.7222,3.706,3.6863,3.6608,3.6435,3.6719,3.7084,3.7238,3.7334,3.7546,3.7853,3.8315,3.8738,3.908,3.933,4.5586,4.5586,4.5586,4.5163,4.4547,4.4318,4.3838,4.3201,4.2217,4.1697,4.1623,4.0873,4.0585,4.0854,4.1431,4.1816,4.2178,4.2541,4.2499,4.2063,4.2002,4.1986,4.1989,4.1989,4.2124,4.2143,4.2354,4.2739,4.3162,4.3393,4.3585,4.3352,4.3339,4.2955,4.2416,4.2287,4.219,4.1808,4.1797,4.1775,4.1777,4.1758,4.168,4.125,4.0566,4.0117,3.9805,3.8789,3.7812,3.7617,3.6737,3.6286,3.6169,3.6031,3.601,3.6018,3.6018,3.6007,3.6016,3.6016,3.6016,3.6016,3.6016,3.6016,3.5801,3.541,3.5078,3.4961,3.4941,3.5137,3.5898,3.5781,3.582,3.5879,3.5937,3.6016,3.5879,3.5312,3.5449,3.5801,3.6016,3.6016,3.6016,3.6016,3.6016,3.6016,3.6016,3.6016,3.6016,3.6016,3.6016,3.6016,3.6009,3.5979,3.5927,3.6403,3.6462,3.6716,3.6972,3.7598,3.8125,3.813,3.7968,3.7762,3.7704,3.7853,3.7945,3.8046,3.8142,3.8296,3.8719,3.9296,3.9719,4.0085,4.0181,4.5586,4.5586,4.5586,4.549,4.5278,4.4626,4.4261,4.3855,4.2492,4.1819,4.172,4.0912,4.0969,4.147,4.1681,4.222,4.2931,4.3294,4.3162,4.2915,4.2893,4.2874,4.2874,4.2893,4.3201,4.3739,4.3835,4.3932,4.4239,4.4759,4.4586,4.4239,4.419,4.3815,4.3298,4.3149,4.3158,4.2902,4.2942,4.3003,4.3008,4.2988,4.2656,4.2129,4.1328,4.0976,4.0723,4.0039,3.9473,3.9316,3.791,3.7226,3.6855,3.6367,3.6055,3.6016,3.6016,3.6016,3.6016,3.6016,3.6016,3.6016,3.6016,3.6016,3.5957,3.584,3.5644,3.5684,3.5684,3.584,3.5976,3.6016,3.6016,3.6016,3.6016,3.6016,3.5976,3.584,3.5703,3.5976,3.6016,3.6016,3.6016,3.6016,3.6016,3.6016,3.6016,3.6016,3.6016,3.6016,3.6016,3.6016,3.6007,3.5977,3.5916,3.6629,3.707,3.7383,3.7772,3.8477,3.8929,3.9168,3.911,3.8859,3.8527,3.8387,3.8522,3.8811,3.8984,3.9138,3.9696,4.0273,4.0277,4.0315,4.0485,4.5586,4.5586,4.5586,4.5586,4.5509,4.5182,4.4989,4.4701,4.3222,4.2473,4.222,4.1623,4.1373,4.195,4.2835,4.3566,4.4162,4.4393,4.4145,4.3878,4.3724,4.3722,4.372,4.3739,4.4239,4.4739,4.497,4.4932,4.4989,4.5316,4.5336,4.5141,4.5057,4.4677,4.4103,4.4025,4.3898,4.3786,4.3704,4.3739,4.373,4.373,4.3242,4.2519,4.2031,4.1641,4.1074,4.0351,3.9902,3.9531,3.8223,3.748,3.707,3.6582,3.6016,3.6016,3.6016,3.6016,3.6016,3.6016,3.6016,3.6016,3.6016,3.6016,3.6016,3.5996,3.6016,3.6016,3.6016,3.6016,3.6016,3.6016,3.6016,3.6016,3.6035,3.6055,3.6035,3.6035,3.6133,3.6172,3.6133,3.6133,3.6016,3.6016,3.6016,3.6016,3.6016,3.6074,3.6113,3.6269,3.6387,3.6406,3.6504,3.6651,3.6735,3.7312,3.7876,3.8162,3.8574,3.9277,3.9719,3.9971,4.0012,3.9867,3.9518,3.9168,3.9485,3.9904,3.9952,3.9923,4.0192,4.0408,4.0466,4.0527,4.0773,4.5586,4.5586,4.5586,4.549,4.5336,4.5336,4.5182,4.4797,4.3448,4.2739,4.2701,4.195,4.1681,4.2431,4.3701,4.4932,4.5586,4.5509,4.5105,4.4703,4.4568,4.4568,4.4566,4.4624,4.4893,4.5316,4.547,4.5586,4.549,4.5547,4.5586,4.5507,4.5618,4.542,4.4901,4.4886,4.4492,4.4343,4.4167,4.4195,4.4219,4.4023,4.3652,4.2871,4.2617,4.207,4.1523,4.0742,4.0332,3.9863,3.8887,3.7812,3.7461,3.6738,3.6191,3.6035,3.6016,3.6016,3.6016,3.6016,3.6016,3.6016,3.6016,3.6016,3.6016,3.6016,3.6016,3.6016,3.6016,3.6016,3.6016,3.6016,3.6016,3.6074,3.6172,3.6309,3.6445,3.6601,3.6875,3.6797,3.6504,3.6309,3.625,3.6016,3.6016,3.623,3.625,3.6562,3.6641,3.6953,3.707,3.7051,3.7148,3.7441,3.7747,3.8263,3.8748,3.9092,3.9533,4.0135,4.0479,4.0781,4.0682,4.0513,4.0518,4.0266,4.0653,4.0712,4.0467,4.0361,4.0472,4.0688,4.0954,4.1151,4.1347,4.5586,4.5586,4.5586,4.5163,4.4547,4.4506,4.4064,4.3374,4.2464,4.1947,4.2027,4.1277,4.1681,4.3124,4.4624,4.5432,4.5566,4.5566,4.549,4.5278,4.5297,4.5297,4.5393,4.5451,4.5355,4.5586,4.5586,4.5586,4.5586,4.5586,4.5586,4.5603,4.5622,4.558,4.5507,4.551,4.5797,4.5752,4.5774,4.5815,4.5742,4.5195,4.4805,4.4238,4.3379,4.2422,4.2109,4.1406,4.1035,4.082,4.0059,3.9199,3.8476,3.7617,3.6777,3.6269,3.6016,3.6016,3.6016,3.6016,3.6016,3.6016,3.6016,3.6016,3.6016,3.6016,3.6016,3.6016,3.6016,3.6016,3.6016,3.6016,3.6016,3.6309,3.6653,3.6958,3.717,3.7376,3.7633,3.7754,3.7578,3.6953,3.6582,3.6269,3.6035,3.6289,3.6562,3.6934,3.7226,3.7539,3.7754,3.7734,3.8027,3.834,3.8631,3.9174,3.9551,3.9961,4.0311,4.0779,4.089,4.102,4.1091,4.098,4.1052,4.121,4.1374,4.1261,4.0868,4.0662,4.0635,4.107,4.1668,4.1812,4.1859,4.5568,4.5586,4.5586,4.5086,4.4355,4.4311,4.3849,4.3044,4.2175,4.1809,4.1873,4.2008,4.2912,4.4355,4.5374,4.5566,4.5586,4.5586,4.5586,4.5586,4.5586,4.5586,4.5566,4.5586,4.5586,4.5586,4.5586,4.5586,4.5586,4.5586,4.5586,4.5586,4.5586,4.5642,4.5748,4.5804,4.5899,4.5979,4.6125,4.6251,4.6191,4.5918,4.5488,4.5039,4.4219,4.3398,4.2519,4.2129,4.1601,4.1211,4.0351,3.9785,3.9238,3.8516,3.7656,3.6875,3.6758,3.6523,3.6113,3.6055,3.6055,3.6035,3.6035,3.6016,3.6016,3.6074,3.6074,3.6016,3.6016,3.6052,3.6094,3.6016,3.6328,3.6699,3.7246,3.7643,3.7972,3.8238,3.8444,3.8547,3.8628,3.8084,3.7675,3.7617,3.7441,3.7363,3.7637,3.7949,3.8066,3.8164,3.832,3.8398,3.8828,3.9316,3.9609,4.0,4.0312,4.0605,4.0623,4.0972,4.1035,4.1113,4.1296,4.1605,4.1846,4.198,4.2101,4.1597,4.1001,4.0839,4.0713,4.1339,4.1944,4.2092,4.2375,4.5457,4.555,4.5605,4.497,4.4008,4.4003,4.3368,4.2393,4.1986,4.1813,4.2104,4.2854,4.4105,4.5105,4.5413,4.5586,4.5586,4.5586,4.5586,4.5586,4.5586,4.5586,4.5586,4.5586,4.5586,4.5586,4.5586,4.5586,4.5586,4.5586,4.5586,4.5586,4.5586,4.5642,4.5695,4.5777,4.5872,4.6047,4.6189,4.6248,4.625,4.6289,4.5898,4.5488,4.5,4.4297,4.2988,4.2422,4.1992,4.123,4.0684,4.0215,3.9766,3.9219,3.8516,3.7851,3.7617,3.7422,3.6934,3.666,3.6367,3.6328,3.6328,3.6445,3.6445,3.6444,3.666,3.6875,3.6855,3.6788,3.666,3.6738,3.7051,3.7519,3.7921,3.8346,3.877,3.9154,3.9478,3.9686,3.9732,3.9563,3.9274,3.9238,3.9023,3.8672,3.875,3.8965,3.9082,3.9101,3.9297,3.9492,3.9746,4.0176,4.0351,4.0684,4.1035,4.1113,4.1113,4.1152,4.1191,4.1465,4.1772,4.214,4.258,4.2802,4.291,4.2018,4.1189,4.1345,4.1509,4.1757,4.2136,4.2427,4.3072,4.5302,4.5419,4.555,4.4682,4.3278,4.3181,4.2277,4.1239,4.1623,4.1896,4.2261,4.3412,4.4239,4.4662,4.5297,4.5586,4.5586,4.5586,4.5586,4.5586,4.5586,4.5586,4.5586,4.5586,4.5586,4.5586,4.5586,4.5586,4.5586,4.5586,4.5586,4.5586,4.5586,4.562,4.5673,4.5761,4.5891,4.6026,4.6151,4.6225,4.6231,4.6264,4.6211,4.6016,4.5391,4.4551,4.3652,4.2949,4.2187,4.1426,4.1055,4.0684,4.0195,3.9941,3.9375,3.873,3.8516,3.8398,3.8164,3.7598,3.7246,3.7207,3.7207,3.7203,3.7233,3.7968,3.8285,3.8094,3.7884,3.8056,3.8163,3.8361,3.8068,3.8389,3.8727,3.9195,3.9689,4.0232,4.056,4.0816,4.073,4.0391,4.034,4.0191,3.9902,3.9531,3.9668,3.9902,4.0293,4.041,4.0586,4.0762,4.082,4.0996,4.1016,4.1172,4.1172,4.1152,4.1172,4.125,4.1328,4.1699,4.2148,4.287,4.3354,4.3546,4.3657,4.309,4.2604,4.2303,4.2311,4.2587,4.3285,4.3955,4.4531,4.5132,4.5237,4.536,4.4787,4.3768,4.3768,4.3113,4.2151,4.2328,4.2808,4.3288,4.4014,4.4589,4.5031,4.5336,4.5586,4.5586,4.5586,4.5586,4.5586,4.5586,4.5586,4.5586,4.5586,4.5586,4.5586,4.5586,4.5586,4.5586,4.5586,4.5586,4.5586,4.5586,4.5603,4.5657,4.5738,4.5866,4.5972,4.6072,4.6144,4.621,4.6248,4.6303,4.623,4.6113,4.5351,4.4531,4.3652,4.2812,4.207,4.1504,4.1055,4.0703,4.0625,4.0195,3.9531,3.9414,3.9394,3.9258,3.8633,3.8144,3.8092,3.8086,3.8089,3.8108,3.8459,3.8521,3.8502,3.8634,3.8766,3.8507,3.8463,3.8502,3.9046,3.9521,3.9965,4.0352,4.0816,4.0974,4.0959,4.1007,4.0929,4.0955,4.1001,4.068,4.0371,4.0586,4.0801,4.1035,4.1191,4.1191,4.1191,4.1191,4.1191,4.1191,4.1191,4.1211,4.1269,4.1289,4.1562,4.1797,4.1992,4.2519,4.334,4.4199,4.4568,4.4642,4.4335,4.3903,4.3329,4.3241,4.3408,4.4295,4.5258,4.5592,4.4919,4.5014,4.5103,4.4758,4.4173,4.4135,4.3656,4.2983,4.3101,4.3733,4.4538,4.4633,4.492,4.5399,4.555,4.5566,4.5566,4.5586,4.5586,4.5586,4.5586,4.5586,4.5586,4.5586,4.5586,4.5586,4.5586,4.5586,4.5586,4.5586,4.5586,4.5586,4.5586,4.5603,4.5601,4.57,4.5819,4.5905,4.5977,4.6099,4.6157,4.6236,4.6264,4.6265,4.6211,4.5762,4.5039,4.4277,4.3457,4.2598,4.1914,4.1484,4.1289,4.1113,4.0859,4.0527,4.0273,4.0234,4.0038,3.9511,3.8996,3.8946,3.8961,3.8948,3.897,3.9087,3.9513,3.9409,3.9319,3.9156,3.9078,3.9351,3.9485,3.9985,4.0024,4.038,4.0577,4.0926,4.0957,4.0981,4.1056,4.11,4.1163,4.1172,4.1128,4.0859,4.0879,4.0976,4.1094,4.1191,4.1191,4.1191,4.1191,4.1191,4.1191,4.1269,4.1406,4.1797,4.1894,4.2226,4.2461,4.2695,4.3183,4.4121,4.4941,4.5586,4.5603,4.5282,4.4745,4.4165,4.4187,4.425,4.4935,4.5754,4.5823,4.4632,4.4815,4.4745,4.4445,4.4069,4.4015,4.3598,4.3101,4.3654,4.4418,4.5128,4.5245,4.5265,4.5419,4.5477,4.5494,4.5509,4.5566,4.5586,4.5586,4.5586,4.5586,4.5586,4.5586,4.5586,4.5586,4.5586,4.5586,4.5586,4.5586,4.5586,4.5586,4.5586,4.5586,4.5603,4.5657,4.5735,4.578,4.5861,4.5975,4.6095,4.615,4.6187,4.6222,4.6245,4.5859,4.5391,4.4922,4.4082,4.3105,4.2617,4.2168,4.168,4.1445,4.1289,4.1191,4.1035,4.0992,4.096,4.0212,3.9848,3.9777,3.9788,3.9766,3.9914,4.0276,4.0599,4.0279,4.0474,4.0587,4.0684,4.0649,4.0558,4.051,4.052,4.0583,4.0765,4.1168,4.1276,4.1463,4.1247,4.1084,4.1183,4.1267,4.1382,4.1328,4.123,4.125,4.1367,4.1406,4.1484,4.1328,4.1348,4.1543,4.1582,4.1484,4.1641,4.209,4.2539,4.291,4.3418,4.3906,4.4453,4.5058,4.5488,4.5976,4.6152,4.6189,4.5579,4.5026,4.4982,4.5164,4.5766,4.6098,4.6115,4.4258,4.4393,4.4439,4.4398,4.4354,4.4478,4.4353,4.4233,4.4478,4.4773,4.5042,4.5148,4.5213,4.5237,4.538,4.5438,4.5453,4.549,4.5528,4.5586,4.5586,4.5586,4.5586,4.5586,4.5586,4.5586,4.5586,4.5586,4.5586,4.5586,4.5586,4.5586,4.5586,4.5586,4.5603,4.5657,4.5722,4.5735,4.5805,4.588,4.598,4.6037,4.6084,4.6131,4.6183,4.6065,4.5758,4.5369,4.4647,4.3922,4.3587,4.3056,4.2612,4.2379,4.2008,4.1832,4.1595,4.1082,4.1035,4.0671,4.0616,4.0625,4.0519,4.049,4.0615,4.0674,4.0859,4.0878,4.0839,4.082,4.0723,4.0682,4.0641,4.0596,4.0607,4.0655,4.0873,4.1474,4.1849,4.2131,4.2097,4.2403,4.2544,4.2311,4.2312,4.242,4.2422,4.2129,4.2129,4.2012,4.1992,4.166,4.1601,4.1875,4.2031,4.2168,4.2519,4.3066,4.3418,4.3691,4.4258,4.4902,4.5254,4.5625,4.5976,4.6289,4.6289,4.6289,4.6191,4.5936,4.5723,4.5664,4.6003,4.6192,4.622,4.4005,4.4109,4.4121,4.4199,4.4335,4.4587,4.4732,4.4745,4.4761,4.4753,4.4815,4.4914,4.4991,4.5061,4.5213,4.536,4.538,4.5433,4.549,4.5566,4.5586,4.5586,4.5586,4.5586,4.5586,4.5586,4.5586,4.5586,4.5586,4.5586,4.5586,4.5586,4.5586,4.5586,4.5603,4.5659,4.5693,4.5706,4.5765,4.5791,4.588,4.5929,4.5998,4.6052,4.6099,4.6152,4.6072,4.5751,4.5266,4.4943,4.4516,4.3981,4.3645,4.3261,4.2851,4.2614,4.2389,4.2007,4.1983,4.193,4.1927,4.1889,4.1362,4.0939,4.0856,4.0776,4.0754,4.0769,4.0771,4.0764,4.0738,4.0746,4.1092,4.1069,4.132,4.1393,4.1627,4.2273,4.2516,4.2798,4.3044,4.3452,4.3752,4.363,4.3414,4.3546,4.3672,4.332,4.2949,4.2812,4.2676,4.2383,4.2305,4.2676,4.2949,4.3125,4.3516,4.4062,4.4297,4.4473,4.5039,4.5644,4.5918,4.6094,4.6211,4.6289,4.6289,4.6269,4.623,4.623,4.6172,4.6172,4.6289,4.629,4.628,4.3837,4.3883,4.3837,4.3883,4.4036,4.4325,4.4468,4.4487,4.4504,4.4514,4.4578,4.464,4.47,4.4852,4.5014,4.5129,4.526,4.5342,4.5416,4.5509,4.5547,4.5566,4.5586,4.5586,4.5586,4.5586,4.5586,4.5586,4.5586,4.5586,4.5586,4.5586,4.5586,4.5586,4.5622,4.5622,4.564,4.5673,4.569,4.5738,4.5815,4.5866,4.5893,4.5936,4.6007,4.6098,4.6098,4.6006,4.5679,4.5348,4.504,4.452,4.4122,4.3777,4.3724,4.3607,4.3479,4.3292,4.316,4.302,4.3008,4.2676,4.1817,4.115,4.0823,4.0842,4.0694,4.0764,4.0814,4.0795,4.0761,4.134,4.1899,4.2163,4.2499,4.2665,4.283,4.3086,4.3239,4.346,4.3664,4.3947,4.4128,4.413,4.4392,4.4663,4.4735,4.457,4.4199,4.3789,4.3633,4.3359,4.3379,4.3652,4.3887,4.4082,4.4473,4.5,4.5058,4.5273,4.584,4.6113,4.6172,4.6211,4.6269,4.6289,4.6289,4.6289,4.6289,4.6289,4.6289,4.6289,4.6289,4.6289,4.6284,4.3634,4.3701,4.3649,4.3753,4.3851,4.3947,4.4073,4.4147,4.4172,4.4135,4.4188,4.4317,4.4383,4.4421,4.4693,4.487,4.5042,4.5182,4.5323,4.5417,4.5509,4.5547,4.5566,4.5586,4.5586,4.5586,4.5586,4.5586,4.5586,4.5586,4.5586,4.5586,4.5586,4.5586,4.5586,4.5586,4.5603,4.564,4.564,4.5673,4.5722,4.5765,4.5786,4.5848,4.5922,4.5988,4.6063,4.6098,4.5871,4.5818,4.5743,4.551,4.5487,4.483,4.4343,4.3602,4.3481,4.3405,4.3369,4.337,4.341,4.3404,4.2681,4.2175,4.1643,4.1191,4.0868,4.1027,4.1301,4.1435,4.1662,4.2144,4.2591,4.2925,4.3256,4.3467,4.3635,4.3859,4.4017,4.4211,4.4401,4.4679,4.4821,4.5007,4.5297,4.564,4.573,4.5548,4.5345,4.4881,4.457,4.4316,4.4355,4.4609,4.4902,4.5117,4.5527,4.5879,4.582,4.5781,4.6035,4.623,4.6269,4.6289,4.6289,4.6289,4.6289,4.6289,4.6289,4.6289,4.6289,4.6289,4.6308,4.6328,4.6308,4.3513,4.3548,4.3548,4.36,4.3686,4.3704,4.3734,4.3818,4.39,4.3896,4.3947,4.4048,4.414,4.421,4.443,4.464,4.484,4.4976,4.5161,4.5323,4.5435,4.549,4.5528,4.5586,4.5586,4.5586,4.5586,4.5586,4.5586,4.5586,4.5586,4.5586,4.5586,4.5586,4.5586,4.5586,4.5586,4.5603,4.5603,4.5603,4.5637,4.5671,4.5735,4.5781,4.5819,4.5887,4.5922,4.5988,4.6008,4.6018,4.6014,4.6003,4.5969,4.5434,4.5143,4.4581,4.4514,4.4508,4.4496,4.4403,4.4248,4.4028,4.3765,4.3338,4.2832,4.2325,4.1982,4.1851,4.214,4.2374,4.2675,4.298,4.3278,4.359,4.3859,4.4128,4.4393,4.4622,4.4842,4.5005,4.5259,4.5568,4.5803,4.5922,4.5949,4.5924,4.5962,4.5972,4.587,4.5698,4.5469,4.5273,4.5351,4.5527,4.5781,4.584,4.5996,4.6133,4.6133,4.6152,4.6289,4.6289,4.6289,4.6289,4.6289,4.6289,4.6289,4.6289,4.6289,4.6348,4.6523,4.666,4.6621,4.6465,4.6426,4.3479,4.3497,4.3479,4.3513,4.3479,4.3532,4.3513,4.3497,4.3697,4.3747,4.3771,4.3832,4.3942,4.3999,4.4151,4.4364,4.4578,4.4751,4.4972,4.5161,4.5304,4.5417,4.5509,4.5566,4.5586,4.5586,4.5586,4.5586,4.5586,4.5586,4.5586,4.5586,4.5586,4.5586,4.5586,4.5586,4.5586,4.5586,4.5586,4.5603,4.5622,4.5657,4.5673,4.569,4.5738,4.58,4.5814,4.586,4.5905,4.5893,4.5893,4.5905,4.5848,4.5815,4.5716,4.5681,4.544,4.5409,4.5333,4.5271,4.5389,4.5182,4.4895,4.4489,4.397,4.3082,4.2585,4.2604,4.2854,4.3104,4.3387,4.3907,4.4316,4.4491,4.4684,4.4857,4.5028,4.518,4.5235,4.5382,4.5452,4.5746,4.5795,4.5827,4.5873,4.5928,4.5998,4.6088,4.615,4.6101,4.6055,4.5937,4.5957,4.5976,4.6055,4.6133,4.6191,4.6289,4.6289,4.6289,4.6289,4.6289,4.6289,4.6289,4.6289,4.6289,4.6289,4.6465,4.666,4.6719,4.6894,4.707,4.7051,4.7031,4.709,4.3479,4.3479,4.3479,4.3479,4.3479,4.3479,4.3479,4.3497,4.3534,4.3569,4.3566,4.3649,4.3682,4.3781,4.391,4.4116,4.4285,4.4496,4.4782,4.4991,4.518,4.5323,4.5473,4.5513,4.555,4.5586,4.5586,4.5586,4.5586,4.5586,4.5586,4.5586,4.5586,4.5586,4.5586,4.5586,4.5586,4.5586,4.5586,4.5586,4.5603,4.5603,4.5603,4.564,4.5693,4.5709,4.5738,4.578,4.5816,4.5831,4.5822,4.5796,4.5761,4.5742,4.5757,4.5752,4.5728,4.5715,4.5709,4.568,4.5661,4.5624,4.5374,4.5336,4.4836,4.3758,4.3258,4.3393,4.3585,4.3852,4.416,4.4757,4.5218,4.5316,4.5432,4.5509,4.5586,4.5622,4.5622,4.5622,4.562,4.5654,4.5722,4.575,4.5771,4.5822,4.5898,4.5966,4.6056,4.6079,4.6156,4.6094,4.6172,4.623,4.6289,4.6289,4.6289,4.6289,4.6289,4.6289,4.6348,4.6484,4.6601,4.6387,4.6289,4.6621,4.6933,4.7051,4.7207,4.7305,4.7598,4.793,4.8242,4.832,4.834,4.3479,4.3479,4.3479,4.3479,4.3479,4.3479,4.3479,4.3479,4.3479,4.3479,4.3479,4.3548,4.3548,4.36,4.3734,4.3897,4.4042,4.4244,4.4505,4.4782,4.5019,4.5182,4.5323,4.5438,4.5495,4.5551,4.5586,4.5586,4.5586,4.5586,4.5586,4.5605,4.5586,4.5624,4.5624,4.5605,4.5663,4.5586,4.5663,4.5643,4.5643,4.5605,4.5586,4.5605,4.5622,4.5659,4.5659,4.568,4.5697,4.5714,4.5697,4.5697,4.5671,4.5651,4.5651,4.5671,4.5671,4.5657,4.5642,4.5624,4.5586,4.5586,4.5586,4.547,4.547,4.4547,4.4489,4.4624,4.4662,4.4891,4.491,4.5334,4.543,4.549,4.5509,4.5566,4.5586,4.5586,4.5622,4.5603,4.5603,4.562,4.5673,4.5706,4.5735,4.5773,4.5829,4.6015,4.6084,4.6346,4.6364,4.6396,4.6563,4.6406,4.6289,4.6289,4.6289,4.6289,4.6328,4.6641,4.6875,4.6914,4.6914,4.7109,4.7324,4.7598,4.7832,4.791,4.8027,4.8183,4.8516,4.8887,4.9199,4.9512,4.9609,4.3479,4.3479,4.3479,4.3479,4.3479,4.3479,4.3479,4.3479,4.3479,4.3479,4.3479,4.3479,4.3513,4.3548,4.36,4.3781,4.3929,4.4048,4.4281,4.4533,4.4764,4.4981,4.5175,4.5319,4.54,4.5495,4.5549,4.5586,4.5586,4.5586,4.5586,4.5605,4.5701,4.5778,4.5778,4.5932,4.6163,4.6182,4.6144,4.5874,4.5759,4.5661,4.5605,4.5586,4.5586,4.5586,4.5586,4.5586,4.5586,4.5603,4.5622,4.5622,4.5603,4.562,4.5603,4.562,4.562,4.5603,4.5605,4.5605,4.5586,4.5586,4.5586,4.5586,4.5566,4.5528,4.547,4.547,4.5528,4.5528,4.5528,4.5547,4.5566,4.5643,4.5643,4.5663,4.5663,4.5663,4.5663,4.5663,4.5663,4.5663,4.5834,4.5868,4.5926,4.5926,4.6037,4.6121,4.6351,4.6816,4.7062,4.7084,4.7171,4.6933,4.6445,4.6406,4.6445,4.6445,4.6562,4.7031,4.7441,4.7656,4.7969,4.8379,4.8594,4.8516,4.8672,4.8789,4.8926,4.9062,4.957,4.9961,5.0098,5.043,5.0801,4.3479,4.3479,4.3479,4.3479,4.3479,4.3479,4.3479,4.3479,4.3479,4.3479,4.3479,4.3479,4.3513,4.3532,4.3513,4.3615,4.3716,4.3874,4.404,4.427,4.4496,4.4782,4.5029,4.5192,4.5339,4.5438,4.5512,4.5547,4.568,4.5661,4.5624,4.5719,4.6471,4.6645,4.676,4.6991,4.7336,4.7201,4.6855,4.6605,4.6336,4.6105,4.5643,4.5586,4.5586,4.5586,4.5586,4.5586,4.5586,4.5586,4.5586,4.5586,4.5586,4.5586,4.5586,4.5586,4.5586,4.5586,4.5586,4.5586,4.5586,4.5586,4.5586,4.5586,4.5586,4.5586,4.5547,4.5547,4.5566,4.5566,4.5566,4.5566,4.5605,4.5776,4.5834,4.5874,4.5913,4.5913,4.5913,4.5913,4.5913,4.6201,4.6663,4.6758,4.6949,4.7045,4.7313,4.74,4.7347,4.7565,4.7753,4.7753,4.7777,4.7129,4.6523,4.666,4.6699,4.668,4.6953,4.7695,4.8262,4.8555,4.8906,4.9355,4.9238,4.9023,4.9238,4.9707,4.9805,5.0019,5.0664,5.1074,5.1152,5.1308,5.1641]},{"header":{"parameterUnit":"m.s-1","parameterCategory":1,"la1":31.0,"la2":29.5877,"lo1":-88.7671,"lo2":-86.6584,"dy":0.0162,"dx":0.0185,"nx":115,"ny":88,"refTime":"2024-04-20T06:00:00:Z","depth":0,"parameterNumber":3,"parameterNumberName":"V-component_of_WINDS"},"data":[0.0,0.0,0.0,0.0,0.0,0.0,0.0,0.0,0.0,0.0,0.0,0.0,0.0,0.0,0.0,0.0,0.0,0.0,0.0,0.0,0.0,0.0,0.0,0.0,0.0,0.0,0.0,0.0,0.0,0.0,0.0,0.0,0.0,0.0,0.0,0.0,0.0,0.0,0.0,0.0,0.0,0.0,0.0,0.0,0.0,0.0,0.0,0.0,0.0,0.0,0.0,0.0,0.0,0.0,0.0,0.0,0.0,0.0,0.0,0.0,0.0,0.0,0.0,0.0,0.0,0.0,0.0,0.0,0.0,0.0,0.0,0.0,0.0,0.0,0.0,0.0,0.0,0.0,0.0,0.0,0.0,0.0,0.0,0.0,0.0,0.0,0.0,0.0,0.0,0.0,0.0,0.0,0.0,0.0,0.0,0.0,0.0,0.0,0.0,0.0,0.0,0.0,0.0,0.0,0.0,0.0,0.0,0.0,0.0,0.0,0.0,0.0,0.0,0.0,0.0,0.0,0.0,0.0,0.0,0.0,0.0,0.0,0.0,0.0,0.0,0.0,0.0,0.0,0.0,0.0,0.0,0.0,0.0,0.0,0.0,0.0,0.0,0.0,0.0,0.0,0.0,0.0,0.0,0.0,0.0,0.0,0.0,0.0,0.0,0.0,0.0,0.0,0.0,0.0,0.0,0.0,0.0,0.0,0.0,0.0,0.0,0.0,0.0,0.0,0.0,0.0,0.0,0.0,0.0,0.0,0.0,0.0,0.0,0.0,0.0,0.0,0.0,0.0,0.0,0.0,0.0,0.0,0.0,0.0,0.0,0.0,0.0,0.0,0.0,0.0,0.0,0.0,0.0,0.0,0.0,0.0,0.0,0.0,0.0,0.0,0.0,0.0,0.0,0.0,0.0,0.0,0.0,0.0,0.0,0.0,0.0,0.0,0.0,0.0,0.0,0.0,0.0,0.0,0.0,0.0,0.0,0.0,0.0,0.0,0.0,0.0,0.0,0.0,0.0,0.0,0.0,0.0,0.0,0.0,0.0,0.0,0.0,0.0,0.0,0.0,0.0,0.0,0.0,0.0,0.0,0.0,0.0,0.0,0.0,0.0,0.0,0.0,0.0,0.0,0.0,0.0,0.0,0.0,0.0,0.0,0.0,0.0,0.0,0.0,0.0,0.0,0.0,0.0,0.0,0.0,0.0,0.0,0.0,0.0,0.0,0.0,0.0,0.0,0.0,0.0,0.0,0.0,0.0,0.0,0.0,0.0,0.0,0.0,0.0,0.0,0.0,0.0,0.0,0.0,0.0,0.0,0.0,0.0,0.0,0.0,0.0,0.0,0.0,0.0,0.0,0.0,0.0,0.0,0.0,0.0,0.0,0.0,0.0,0.0,0.0,0.0,0.0,0.0,0.0,0.0,0.0,0.0,0.0,0.0,0.0,0.0,0.0,0.0,0.0,0.0,0.0,0.0,0.0,0.0,0.0,0.0,0.0,0.0,0.0,0.0,0.0,0.0,0.0,0.0,0.0,0.0,0.0,0.0,0.0,0.0,0.0,0.0,0.0,0.0,0.0,0.0,0.0,0.0,0.0,0.0,0.0,0.0,0.0,0.0,0.0,0.0,0.0,0.0,0.0,0.0,0.0,0.0,0.0,0.0,0.0,0.0,0.0,0.0,0.0,0.0,0.0,0.0,0.0,0.0,0.0,0.0,0.0,0.0,0.0,0.0,0.0,0.0,0.0,0.0,0.0,0.0,0.0,0.0,0.0,0.0,0.0,0.0,0.0,0.0,0.0,0.0,0.0,0.0,0.0,0.0,0.0,0.0,0.0,0.0,0.0,0.0,0.0,0.0,0.0,0.0,0.0,0.0,0.0,0.0,0.0,0.0,0.0,0.0,0.0,0.0,0.0,0.0,0.0,0.0,0.0,0.0,0.0,0.0,0.0,0.0,0.0,0.0,0.0,0.0,0.0,0.0,0.0,0.0,0.0,0.0,0.0,0.0,0.0,0.0,0.0,0.0,0.0,0.0,0.0,0.0,0.0,0.0,0.0,0.0,0.0,0.0,0.0,0.0,0.0,0.0,0.0,0.0,0.0,0.0,0.0,0.0,0.0,0.0,0.0,0.0,0.0,0.0,0.0,0.0,0.0,0.0,0.0,0.0,0.0,0.0,0.0,0.0,0.0,0.0,0.0,0.0,0.0,0.0,0.0,0.0,0.0,0.0,0.0,0.0,0.0,0.0,0.0,0.0,0.0,0.0,0.0,0.0,0.0,0.0,0.0,0.0,0.0,0.0,0.0,0.0,0.0,0.0,0.0,0.0,0.0,0.0,0.0,0.0,0.0,0.0,0.0,0.0,0.0,0.0,0.0,0.0,0.0,0.0,0.0,0.0,0.0,0.0,0.0,0.0,0.0,0.0,0.0,0.0,0.0,0.0,0.0,0.0,0.0,0.0,0.0,0.0,0.0,0.0,0.0,0.0,0.0,0.0,0.0,0.0,0.0,0.0,0.0,0.0,0.0,0.0,0.0,0.0,0.0,0.0,0.0,0.0,0.0,0.0,0.0,0.0,0.0,0.0,0.0,0.0,0.0,0.0,0.0,0.0,0.0,0.0,0.0,0.0,0.0,0.0,0.0,0.0,0.0,0.0,0.0,0.0,0.0,0.0,0.0,0.0,0.0,0.0,0.0,0.0,0.0,0.0,0.0,0.0,0.0,0.0,0.0,0.0,0.0,0.0,0.0,0.0,0.0,0.0,0.0,0.0,0.0,0.0,0.0,0.0,0.0,0.0,0.0,0.0,0.0,0.0,0.0,0.0,0.0,0.0,0.0,0.0,0.0,0.0,0.0,0.0,0.0,0.0,0.0,0.0,0.0,0.0,0.0,0.0,0.0,0.0,0.0,0.0,0.0,0.0,0.0,0.0,0.0,0.0,0.0,0.0,0.0,0.0,0.0,0.0,0.0,0.0,0.0,0.0,0.0,0.0,0.0,0.0,0.0,0.0,0.0,0.0,0.0,0.0,0.0,0.0,0.0,0.0,0.0,0.0,0.0,0.0,0.0,0.0,0.0,0.0,0.0,0.0,0.0,0.0,0.0,0.0,0.0,0.0,0.0,0.0,0.0,0.0,0.0,0.0,0.0,0.0,0.0,0.0,0.0,0.0,0.0,0.0,0.0,0.0,0.0,0.0,0.0,0.0,0.0,0.0,0.0,0.0,0.0,0.0,0.0,0.0,0.0,0.0,0.0,0.0,0.0,0.0,0.0,0.0,0.0,0.0,0.0,0.0,0.0,0.0,0.0,0.0,0.0,0.0,0.0,0.0,0.0,0.0,0.0,0.0,0.0,0.0,0.0,0.0,0.0,0.0,0.0,0.0,0.0,0.0,0.0,0.0,0.0,0.0,0.0,0.0,0.0,0.0,0.0,0.0,0.0,0.0,0.0,0.0,0.0,0.0,0.0,0.0,0.0,0.0,0.0,0.0,0.0,0.0,0.0,0.0,0.0,0.0,0.0,0.0,0.0,0.0,0.0,0.0,0.0,0.0,0.0,0.0,0.0,0.0,0.0,0.0,0.0,0.0,0.0,0.0,0.0,0.0,0.0,0.0,0.0,0.0,0.0,0.0,0.0,0.0,0.0,0.0,0.0,0.0,0.0,0.0,0.0,0.0,0.0,0.0,0.0,0.0,0.0,0.0,0.0,0.0,0.0,0.0,0.0,0.0,0.0,0.0,0.0,0.0,0.0,0.0,0.0,0.0,0.0,0.0,0.0,0.0,0.0,0.0,0.0,0.0,0.0,0.0,0.0,0.0,0.0,0.0,0.0,0.0,0.0,0.0,0.0,0.0,0.0,0.0,0.0,0.0,0.0,0.0,0.0,0.0,0.0,0.0,0.0,0.0,0.0,0.0,0.0,0.0,0.0,0.0,0.0,0.0,0.0,0.0,0.0,0.0,0.0,0.0,0.0,0.0,0.0,0.0,0.0,0.0,0.0,0.0,0.0,0.0,0.0,0.0,0.0,0.0,0.0,0.0,0.0,0.0,0.0,0.0,0.0,0.0,0.0,0.0,0.0,0.0,0.0,0.0,0.0,0.0,0.0,0.0,0.0,0.0,0.0,0.0,0.0,0.0,0.0,0.0,0.0,0.0,0.0,0.0,0.0,0.0,0.0,0.0,0.0,0.0,0.0,0.0,0.0,0.0,0.0,0.0,0.0,0.0,0.0,0.0,0.0,0.0,0.0,0.0,0.0,0.0,0.0,0.0,0.0,0.0,0.0,0.0,0.0,0.0,0.0,0.0,0.0,0.0,0.0,0.0,0.0,0.0,0.0,0.0,0.0,0.0,0.0,0.0,0.0,0.0,0.0,0.0,0.0,0.0,0.0,0.0,0.0,0.0,0.0,0.0,0.0,0.0,0.0,0.0,0.0,0.0,0.0,0.0,0.0,0.0,0.0,0.0,0.0,0.0,0.0,0.0,0.0,0.0,0.0,0.0,0.0,0.0,0.0,0.0,0.0,0.0,0.0,0.0,0.0,0.0,0.0,0.0,0.0,0.0,0.0,0.0,0.0,0.0,0.0,0.0,0.0,0.0,0.0,0.0,0.0,0.0,0.0,0.0,0.0,0.0,0.0,0.0,0.0,0.0,0.0,0.0,0.0,0.0,0.0,0.0,0.0,0.0,0.0,0.0,0.0,0.0,0.0,0.0,0.0,0.0,0.0,0.0,0.0,0.0,0.0,0.0,0.0,0.0,0.0,0.0,0.0,0.0,0.0,0.0539,0.0,0.0,0.0,0.0,0.0,0.0,0.0,0.0,0.0,0.0,0.0,0.0,0.0,0.0,0.0,0.0,0.0,0.0,0.0,0.0,0.0,0.0,0.0,0.0,0.0,0.0,0.0,0.0,0.0,0.0,0.0,0.0,0.0,0.0,0.0,0.0,0.0,0.0,0.0,0.0,0.0,0.0,0.0,0.0,0.0,0.0,0.0,0.0,0.0,0.0,0.0,0.0,0.0,0.0,0.0,0.0,0.0,0.0,0.0,0.0,0.0,0.0,0.0,0.0,0.0,0.0,0.0,0.0,0.0,0.0,0.0,0.0,0.0,0.0,0.0,0.0,0.0,0.0,0.0,0.0,0.0,0.0,0.0,0.0,0.0,0.0,0.0,0.0,0.0,0.0,0.0,0.0,0.0,0.0,0.0,0.0,0.0,0.0,0.0,0.0,0.0,0.0,0.0,0.0,0.0,0.0,0.0,0.0,0.0,0.0,0.0,0.0,0.0,0.0,0.0,0.0,0.0,0.0,0.0,0.0,0.0,0.0,0.0,0.0,0.0,0.0,0.0,0.0,0.0,0.0,0.0,0.0,0.0,0.0,0.0,0.0,0.0,0.0,0.0,0.0,0.0,0.0,0.0,0.0,0.0,0.0,0.0,0.0,0.0,0.0,0.0,0.0,0.0,0.0,0.0,0.0,0.0,0.0,0.0,0.0,0.0,0.0,0.0,0.0,0.0,0.0,0.0,0.0,0.0,0.0,0.0,0.0,0.0,0.0,0.0,0.0,0.0,0.0,0.0,0.0,0.0,0.0,0.0,0.0,0.0,0.0,0.0,0.0,0.0,0.0,0.0,0.0,0.0,0.0,0.0,0.0,0.0,0.0,0.0,0.0,0.0,0.0,0.0,0.0,0.0,0.0,0.0,0.0,0.0,0.0,0.0,0.0,0.0,0.0,0.0,0.0,0.0,0.0,0.0,0.0,0.0,0.0,0.0,0.0,0.0,0.0,0.0,0.0,0.0,0.0,0.0,0.0,0.0,0.0,0.0,0.0,0.0,0.0,0.0,0.0,0.0,0.0,0.0,0.0,0.0,0.0,0.0,0.0,0.0,0.0,0.0,0.0,0.0,0.0,0.0,0.0,0.0,0.0,0.0,0.0,0.0,0.0,0.0,0.0,0.0,0.0,0.0,0.0,0.0,0.0,0.0,0.0,0.0,0.0,0.0,0.0,0.0,0.0,0.0,0.0,0.0,0.0,0.0,0.0,0.0,0.0,0.0,0.0,0.0,0.0,0.0,0.0,0.0,0.0,0.0,0.0,0.0,0.0,0.0,0.0,0.0,0.0,0.0,0.0,0.0,0.0,0.0,0.0,0.0,0.0,0.0,0.0,0.0,0.0,0.0,0.0,0.0,0.0,0.0,0.0,0.0,0.0,0.0,0.0,0.0,0.0,0.0,0.0,0.0,0.0,0.0,0.0,0.0,0.0,0.0,0.0,0.0,0.0,0.0,0.0,0.0,0.0,0.0,0.0,0.0,0.0,0.0,0.0,0.0,0.0,0.0,0.0,0.0,0.0,0.0,0.0,0.0,0.0,0.0,0.0,0.0,0.0,0.0,0.0,0.0,0.0,0.0,0.0,0.0,0.0,0.0,0.0,0.0,0.0,0.0,0.0,0.0,0.0,0.0,0.0,0.0,0.0,0.0,0.0,0.0,0.0,0.0,0.0,0.0,0.0,0.0,0.0,0.0,0.0,0.0,0.0,0.0,0.0,0.0,0.0,0.0,0.0,0.0,0.0,0.0,0.0,0.0,0.0,0.0,0.0,0.0,0.0,0.0,0.0,0.0,0.0,0.0,0.0,0.0,0.0,0.0,0.0,0.0,0.0,0.0,0.0,0.0,0.0,0.0,0.0,0.0,0.0,0.0,0.0,0.0,0.0,0.0,0.0,0.0,0.0,0.0,0.0,0.0,0.0,0.0,0.0,0.0,0.0,0.0,0.0,0.0,0.0,0.0,0.0,0.0,0.0,0.0,0.0,0.0,0.0,0.0,0.0,0.0,0.0,0.0,0.0,0.0,0.0,0.0,0.0,0.0,0.0,0.0,0.0,0.0,0.0,0.0,0.0,0.0,0.0,0.0,0.0,0.0,0.0,0.0,0.0,0.0,0.0,0.0,0.0,0.0,0.0,0.0,0.0,0.0,0.0,0.0,0.0,0.0,0.0,0.0,0.0,0.0,0.0,0.0,0.0,0.0,0.0,0.0,0.0,0.0,0.0,0.0,0.0,0.0,0.0,0.0,0.0,0.0,0.0,0.0,0.0,0.0,0.0,0.0,0.0,0.0,0.0,0.0,0.0,0.0,0.0,0.0,0.0,0.0,0.0,0.0,0.0,0.0,0.0,0.0,0.0,0.0,0.0,0.0,0.0,0.0,0.0,0.0,0.0,0.0,0.0,0.0,0.0,0.0,0.0,0.0,0.0,0.0,0.0,0.0,0.0,0.0,0.0,0.0,0.0,0.0,0.0,0.0,0.0,0.0,0.0,0.0,0.0,0.0,0.0,0.0,0.0,0.0,0.0,0.0,0.0,0.0,0.0,0.0,0.0,0.0,0.0,0.0,0.0,0.0,0.0,0.0,0.0,0.0,0.0,0.0,0.0,0.0,0.0,0.0,0.0,0.0,0.0,0.0,0.0,0.0,0.0,0.0,0.0,0.0,0.0,0.0,0.0,0.0,0.0,0.0,0.0,0.0,0.0,0.0,0.0,0.0,0.0,0.0,0.0,0.0,0.0,0.0,0.0,0.0,0.0,0.0,0.0,0.0,0.0,0.0,0.0,0.0,0.0,0.0,0.0,0.0,0.0,0.0,0.0,0.0,0.0,0.0,0.0,0.0,0.0,0.0,0.0,0.0,0.0,0.0,0.0,0.0,0.0,0.0,0.0,0.0,0.0,0.0,0.0,0.0,0.0,0.0,0.0,0.0,0.0,0.0,0.0,0.0,0.0,0.0,0.0,0.0,0.0,0.0,0.0,0.0,0.0,0.0,0.0,0.0,0.0,0.0,0.0,0.0,0.0,0.0,0.0,0.0,0.0,0.0,0.0,0.0,0.0,0.0,0.0,0.0,0.0,0.0,0.0,0.0,0.0,0.0,0.0,0.0,0.0,0.0,0.0,0.0,0.0,0.0,0.0,0.0,0.0,0.0,0.0,0.0,0.0,0.0,0.0,0.0,0.0,0.0,0.0,0.0,0.0,0.0,0.0,0.0,0.0,0.0,0.0,0.0,0.0,0.0,0.0,0.0,0.0,0.0,0.0,0.0,0.0,0.0,0.0,0.0,0.0,0.0,0.0,0.0,0.0,0.0,0.0,0.0,0.0,0.0,0.0,0.0,0.0,0.0,0.0,0.0,0.0,0.0,0.0,0.0,0.0,0.0,0.0,0.0,0.0,0.0,0.0,0.0,0.0,0.0,0.0,0.0,0.0,0.0,0.0,0.0,0.0,0.0,0.0,0.0,0.0,0.0,0.0,0.0,0.0,0.0,0.0,0.0,0.0,0.0,0.0,0.0,0.0,0.0,0.0,0.0,0.0,0.0,0.0,0.0,0.0,0.0,0.0,0.0,0.0,0.0,0.0,0.0,0.0,0.0,0.0,0.0,0.0,0.0,0.0,0.0,0.0,0.0,0.0,0.0,0.0,0.0,0.0,0.0,0.0,0.0,0.0,0.0,0.0,0.0,0.0,0.0,0.0,0.0,0.0,0.0,0.0,0.0,0.0,0.0,0.0,0.0,0.0,0.0,0.0,0.0,0.0,0.0,0.0,0.0,0.0,0.0,0.0,0.0,0.0,0.0,0.0,0.0,0.0,0.0,0.0,0.0,0.0,0.0,0.0,0.0,0.0,0.0,0.0,0.0,0.0,0.0,0.0,0.0,0.0,0.0,0.0,0.0,0.0,0.0,0.0,0.0,0.0,0.0,0.0,0.0,0.0,0.0,0.0,0.0,0.0,0.0,0.0,0.0,0.0,0.0,0.0,0.0,0.0,0.0,0.0,0.0,0.0,0.0,0.0,0.0,0.0,0.0,0.0,0.0,0.0,0.0,0.0,0.0,0.0,0.0,0.0,0.0,0.0,0.0,0.0,0.0,0.0,0.0,0.0,0.0,0.0,0.0,0.0,0.0,0.0,0.0,0.0,0.0,0.0,0.0,0.0,0.0,0.0,0.0,0.0,0.0,0.0,0.0,0.0,0.0,0.0,0.0,0.0,0.0,0.0,0.0,0.0,0.0,0.0,0.0,0.0,0.0,0.0,0.0,0.0,0.0,0.0,0.0,0.0,0.0,0.0,0.0,0.0,0.0,0.0,0.0,0.0,0.0,0.0,0.0,0.0,0.0,0.0,0.0,0.0,0.0,0.0,0.0,0.0,0.0,0.0,0.0,0.0,0.0,0.0,0.0,0.0,0.0,0.0,0.0,0.0,0.0,0.0,0.0,0.0,0.0,0.0,0.0,0.0,0.0,0.0,0.0,0.0,0.0,0.0,0.0,0.0,0.0,0.0,0.0,0.0,0.0,0.0,0.0,0.0,0.0,0.0,0.0,0.0,0.0,0.0,0.0,0.0,0.0,0.0,0.0,0.0,0.0,0.0,0.0,0.0,0.0,0.0,0.0,0.0,0.0,0.0,0.0,0.0,0.0,0.0,0.0,0.0,0.0,0.0,0.0,0.0,0.0,0.0,0.0,0.0,0.0,0.0,0.0,0.0,0.0,0.0,0.0,0.0,0.0,0.0,0.0,0.0,0.0,0.0,0.0,0.0,0.0,0.0,0.0,0.0,0.0,0.0,0.0,0.0,0.0,0.0,0.0,0.0,0.0,0.0,0.0,0.0,0.0,0.0,0.0,0.0,0.0,0.0,0.0,0.0,0.0,0.0,0.0,0.0,0.0,0.0,0.0,0.0,0.0,0.0,0.0,0.0,0.0,0.0,0.0,0.0,0.0,0.0,0.0,0.0,0.0,0.0,0.0,0.0,0.0,0.0,0.0,0.0,0.0,0.0,0.0,0.0,0.0,0.0,0.0,0.0,0.0,0.0,0.0,0.0,0.0,0.0,0.0,0.0,0.0,0.0,0.0,0.0,0.0,0.0,0.0,0.0,0.0,0.0,0.0,0.0,0.0,0.0,0.0,0.0,0.0,0.0,0.0,0.0,0.0,0.0,0.0,0.0,0.0,0.0,0.0,0.0,0.0,0.0,0.0,0.0,0.0,0.0,0.0,0.0,0.0,0.0,0.0,0.0,0.0,0.0,0.0,0.0,0.0,0.0,0.0,0.0,0.0,0.0,0.0,0.0,0.0,0.0,0.0,0.0,0.0,0.0,0.0,0.0,0.0,0.0,0.0,0.0,0.0,0.0,0.0,0.0,0.0,0.0,0.0,0.0,0.0,0.0,0.0,0.0,0.0,0.0,0.0,0.0,0.0,0.0,0.0,0.0,0.0,0.0,0.0,0.0,0.0,0.0,0.0,0.0,0.0,0.0,0.0,0.0,0.0,0.0,0.0,0.0,0.0,0.0,0.0,0.0,0.0,0.0,0.0,0.0,0.0,0.0,0.0,0.0,0.0,0.0,0.0,0.0,0.0,0.0,0.0,0.0,0.0,0.0,0.0,0.0,0.0,0.0,0.0,0.0,0.0,0.0,0.0,0.0,0.0,0.0,0.0,0.0,0.0,0.0,0.0,0.0,0.0,0.0,0.0,0.0,0.0,0.0,0.0,0.0,0.0,0.0,0.0,0.0,0.0,0.0,0.0,0.0,0.0,0.0,0.0,0.0,0.0,0.0,0.0,0.0,0.0,0.0,0.0,0.0,0.0,0.0,0.0,0.0,0.0,0.0,0.0,0.0,0.0,0.0,0.0,0.0,0.0,0.0,0.0,0.0,0.0,0.0,0.0,0.0,0.0,0.0,0.0,0.0,0.0,0.0,0.0,0.0,0.0,0.0,0.0,0.0,0.0,0.0,0.0,0.0,0.0,0.0,0.0,0.0,0.0,0.0,0.0,0.0,0.0,0.0,0.0,0.0,0.0,0.0,0.0,0.0,0.0,0.0,0.0,0.0,0.0,0.0,0.0,0.0,0.0,0.0,0.0,0.0,0.0,0.0,0.0,0.0,0.0,0.0,0.0,0.0,0.0,0.0,0.0,0.0,0.0,0.0,0.0,0.0,0.0,0.0,0.0,0.0,0.0,0.0,0.0,0.0,0.0,0.0,0.0,0.0,0.0,0.0,0.0,0.0,0.0,0.0,0.0,0.0,0.0,0.0,0.0,0.0,0.0,0.0,0.0,0.0,0.0,0.0,0.0,0.0,0.0,0.0,0.0,0.0,0.0,0.0,0.0,0.0,0.0,0.0,0.0,0.0,0.0,0.0,0.0,0.0,0.0,0.0,0.0,0.0,0.0,0.0,0.0,0.0,0.0,0.0,0.0,0.0,0.0,0.0,0.0,0.0,0.0,0.0,0.0,0.0,0.0,0.0,0.0,0.0,0.0,0.0,0.0,0.0,0.0,0.0,0.0,0.0,0.0,0.0,0.0,0.0,0.0,0.0,0.0,0.0,0.0,0.0,0.0,0.0,0.0,0.0,0.0,0.0,0.0,0.0,0.0,0.0,0.0,0.0,0.0,0.0,0.0,0.0,0.0,0.0,0.0,0.0,0.0,0.0,0.0,0.0,0.0,0.0,0.0,0.0,0.0,0.0,0.0,0.0,0.0,0.0,0.0,0.0,0.0,0.0,0.0,0.0,0.0,0.0,0.0,0.0,0.0,0.0,0.0,0.0,0.0,0.0,0.0,0.0,0.0,0.0,0.0,0.0,0.0,0.0,0.0,0.0,0.0,0.0,0.0,0.0,0.0,0.0,0.0,0.0,0.0,0.0,0.0,0.0,0.0,0.0,0.0,0.0,0.0,0.0,0.0,0.0,0.0,0.0,0.0,0.0,0.0,0.0,0.0,0.0,0.0,0.0,0.0,0.0,0.0,0.0,0.0,0.0,0.0,0.0,0.0,0.0,0.0,0.0,0.0,0.0,0.0,0.0,0.0,0.0,0.0,0.0,0.0,0.0,0.0,0.0,0.0,0.0,0.0,0.0,0.0,0.0,0.0,0.0,0.0,0.0,0.0,0.0,0.0,0.0,0.0,0.0,0.0,0.0,0.0,0.0,0.0,0.0,0.0,0.0,0.0,0.0,0.0,0.0,0.0,0.0,0.0,0.0,0.0,0.0,0.0,0.0,0.0,0.0,0.0,0.0,0.0,0.0,0.0,0.0,0.0,0.0,0.0,0.0,0.0,0.0,0.0,0.0,0.0,0.0,0.0,0.0,0.0,0.0,0.0,0.0,0.0,0.0,0.0,0.0,0.0,0.0,0.0,0.0,0.0,0.0,0.0,0.0,0.0,0.0,0.0,0.0,0.0,0.0,0.0,0.0,0.0,0.0,0.0,0.0,0.0,0.0,0.0,0.0,0.0,0.0,0.0,0.0,0.0,0.0,0.0,0.0,0.0,0.0,0.0,0.0,0.0,0.0,0.0,0.0,0.0,0.0,0.0,0.0,0.0,0.0,0.0,0.0,0.0,0.0,0.0,0.0,0.0,0.0,0.0,0.0,0.0,0.0,0.0,0.0,0.0,0.0,0.0,0.0,0.0,0.0,0.0,0.0,0.0,0.0,0.0,0.0,0.0,0.0,0.0,0.0,0.0,0.0,0.0,0.0,0.0,0.0,0.0,0.0,0.0,0.0,0.0,0.0,0.0,0.0,0.0,0.0,0.0,0.0,0.0,0.0,0.0,0.0,0.0,0.0,0.0,0.0,0.0,0.0,0.0,0.0,0.0,0.0,0.0,0.0,0.0,0.0,0.0,0.0,0.0,0.0,0.0,0.0,0.0,0.0,0.0,0.0,0.0,0.0,0.0,0.0,0.0,0.0,0.0,0.0,0.0,0.0,0.0,0.0,0.0,0.0,0.0,0.0,0.0,0.0,0.0,0.0,0.0,0.0,0.0,0.0,0.0,0.0,0.0,0.0,0.0,0.0,0.0,0.0,0.0,0.0,0.0,0.0,0.0,0.0,0.0,0.0,0.0,0.0,0.0,0.0,0.0,0.0,0.0,0.0,0.0,0.0,0.0,0.0,0.0,0.0,0.0,0.0,0.0,0.0,0.0,0.0,0.0,0.0,0.0,0.0,0.0,0.0,0.0,0.0,0.0,0.0,0.0,0.0,0.0,0.0,0.0,0.0,0.0,0.0,0.0,0.0,0.0,0.0,0.0,0.0,0.0,0.0,0.0,0.0,0.0,0.0,0.0,0.0,0.0,0.0,0.0,0.0,0.0,0.0,0.0,0.0,0.0,0.0,0.0,0.0,0.0,0.0,0.0,0.0,0.0,0.0,0.0,0.0,0.0,0.0,0.0,0.0,0.0,0.0,0.0,0.0,0.0,0.0,0.0,0.0,0.0,0.0,0.0,0.0,0.0,0.0,0.0,0.0,0.0,0.0,0.0,0.0,0.0,0.0,0.0,0.0,0.0,0.0,0.0,0.0,0.0,0.0,0.0,0.0,0.0,0.0,0.0,0.0,0.0,0.0,0.0,0.0,0.0,0.0,0.0,0.0,0.0,0.0,0.0,0.0,0.0,0.0,0.0,0.0,0.0,0.0,0.0,0.0,0.0,0.0,0.0,0.0,0.0,0.0,0.0,0.0,0.0,0.0,0.0,0.0,0.0,0.0,0.0,0.0,0.0,0.0,0.0,0.0,0.0,0.0,0.0,0.0,0.0,0.0,0.0,0.0,0.0,0.0,0.0,0.0,0.0,0.0,0.0,0.0,0.0,0.0,0.0,0.0,0.0,0.0,0.0,0.0,0.0,0.0,0.0,0.0,0.0,0.0,0.0,0.0,0.0,0.0,0.0,0.0,0.0,0.0,0.0,0.0,0.0,0.0,0.0,0.0,0.0,0.0,0.0,0.0,0.0,0.0,0.0,0.0,0.0,0.0,0.0,0.0,0.0,0.0,0.0,0.0,0.0,0.0,0.0,0.0,0.0,0.0,0.0,0.0,0.0,0.0,0.0,0.0,0.0,0.0,0.0,0.0,0.0,0.0,0.0,0.0,0.0,0.0,0.0,0.0,0.0,0.0,0.0,0.0,0.0,0.0,0.0,0.0,0.0,0.0,0.0,0.0,0.0,0.0,0.0,0.0,0.0,0.0,0.0,0.0,0.0,0.0,0.0,0.0,0.0,0.0,0.0,0.0,0.0,0.0,0.0,0.0,0.0,0.0,0.0,0.0,0.0,0.0,0.0,0.0,0.0,0.0,0.0,0.0,0.0,0.0,0.0,0.0,0.0,0.0,0.0,0.0,0.0,0.0,0.0,0.0,0.0,0.0,0.0,0.0,0.0,0.0,0.0,0.0,0.0,0.0,0.0,0.0,0.0,0.0,0.0,0.0,0.0,0.0,0.0,0.0,0.0,0.0,0.0,0.0,0.0,0.0,0.0,0.0,0.0,0.0,0.0,0.0,0.0,0.0,0.0,0.0,0.0,0.0,0.0,0.0,0.0,0.0,0.0,0.0,0.0,0.0,0.0,0.0,0.0,0.0,0.0,0.0,0.0,0.0,0.0,0.0,0.0,0.0,0.0,0.0,0.0,0.0,0.0,0.0,0.0,0.0,0.0,0.0,0.0,0.0,0.0,0.0,0.0,0.0,0.0,0.0,0.0,0.0,0.0,0.0,0.0,0.0,0.0,0.0,0.0,0.0,0.0,0.0,0.0,0.0,0.0,0.0,0.0,0.0,0.0,0.0,0.0,0.0,0.0,0.0,0.0,0.0,0.0,0.0,0.0,0.0,0.0,0.0,0.0,0.0,0.0,0.0,0.0,0.0,0.0,0.0,0.0,0.0,0.0,0.0,0.0,0.0,0.0,0.0,0.0,0.0,0.0,0.0,0.0,0.0,0.0,0.0,0.0,0.0,0.0,0.0,0.0,0.0,0.0,0.0,0.0,0.0,0.0,0.0,0.0,0.0,0.0,0.0,0.0,0.0,0.0,0.0,0.0,0.0,0.0,0.0,0.0,0.0,0.0,0.0,0.0,0.0,0.0,0.0,0.0,0.0,0.0,0.0,0.0,0.0,0.0,0.0,0.0,0.0,0.0,0.0,0.0,0.0,0.0,0.0,0.0,0.0,0.0,0.0,0.0,0.0,0.0,0.0,0.0,0.0,0.0,0.0,0.0,0.0,0.0,0.0,0.0,0.0,0.0,0.0,0.0,0.0,0.0,0.0,0.0,0.0,0.0,0.0,0.0,0.0,0.0,0.0,0.0,0.0,0.0,0.0,0.0,0.0,0.0,0.0,0.0,0.0,0.0,0.0,0.0,0.0,0.0,0.0,0.0,0.0,0.0,0.0,0.0,0.0,0.0,0.0,0.0,0.0,0.0,0.0,0.0,0.0,0.0,0.0,0.0,0.0,0.0,0.0,0.0,0.0,0.0,0.0,0.0,0.0,0.0,0.0,0.0,0.0,0.0,0.0,0.0,0.0,0.0,0.0,0.0,0.0,0.0,0.0,0.0,0.0,0.0,0.0,0.0,0.0,0.0,0.0,0.0,0.0,0.0,0.0,0.0,0.0,0.0,0.0,0.0,0.0,0.0,0.0,0.0,0.0,0.0,0.0,0.0,0.0,0.0,0.0,0.0,0.0,0.0,0.0,0.0,0.0,0.0,0.0,0.0,0.0,0.0,0.0,0.0,0.0,0.0,0.0,0.0,0.0,0.0,0.0,0.0,0.0,0.0,0.0,0.0,0.0,0.0,0.0,0.0,0.0,0.0,0.0,0.0,0.0,0.0,0.0,0.0,0.0,0.0,0.0,0.0,0.0,0.0,0.0,0.0,0.0,0.0,0.0,0.0,0.0,0.0,0.0,0.0,0.0,0.0,0.0,0.0,0.0,0.0,0.0,0.0,0.0,0.0,0.0,0.0,0.0,0.0,0.0,0.0,0.0,0.0,0.0,0.0,0.0,0.0,0.0,0.0,0.0,0.0,0.0,0.0,0.0,0.0,0.0,0.0,0.0,0.0,0.0,0.0,0.0,0.0,0.0,0.0,0.0,0.0,0.0,0.0,0.0,0.0,0.0,0.0,0.0,0.0,0.0,0.0,0.0,0.0,0.0,0.0,0.0,0.0,0.0,0.0,0.0,0.0,0.0,0.0,0.0,0.0,0.0,0.0,0.0,0.0,0.0,0.0,0.0,0.0,0.0,0.0,0.0,0.0,0.0,0.0,0.0,0.0,0.0,0.0,0.0,0.0,0.0,0.0,0.0,0.0,0.0,0.0,0.0,0.0,0.0,0.0,0.0,0.0,0.0,0.0,0.0,0.0,0.0,0.0,0.0,0.0,0.0,0.0,0.0,0.0,0.0,0.0,0.0,0.0,0.0,0.0,0.0,0.0,0.0,0.0,0.0,0.0,0.0,0.0,0.0,0.0,0.0,0.0,0.0,0.0,0.0,0.0,0.0,0.0,0.0,0.0,0.0,0.0,0.0,0.0,0.0,0.0,0.0,0.0,0.0,0.0,0.0,0.0,0.0,0.0,0.0,0.0,0.0,0.0,0.0,0.0,0.0,0.0,0.0,0.0,0.0,0.0,0.0,0.0,0.0,0.0,0.0,0.0,0.0,0.0,0.0,0.0,0.0,0.0,0.0,0.0,0.0,0.0,0.0,0.0,0.0,0.0,0.0,0.0,0.0,0.0,0.0,0.0,0.0,0.0,0.0,0.0,0.0,0.0,0.0,0.0,0.0,0.0,0.0,0.0,0.0,0.0,0.0,0.0,0.0,0.0,0.0,0.0,0.0,0.0,0.0,0.0,0.0,0.0,0.0,0.0,0.0,0.0,0.0,0.0,0.0,0.0,0.0,0.0,0.0,0.0,0.0,0.0,0.0,0.0,0.0,0.0,0.0,0.0,0.0,0.0,0.0,0.0,0.0,0.0,0.0,0.0,0.0,0.0,0.0,0.0,0.0,0.0,0.0,0.0,0.0,0.0,0.0,0.0,0.0,0.0,0.0,0.0,0.0,0.0,0.0,0.0,0.0,0.0,0.0,0.0,0.0,0.0,0.0,0.0,0.0,0.0,0.0,0.0,0.0,0.0,0.0,0.0,0.0,0.0,0.0,0.0,0.0,0.0,0.0,0.0,0.0,0.0,0.0,0.0,0.0,0.0,0.0,0.0,0.0,0.0,0.0,0.0,0.0,0.0,0.0,0.0,0.0,0.0,0.0,0.0,0.0,0.0,0.0,0.0,0.0,0.0,0.0,0.0,0.0,0.0,0.0,0.0,0.0,0.0,0.0,0.0,0.0,0.0,0.0,0.0,0.0,0.0,0.0,0.0,0.0,0.0,0.0,0.0,0.0,0.0,0.0,0.0,0.0,0.0,0.0,0.0,0.0,0.0,0.0,0.0,0.0,0.0,0.0,0.0,0.0,0.0,0.0,0.0,0.0,0.0,0.0,0.0,0.0,0.0,0.0,0.0,0.0,0.0,0.0,0.0,0.0,0.0,0.0,0.0,0.0,0.0,0.0,0.0,0.0,0.0,0.0,0.0,0.0,0.0,0.0,0.0,0.0,0.0,0.0,0.0,0.0,0.0,0.0,0.0,0.0,0.0,0.0,0.0,0.0,0.0,0.0,0.0569,0.0,0.0,0.0,0.0,0.0,0.0,0.0,0.0,0.0,0.0,0.0,0.0,0.0,0.0,0.0,0.0,0.0,0.0,0.0,0.0,0.0,0.0,0.0,0.0,0.0,0.0,0.0,0.0,0.0,0.0,0.0,0.0,0.0,0.0,0.0,0.0,0.0,0.0,0.0,0.0,0.0,0.0,0.0,0.0,0.0,0.0,0.0,0.0,0.0,0.0,0.0,0.0,0.0,0.0,0.0,0.0,0.0,0.0,0.0,0.0,0.0,0.0,0.0,0.0,0.0,0.0,0.0,0.0,0.0,0.0,0.0,0.0,0.0,0.0,0.0,0.0,0.0,0.0,0.0,0.0,0.0,0.0,0.0,0.0,0.0,0.0,0.0,0.0,0.0,0.0,0.0,0.0,0.0,0.0,0.0,0.0,0.0,0.0,0.0,0.0,0.0,0.0,0.0,0.0,0.0,0.0,0.0,0.0,0.0,0.0,0.0,0.0,0.0,0.0,0.1028,0.0191,0.0099,0.0,0.0,0.0,0.0,0.0,0.0,0.0,0.0,0.0,0.0,0.0,0.0,0.0,0.0,0.0,0.0,0.0,0.0,0.0,0.0,0.0,0.0,0.0,0.0,0.0,0.0,0.0,0.0,0.0,0.0,0.0,0.0,0.0,0.0,0.0,0.0,0.0,0.0,0.0,0.0,0.0,0.0,0.0,0.0,0.0,0.0,0.0,0.0,0.0,0.0,0.0,0.0,0.0,0.0,0.0,0.0,0.0,0.0,0.0,0.0,0.0,0.0,0.0,0.0,0.0,0.0,0.0,0.0,0.0,0.0,0.0,0.0,0.0,0.0,0.0,0.0,0.0,0.0,0.0,0.0,0.0,0.0,0.0,0.0,0.0,0.0,0.0,0.0,0.0,0.1885,0.0,0.0,0.0,0.0,0.0,0.0,0.0,0.0,0.0,0.0,0.0,0.0,0.0,0.0,0.0,0.0,0.0,0.0,0.0,0.0,0.0,0.0,0.1215,0.0667,0.0194,0.0,0.0,0.0,0.0,0.0,0.0,0.0,0.0,0.0,0.0,0.0,0.0,0.0,0.0,0.0,0.0,0.0,0.0,0.0,0.0,0.0,0.0,0.0,0.0,0.0,0.0,0.0,0.0,0.0,0.0,0.0,0.0,0.0,0.0,0.0,0.0,0.0,0.0,0.0,0.0,0.0,0.0,0.0,0.0,0.0,0.0,0.0,0.0,0.0,0.0,0.0,0.0,0.0,0.0,0.0,0.0,0.0,0.0,0.0,0.0,0.0,0.0,0.0,0.0,0.0,0.0,0.0,0.0,0.0,0.0,0.0,0.0,0.0,0.0,0.0,0.0,0.0,0.0,0.0,0.0,0.0,0.0,0.0,0.0,0.0,0.2683,0.3021,0.0,0.0,0.0,0.0,0.0,0.0,0.0,0.0,0.0,0.0,0.0,0.4565,0.4847,0.0,0.0,0.0,0.0,0.0,0.0,0.0,0.0,0.0,0.0,0.0,0.0,0.1751,0.1143,0.0384,0.0,0.0,0.0,0.0,0.0,0.0,0.0,0.0,0.0,0.0,0.0,0.0,0.0,0.0,0.0,0.0,0.0,0.0,0.0,0.0,0.0,0.0,0.0,0.0,0.0,0.0,0.0,0.0,0.0,0.0,0.0,0.0,0.0,0.0,0.0,0.0,0.0,0.0,0.0,0.0,0.0,0.0,0.0,0.0,0.0,0.0,0.0,0.0,0.0,0.0,0.0,0.0,0.0,0.0,0.0,0.0,0.0,0.0,0.0,0.0,0.0,0.0,0.0,0.0,0.0,0.0,0.0,0.0,0.0,0.0,0.0,0.0,0.0,0.0,0.0,0.0,0.0,0.0,0.0,0.0,0.0,0.0,0.0,0.0,0.0,0.0,0.0,0.2524,0.0,0.0,0.0,0.0,0.0,0.0,0.0,0.0,0.6214,0.6283,0.5432,0.5911,0.5914,0.0,0.5724,0.5284,0.0,0.0,0.0,0.0,0.0,0.0,0.0,0.0,0.237,0.1603,0.0665,0.0194,0.0,0.0,0.0,0.0,0.0,0.0,0.0,0.0,0.0,0.0,0.0,0.0,0.0,0.0,0.0,0.0,0.0,0.0,0.0,0.0,0.0,0.0,0.0,0.0,0.0,0.0,0.0,0.0,0.0,0.0,0.0,0.0,0.0,0.0,0.0,0.0,0.0,0.0,0.0,0.0,0.0,0.0,0.0,0.0,0.0,0.0,0.0,0.0,0.0,0.0,0.0,0.0,0.0,0.0,0.0,0.0,-0.1998,-0.1979,-0.1837,-0.1454,-0.084,-0.0359,0.0,0.0,0.0,0.0,0.0,0.0,0.0,0.0,0.0,0.0,0.0,0.0,0.0,0.0,0.0,0.0,0.0,0.0,0.0,0.0,0.0,0.4482,0.3818,0.0,0.3242,0.0,0.0,0.0,0.0,0.0,0.0,0.0,0.0,0.7009,0.7131,0.6836,0.7033,0.7039,0.6842,0.6836,0.677,0.6637,0.5172,0.0,0.0,0.0,0.0,0.0,0.0,0.3082,0.1945,0.1132,0.0481,0.0,0.0,0.0,0.0,0.0,0.0,0.0,0.0,0.0,0.0,0.0,0.0,0.0,0.0,0.0,0.0,0.0,0.0,0.0,0.0,0.0,0.0,0.0,0.0,0.0,0.0,0.0,0.0,0.0,0.0,0.0,0.0,0.0,0.0,0.0,0.0,0.0,0.0,0.0,0.0,0.0,0.0,0.0,0.0,0.0,0.0,0.0,0.0,0.0,0.0,0.0,0.0,-0.1122,-0.2349,-0.3711,-0.3832,-0.3828,-0.3826,0.0,0.0,-0.2096,-0.0985,0.0,0.0,0.0,0.0,0.0,0.0,0.0,0.0,0.0,0.0,0.0,0.0,0.0,0.7885,0.0,0.0,0.0,0.0,0.7436,0.6894,0.5922,0.5422,0.4726,0.4085,0.389,0.0,0.0,0.0,0.0,0.0,0.0,0.5524,0.7003,0.7534,0.7617,0.7344,0.764,0.7643,0.7344,0.7344,0.7177,0.6943,0.6576,0.6166,0.5802,0.0,0.0,0.0,0.0,0.3709,0.2308,0.1582,0.0854,0.0,0.0,0.0,0.0,0.0,0.0,0.0,0.0,0.0,0.0,0.0,0.0,0.0,0.0,0.0,0.0,0.0,0.0,0.0,0.0,0.0,0.0,0.0,0.0,0.0,0.0,0.0,0.0,0.0,0.0,0.0,0.0,0.0,0.0,0.0,0.0,0.0,0.0,0.0,0.0,0.0,0.0,0.0,0.0,0.0,0.0,0.0,0.0,0.0,0.0,0.0,0.0,0.0,0.0,0.0,-0.3702,-0.3822,-0.4193,-0.3575,-0.2957,-0.2711,-0.1954,-0.1334,-0.1336,-0.1319,-0.1061,0.0,0.0,0.0,0.0,0.0,0.0,0.0,0.0,0.0,0.7984,0.7892,0.7811,0.7773,0.7784,0.7784,0.7328,0.6527,0.6313,0.5807,0.5152,0.5049,0.4897,0.4899,0.4993,0.0,0.0,0.0,0.6672,0.7544,0.7888,0.7952,0.7743,0.7942,0.7942,0.7739,0.7684,0.7514,0.7327,0.7321,0.7181,0.6904,0.0,0.0,0.6266,0.5277,0.423,0.2918,0.2118,0.1218,0.0288,0.0097,0.0,0.0,0.0,0.0,0.0,0.0,0.0,0.0,0.0,0.0,0.0,0.0,0.0,0.0,0.0,0.0,0.0,0.0,0.0,0.0,0.0,0.0,0.0,0.0,0.0,0.0,0.0,0.0,0.0,0.0,0.0,0.0,0.0,0.0,0.0,0.0,0.0,0.0,0.0,0.0,0.0,0.0,0.0,0.0,0.0,0.0,0.0,0.0,-0.012,-0.0605,-0.1091,-0.194,-0.3516,-0.3875,-0.4234,-0.5083,-0.4838,-0.4352,-0.3746,-0.3239,-0.2865,-0.3098,-0.2816,-0.1958,-0.0912,-0.0338,0.0,0.0,0.0,0.0,0.0,0.0,0.0,0.8038,0.8038,0.8038,0.8035,0.8041,0.7952,0.7746,0.7238,0.7045,0.6842,0.6439,0.6437,0.6468,0.6349,0.6527,0.0,0.5803,0.6879,0.7534,0.7952,0.7991,0.7949,0.8038,0.8028,0.8021,0.7918,0.7865,0.7787,0.776,0.7502,0.7458,0.7538,0.7035,0.6792,0.6976,0.5722,0.4563,0.358,0.2741,0.1755,0.0648,0.0192,0.0,0.0,0.0,0.0,0.0,0.0,-0.0097,0.0,-0.0,-0.0088,-0.0084,0.0,0.0,0.0,0.0,0.0,0.0,0.0,0.0,0.0,0.0,0.0,0.0,0.0,0.0,0.0,0.0,0.0,0.0,0.0,0.0,0.0,0.0,0.0,0.0,0.0,0.0,0.0,0.0,0.0,0.0,0.0,0.0,0.0,0.0,0.0,0.0,0.0,-0.047,-0.1535,-0.1887,-0.2357,-0.3663,-0.4485,-0.5426,-0.6483,-0.6818,-0.6471,-0.5401,-0.4685,-0.4569,-0.514,-0.4334,-0.3014,-0.201,-0.0872,0.0,0.0,0.0,0.0,0.0,0.0,0.0,0.8038,0.8038,0.8038,0.8038,0.8038,0.7952,0.7849,0.7543,0.7444,0.7241,0.7036,0.7036,0.6964,0.6934,0.7099,0.6988,0.6693,0.7308,0.7778,0.7991,0.8028,0.8045,0.8035,0.7919,0.7865,0.7855,0.7719,0.759,0.7478,0.7407,0.7309,0.72,0.7071,0.6877,0.652,0.5897,0.4917,0.3578,0.3061,0.1911,0.0278,0.0095,0.0,0.0,0.0,0.0,0.0,-0.0674,-0.0761,-0.0093,-0.0369,-0.0627,-0.1014,-0.067,0.0,0.0,0.0,0.0,0.0,0.0,0.0,0.0,0.0,0.0,0.0,0.0,0.0,0.0,0.0,0.0,0.0,0.0,0.0,0.0,0.0,0.0,0.0,0.0,0.0,0.0,0.0,0.0,0.0,0.0,0.0,0.0,0.0,0.0,0.0,0.0,-0.0465,-0.1525,-0.2116,-0.3064,-0.4464,-0.5879,-0.7039,-0.7869,-0.7985,-0.7721,-0.7049,-0.6623,-0.632,-0.5906,-0.5144,-0.4105,-0.2803,-0.1818,-0.1174,-0.0753,-0.0324,0.0,0.0,0.0,0.0,0.8038,0.8038,0.8038,0.8038,0.8038,0.7949,0.7949,0.7743,0.7743,0.764,0.7537,0.7537,0.7496,0.7521,0.7622,0.7521,0.7419,0.7717,0.7957,0.8038,0.8038,0.7905,0.7835,0.7851,0.7777,0.7712,0.7567,0.7455,0.737,0.7302,0.7221,0.7143,0.7139,0.6871,0.6337,0.5897,0.5095,0.3758,0.2508,0.1262,0.0,0.0,0.0,0.0,0.0,-0.0191,-0.0572,-0.1526,-0.1702,-0.1019,-0.1202,-0.144,-0.1606,-0.1346,-0.0989,0.0,0.0,0.0,0.0,0.0,0.0,0.0,0.0,0.0,0.0,0.0,0.0,0.0,0.0,0.0,0.0,0.0,0.0,0.0,0.0,0.0,0.0,0.0,0.0,0.0,0.0,0.0,0.0,0.0,0.0,0.0,0.0,0.0,0.0,-0.0223,-0.0558,-0.124,-0.2258,-0.3496,-0.5182,-0.6524,-0.753,-0.8094,-0.8434,-0.852,-0.8222,-0.7819,-0.7308,-0.6585,-0.6066,-0.5263,-0.3995,-0.3131,-0.2391,-0.1664,-0.1457,-0.1148,-0.0526,0.0,0.0,0.8038,0.8038,0.8038,0.8038,0.8038,0.8038,0.8038,0.8038,0.8038,0.8038,0.8038,0.8038,0.8038,0.8038,0.8038,0.8028,0.8011,0.8011,0.8001,0.7984,0.7984,0.7815,0.7684,0.7763,0.7692,0.7567,0.7414,0.7339,0.7336,0.7204,0.7139,0.7139,0.7139,0.6782,0.6248,0.5808,0.5006,0.3758,0.1792,0.0449,0.0,0.0,0.0,0.0,0.0,-0.0473,-0.1325,-0.2368,-0.2725,-0.2402,-0.2299,-0.2237,-0.2194,-0.2095,-0.1808,0.0,-0.0628,0.0,0.0,0.0,0.0,0.0,0.0,0.0,0.0,0.0,0.0,0.0,0.0,0.0,0.0,0.0,0.0,0.0,0.0,0.0,0.0,0.0,0.0,0.0,0.0,0.0,0.0,0.0,0.0,0.0,0.0,0.0,0.0,-0.0427,-0.075,-0.0854,-0.2345,-0.4082,-0.5672,-0.6717,-0.7461,-0.7979,-0.8434,-0.8815,-0.8818,-0.8381,-0.7836,-0.7377,-0.6878,-0.63,-0.5366,-0.4483,-0.3633,-0.273,-0.2833,-0.2746,-0.1442,-0.0621,-0.0206,0.8038,0.8038,0.8038,0.8038,0.8038,0.8038,0.8038,0.8038,0.8038,0.8038,0.8038,0.8038,0.8038,0.8038,0.8038,0.797,0.7959,0.7855,0.789,0.7981,0.778,0.7668,0.7729,0.7512,0.7441,0.7407,0.7258,0.7183,0.7183,0.7153,0.7139,0.7139,0.7139,0.6782,0.616,0.0,0.0,0.0,0.1523,0.0449,0.0,0.0,0.0,0.0,0.0,0.0,-0.1362,-0.2362,-0.2994,-0.3343,-0.3019,0.0,0.0,0.0,0.0,0.0,0.0,0.0,0.0,0.0,0.0,0.0,0.0,0.0,0.0,0.0,0.0,0.0,0.0,0.0,0.0,0.0,0.0,0.0,0.0,0.0,0.0,0.0,0.0,0.0,0.0,0.0,0.0,0.0,0.0,0.0,0.0,0.0,0.0,-0.0419,-0.0746,-0.096,-0.2655,-0.4568,-0.6056,-0.6998,-0.7722,-0.8272,-0.8482,-0.8546,-0.8553,-0.8306,-0.8057,-0.7864,-0.772,-0.7299,-0.6075,-0.5345,-0.4724,-0.4126,-0.3929,-0.3534,-0.2332,-0.1724,-0.1317,0.8038,0.0,0.8038,0.8038,0.0,0.8038,0.8038,0.8038,0.8038,0.8038,0.8035,0.796,0.7926,0.7923,0.7851,0.788,0.8002,0.7804,0.7668,0.76,0.7597,0.756,0.7389,0.7407,0.7295,0.7153,0.7075,0.6997,0.6929,0.6997,0.7037,0.695,0.7105,0.6871,0.6251,0.5181,0.4115,0.2867,0.1434,0.0448,0.0,0.0,0.0,0.0,0.0,0.0,0.0,0.0,0.0,0.0,0.0,0.0,0.0,0.0,0.0,-0.2747,-0.2196,-0.1492,-0.0707,-0.0236,0.0,0.0,0.0,0.0,0.0,0.0,0.0,0.0,0.0,0.0,0.0,0.0,0.0,0.0,0.0,0.0,0.0,0.0,0.0,0.0,0.0,0.0,0.0,0.0,0.0,0.0,0.0,0.0,0.0,-0.0513,-0.1039,-0.1869,-0.311,-0.4658,-0.6105,-0.693,-0.7545,-0.8057,-0.8262,-0.8235,-0.8271,-0.8092,-0.7915,-0.7848,-0.7845,-0.7651,-0.675,-0.615,-0.5753,-0.5255,-0.5027,-0.4704,-0.3725,-0.2763,-0.1988,0.8038,0.8038,0.8038,0.8038,0.8038,0.8038,0.8024,0.7997,0.0,0.0,0.0,0.7841,0.7773,0.7763,0.7651,0.7681,0.7854,0.7657,0.7353,0.7137,0.7423,0.7342,0.7018,0.7198,0.7153,0.6895,0.6885,0.6824,0.6709,0.6827,0.6902,0.6936,0.7044,0.6763,0.616,0.4919,0.3851,0.2867,0.1614,0.0628,0.0,0.0,0.0,0.0,0.0,-0.0718,-0.2155,-0.2693,-0.3021,-0.3041,-0.38,-0.4318,-0.4389,-0.4359,-0.4154,-0.361,-0.3057,-0.2354,-0.1492,-0.0707,-0.0159,-0.0,0.0,0.0,0.0,0.0,0.0,0.0,0.0,0.0,0.0,0.0,0.0,0.0,0.0,0.0,0.0,0.0,0.0,0.0,0.0,0.0,0.0,0.0,0.0,0.0,0.0,0.0,0.0,-0.0503,-0.1318,-0.2837,-0.3636,-0.4514,-0.6006,-0.6781,-0.7368,-0.7865,-0.7963,-0.7963,-0.8045,-0.7959,-0.7883,-0.7581,-0.7687,-0.7588,-0.7193,-0.6807,-0.6517,-0.6034,-0.6059,-0.5989,-0.5235,-0.4028,-0.31,0.8038,0.8038,0.8038,0.8038,0.8038,0.8038,0.7967,0.7845,0.7744,0.7741,0.7834,0.7692,0.7628,0.7628,0.7607,0.7622,0.7689,0.7499,0.7333,0.0,0.7115,0.7037,0.6814,0.6903,0.6902,0.6742,0.6732,0.6722,0.6705,0.6722,0.6797,0.6915,0.7039,0.6496,0.526,0.4563,0.3851,0.2956,0.2332,0.1346,0.0,0.0,0.0,0.0,0.0,-0.0718,-0.2155,-0.305,-0.3464,-0.3389,-0.4342,-0.4911,-0.495,-0.4928,-0.4789,-0.4543,-0.3919,-0.3136,-0.1883,-0.1335,-0.0794,0.0,0.0,0.0,0.0,0.0,0.0,0.0,0.0,0.0,0.0,0.0,0.0,0.0,0.0,0.0,0.0,0.0,0.0,0.0,0.0,0.0,0.0,0.0,0.0,0.0,0.0,0.0,0.0,-0.0495,-0.141,-0.282,-0.3581,-0.4532,-0.5889,-0.6582,-0.7028,-0.7563,-0.7875,-0.7988,-0.7995,-0.7949,-0.7725,-0.7243,-0.7243,-0.724,-0.7146,-0.7146,-0.696,-0.6676,-0.6643,-0.6532,-0.6335,-0.5818,-0.505,0.8038,0.8038,0.8038,0.8038,0.8038,0.8038,0.7953,0.7807,0.7436,0.7498,0.7682,0.7543,0.7478,0.7468,0.739,0.7312,0.7337,0.7244,0.717,0.7121,0.7027,0.686,0.6729,0.6807,0.6725,0.6583,0.6576,0.6539,0.6474,0.6536,0.6654,0.6807,0.6791,0.6104,0.5085,0.4563,0.3851,0.2957,0.2423,0.1615,0.0448,0.009,0.0,0.0,0.0,-0.0718,-0.2154,-0.2838,-0.3401,-0.384,-0.4668,-0.5214,-0.5492,-0.5503,-0.5318,-0.501,-0.4623,-0.3841,-0.2668,-0.1335,-0.0474,0.0,0.0,0.0,0.0,0.0,0.0,0.0,0.0,0.0,0.0,0.0,0.0,0.0,0.0,0.0,0.0,0.0,0.0,0.0,0.0,0.0,0.0,0.0,0.0,0.0,0.0,0.0,0.0,-0.0483,-0.1273,-0.2738,-0.3492,-0.4438,-0.5875,-0.6507,-0.7032,-0.7503,-0.7695,-0.7792,-0.7785,-0.764,-0.7386,-0.7191,-0.7095,-0.7095,-0.7188,-0.7283,-0.7194,-0.7188,-0.7027,-0.6904,-0.6791,-0.6517,-0.5763,0.8038,0.8038,0.8038,0.8038,0.8038,0.8038,0.7933,0.7756,0.7259,0.7269,0.7482,0.737,0.7319,0.7305,0.7193,0.7139,0.7139,0.7139,0.7068,0.7114,0.6932,0.6831,0.6661,0.6647,0.6569,0.6437,0.6503,0.6366,0.6362,0.6373,0.6519,0.6629,0.6471,0.5894,0.4999,0.4561,0.3851,0.3047,0.2423,0.1705,0.0718,0.0269,0.0,0.0,0.0,-0.0626,-0.2048,-0.2628,-0.3343,-0.4253,-0.491,-0.5453,-0.5873,-0.586,-0.5709,-0.5401,-0.5171,-0.4314,-0.2746,-0.102,0.0,0.0,0.0,0.0,0.0,0.0,0.0,0.0,0.0,0.0,0.0,0.0,0.0,0.0,0.0,0.0,0.0,0.0,0.0,0.0,0.0,0.0,0.0,0.0,0.0,0.0,0.0,0.0,0.0,-0.0376,-0.1316,-0.254,-0.3393,-0.4344,-0.5758,-0.6383,-0.6923,-0.7403,-0.7485,-0.7468,-0.7455,-0.7289,-0.7144,-0.7131,-0.7131,-0.7131,-0.7131,-0.7225,-0.7319,-0.7218,-0.7121,-0.7007,-0.6873,-0.6628,-0.6058,0.8038,0.8038,0.8038,0.8038,0.8038,0.8038,0.7882,0.7638,0.7218,0.7152,0.7207,0.717,0.7166,0.716,0.7146,0.7139,0.7139,0.7139,0.7149,0.7111,0.6932,0.6689,0.6425,0.6491,0.642,0.6298,0.6288,0.6285,0.6342,0.6291,0.643,0.6622,0.6474,0.5891,0.5087,0.4561,0.3941,0.3226,0.2602,0.1705,0.0718,0.0269,0.0,0.0,0.0,-0.0622,-0.201,-0.2608,-0.3316,-0.4168,-0.5114,-0.5695,-0.5883,-0.586,-0.5786,-0.5556,-0.5171,-0.3995,-0.1724,-0.0549,0.0,0.0,0.0,0.0,0.0,0.0,0.0,0.0,0.0,0.0,0.0,0.0,0.0,0.0,0.0,0.0,0.0,0.0,0.0,0.0,0.0,0.0,0.0,0.0,0.0,0.0,0.0,0.0,0.0,-0.0363,-0.127,-0.254,-0.3293,-0.425,-0.554,-0.6184,-0.6607,-0.7035,-0.7193,-0.7217,-0.7224,-0.721,-0.7078,-0.7115,-0.7071,-0.7074,-0.7071,-0.716,-0.7153,-0.7122,-0.7031,-0.6912,-0.6793,-0.6742,-0.6328,0.8038,0.8038,0.8038,0.8038,0.8038,0.8038,0.7872,0.7607,0.7211,0.7142,0.7071,0.7139,0.7139,0.7139,0.7139,0.7139,0.7136,0.7145,0.7111,0.7052,0.6871,0.6549,0.6363,0.6346,0.639,0.6342,0.6261,0.6261,0.6291,0.643,0.6583,0.6636,0.6474,0.5891,0.4999,0.438,0.3829,0.326,0.229,0.1497,0.1059,0.0357,0.0,0.0,0.0,-0.0614,-0.1909,-0.2457,-0.3225,-0.4302,-0.5445,-0.6018,-0.6106,-0.6177,-0.6022,-0.5789,-0.5015,-0.3843,-0.2117,-0.1256,-0.055,-0.0079,0.0,0.0,0.0,0.0,0.0,0.0,0.0,0.0,0.0,0.0,0.0,0.0,0.0,0.0,0.0,0.0,0.0,0.0,0.0,0.0,0.0,0.0,0.0,0.0,0.0,0.0,0.0,-0.0356,-0.1345,-0.2601,-0.3339,-0.4164,-0.543,-0.6117,-0.6612,-0.6962,-0.7139,-0.7139,-0.7139,-0.7139,-0.7143,-0.7136,-0.6977,-0.693,-0.6927,-0.6843,-0.6881,-0.6875,-0.6858,-0.6749,-0.6682,-0.6654,-0.6465,0.8038,0.8038,0.8038,0.8038,0.8035,0.7994,0.7834,0.7607,0.7266,0.7106,0.7153,0.7139,0.7139,0.7139,0.7139,0.7034,0.7071,0.7066,0.7,0.6898,0.6687,0.6479,0.6271,0.6261,0.6261,0.6261,0.6261,0.6261,0.6295,0.6556,0.6702,0.6659,0.6474,0.5874,0.478,0.4166,0.3692,0.3109,0.1981,0.1379,0.1297,0.0526,0.0,0.0,0.0,-0.0606,-0.1707,-0.2231,-0.307,-0.4339,-0.5614,-0.6271,-0.618,-0.6257,-0.6183,-0.5948,-0.5093,-0.3923,-0.2588,-0.1727,-0.0942,0.0,0.0,0.0,0.0,0.0,0.0,0.0,0.0,0.0,0.0,0.0,0.0,0.0,0.0,0.0,0.0,0.0,0.0,0.0,0.0,0.0,0.0,0.0,0.0,0.0,0.0,0.0,0.0,-0.0441,-0.1157,-0.2508,-0.3224,-0.4115,-0.545,-0.6077,-0.6609,-0.6962,-0.7139,-0.7139,-0.7129,-0.7119,-0.6991,-0.685,-0.6764,-0.6705,-0.678,-0.6682,-0.6671,-0.6647,-0.663,-0.6586,-0.6527,-0.6586,-0.6458,0.8038,0.8038,0.8038,0.8038,0.8028,0.799,0.7842,0.7587,0.726,0.7108,0.7153,0.7139,0.7139,0.7139,0.7139,0.6977,0.6867,0.7015,0.6846,0.6428,0.6555,0.6476,0.6264,0.6261,0.6261,0.6261,0.6261,0.6261,0.6278,0.6556,0.6702,0.6719,0.6474,0.5657,0.435,0.4,0.3612,0.2872,0.1854,0.135,0.1265,0.0422,0.0,0.0,0.0,-0.0426,-0.1316,-0.2114,-0.3049,-0.4157,-0.5491,-0.619,-0.5944,-0.618,-0.6264,-0.6193,-0.541,-0.4233,-0.2744,-0.1803,-0.0941,0.0,0.0,0.0,0.0,0.0,0.0,0.0,0.0,0.0,0.0,0.0,0.0,0.0,0.0,0.0,0.0,0.0,0.0,0.0,0.0,0.0,0.0,0.0,0.0,0.0,0.0,0.0,0.0,-0.0348,-0.1142,-0.2046,-0.3038,-0.4111,-0.545,-0.6074,-0.652,-0.6956,-0.7126,-0.7122,-0.7088,-0.7048,-0.6807,-0.6642,-0.6619,-0.6639,-0.6629,-0.6582,-0.6593,-0.6542,-0.6491,-0.642,-0.6421,-0.6369,-0.6268,0.8038,0.8038,0.8038,0.8038,0.8021,0.7976,0.7832,0.7587,0.7247,0.7098,0.7068,0.7139,0.7139,0.7139,0.7139,0.6974,0.684,0.6831,0.6754,0.6555,0.6458,0.6386,0.6268,0.6261,0.6261,0.6261,0.6261,0.6261,0.6295,0.6559,0.6702,0.6666,0.639,0.5481,0.4255,0.3639,0.3243,0.2728,0.1565,0.0824,0.0,0.0165,0.0,0.0,0.0,-0.0414,-0.1303,-0.2084,-0.2925,-0.3919,-0.5171,-0.5873,-0.5944,-0.6177,-0.6187,-0.5957,-0.5572,-0.4784,-0.3448,-0.2037,-0.0941,0.0,0.0,0.0,0.0,0.0,0.0,0.0,0.0,0.0,0.0,0.0,0.0,0.0,0.0,0.0,0.0,0.0,0.0,0.0,0.0,0.0,0.0,0.0,0.0,0.0,0.0,0.0,0.0,-0.0337,-0.103,-0.2009,-0.29,-0.3879,-0.5277,-0.5985,-0.6511,-0.6933,-0.7088,-0.7107,-0.7063,-0.7045,-0.6797,-0.6505,-0.6483,-0.6485,-0.6471,-0.6491,-0.6434,-0.6403,-0.6356,-0.6349,-0.6352,-0.6261,-0.6261,0.8038,0.8038,0.8038,0.8038,0.8014,0.8028,0.7886,0.7577,0.7197,0.7145,0.7153,0.7139,0.7139,0.7139,0.7139,0.7065,0.6919,0.677,0.6678,0.6569,0.6383,0.6261,0.6261,0.6261,0.6261,0.6261,0.6261,0.6278,0.6431,0.658,0.6719,0.6706,0.6331,0.5375,0.4046,0.3432,0.2944,0.2354,0.1288,0.0483,0.0,0.0,0.0,0.0,0.0,-0.0241,-0.0885,-0.1662,-0.2744,-0.3921,-0.5018,-0.5715,-0.6022,-0.6099,-0.6103,-0.5799,-0.5649,-0.5101,-0.3841,-0.2193,-0.0941,0.0,0.0,0.0,0.0,0.0,0.0,0.0,0.0,0.0,0.0,0.0,0.0,0.0,0.0,0.0,0.0,0.0,0.0,0.0,0.0,0.0,0.0,0.0,0.0,0.0,0.0,0.0,0.0,-0.033,-0.0923,-0.1968,-0.2664,-0.3624,-0.4776,-0.5559,-0.6303,-0.682,-0.7018,-0.7052,-0.6996,-0.6968,-0.6801,-0.6433,-0.629,-0.6364,-0.6373,-0.6315,-0.6362,-0.6264,-0.6278,-0.6291,-0.6264,-0.6261,-0.6261,0.8038,0.8038,0.8038,0.8031,0.798,0.803,0.7897,0.7536,0.7278,0.7153,0.7139,0.7139,0.7139,0.7139,0.7139,0.7061,0.6919,0.6787,0.6573,0.6315,0.6271,0.6261,0.6261,0.6261,0.6274,0.6281,0.6268,0.6342,0.6481,0.6641,0.6703,0.6662,0.6271,0.5177,0.3442,0.3199,0.272,0.1994,0.1106,0.0394,0.0,0.0,0.0,0.0,0.0,0.0,0.0,-0.0863,-0.2272,-0.4079,-0.5101,-0.5802,-0.6103,-0.6018,-0.5867,-0.5718,-0.5649,-0.5021,-0.3843,-0.2272,-0.0941,0.0,0.0,0.0,0.0,0.0,0.0,0.0,0.0,0.0,0.0,0.0,0.0,0.0,0.0,0.0,0.0,0.0,0.0,0.0,0.0,0.0,0.0,0.0,0.0,0.0,0.0,0.0,0.0,-0.0244,-0.0903,-0.1752,-0.2522,-0.3372,-0.429,-0.5121,-0.5948,-0.6678,-0.6853,-0.6954,-0.675,-0.6664,-0.6582,-0.6291,-0.6251,-0.6329,-0.6325,-0.6278,-0.6274,-0.6261,-0.6261,-0.6261,-0.6261,-0.6261,-0.6261,0.8038,0.8038,0.8038,0.7974,0.7865,0.7974,0.783,0.7428,0.7224,0.7143,0.7139,0.7139,0.7139,0.7139,0.7139,0.7065,0.6929,0.6953,0.6695,0.6351,0.6312,0.6268,0.6268,0.6264,0.6312,0.6472,0.6486,0.6565,0.6634,0.6696,0.6718,0.6599,0.6104,0.502,0.3601,0.3131,0.2567,0.1937,0.103,0.0393,0.0,0.0,0.0,0.0,0.0,0.0,0.0,-0.0862,-0.2038,-0.3454,-0.455,-0.541,-0.5715,-0.5864,-0.5631,-0.5171,-0.5413,-0.5104,-0.3771,-0.2276,-0.0942,0.0,0.0,0.0,0.0,0.0,0.0,0.0,0.0,0.0,0.0,0.0,0.0,0.0,0.0,0.0,0.0,0.0,0.0,0.0,0.0,0.0,0.0,0.0,0.0,0.0,0.0,0.0,0.0,0.0,-0.0642,-0.1717,-0.2378,-0.3047,-0.4045,-0.4856,-0.5606,-0.6309,-0.6593,-0.6799,-0.6596,-0.6471,-0.6386,-0.6257,-0.6288,-0.6268,-0.6261,-0.6261,-0.6261,-0.6261,-0.6261,-0.6261,-0.6261,-0.6261,-0.6261,0.8038,0.8038,0.8038,0.7953,0.7801,0.7855,0.7702,0.736,0.7207,0.7139,0.7139,0.7139,0.7139,0.7139,0.7139,0.7092,0.7007,0.7049,0.6915,0.6637,0.6488,0.6427,0.6424,0.6341,0.6378,0.6542,0.6725,0.6805,0.6783,0.6793,0.6784,0.676,0.6128,0.5041,0.3644,0.3083,0.2527,0.1898,0.1057,0.0402,0.0,0.0,0.0,0.0,0.0,0.0,-0.0471,-0.102,-0.1804,-0.2902,-0.4155,-0.5012,-0.5479,-0.5476,-0.5318,-0.4935,-0.4781,-0.4474,-0.3536,-0.212,-0.0943,0.0,0.0,0.0,0.0,0.0,0.0,0.0,0.0,0.0,0.0,0.0,0.0,0.0,0.0,0.0,0.0,0.0,0.0,0.0,0.0,0.0,0.0,0.0,0.0,0.0,0.0,0.0,0.0,0.0,0.0,-0.1361,-0.2084,-0.2902,-0.3822,-0.461,-0.5286,-0.5851,-0.6331,-0.6479,-0.6462,-0.6431,-0.6291,-0.6295,-0.6264,-0.6264,-0.6261,-0.6261,-0.6261,-0.6261,-0.6261,-0.6261,-0.6261,-0.6261,-0.6261,0.8038,0.8038,0.8031,0.7929,0.7777,0.7638,0.7574,0.7339,0.7207,0.7139,0.7139,0.7139,0.7139,0.7139,0.7139,0.7129,0.7115,0.7107,0.7132,0.698,0.687,0.6709,0.6654,0.6476,0.6499,0.6709,0.6968,0.6968,0.6932,0.687,0.6924,0.6953,0.6062,0.4958,0.3749,0.3038,0.2487,0.1942,0.1092,0.0415,0.0,0.0,0.0,0.0,0.0,-0.0315,-0.0864,-0.1178,-0.1649,-0.2589,-0.3841,-0.4779,-0.5087,-0.5004,-0.4851,-0.4467,-0.4075,-0.3608,-0.2984,-0.1805,-0.0786,0.0,0.0,0.0,0.0,0.0,0.0,0.0,0.0,0.0,0.0,0.0,0.0,0.0,0.0,0.0,0.0,0.0,0.0,0.0,0.0,0.0,0.0,0.0,0.0,0.0,0.0,0.0,0.0,0.0,0.0,-0.0866,-0.1738,-0.2615,-0.3519,-0.4391,-0.5145,-0.5698,-0.6087,-0.6315,-0.6383,-0.6355,-0.6261,-0.6261,-0.6261,-0.6261,-0.6261,-0.6261,-0.6261,-0.6261,-0.6261,-0.6261,-0.6261,-0.6261,-0.6274,0.8038,0.8028,0.7919,0.7787,0.7645,0.7591,0.744,0.7207,0.7163,0.7139,0.7139,0.7139,0.7139,0.7139,0.7139,0.7139,0.7126,0.7099,0.7085,0.7082,0.7048,0.6888,0.6736,0.6622,0.6682,0.6854,0.7045,0.7035,0.7075,0.6987,0.7014,0.7061,0.5897,0.4721,0.3629,0.3059,0.26,0.2064,0.1102,0.0421,0.0,0.0,0.0,0.0,0.0,0.0,0.0,-0.0943,-0.1649,-0.2511,-0.345,-0.4075,-0.4231,-0.4384,-0.4151,-0.3606,-0.3612,-0.3301,-0.2278,-0.11,-0.0314,0.0,0.0,0.0,0.0,0.0,0.0,0.0,0.0,0.0,0.0,0.0,0.0,0.0,0.0,0.0,0.0,0.0,0.0,0.0,0.0,0.0,0.0,0.0,0.0,0.0,0.0,0.0,0.0,0.0,-0.0157,-0.0706,-0.1493,-0.2354,-0.3297,-0.4157,-0.494,-0.5494,-0.5964,-0.6281,-0.6352,-0.6268,-0.6261,-0.6261,-0.6261,-0.6261,-0.6261,-0.6261,-0.6261,-0.6261,-0.6281,-0.6291,-0.6274,-0.6349,-0.6295,0.8038,0.8031,0.7943,0.779,0.76,0.7598,0.7437,0.717,0.7139,0.7139,0.7139,0.7139,0.7139,0.7139,0.7139,0.7139,0.7139,0.7139,0.7139,0.7139,0.7129,0.7037,0.6915,0.6888,0.6936,0.7007,0.7021,0.7061,0.7126,0.7139,0.7149,0.6976,0.608,0.4912,0.3653,0.3187,0.2728,0.211,0.1217,0.0431,0.0,0.0,0.0,0.0,0.0,0.0,0.0,-0.0869,-0.1571,-0.2041,-0.2746,-0.3292,-0.3372,-0.3606,-0.3448,-0.2824,-0.3144,-0.2909,-0.2123,0.0,0.0,0.0,0.0,0.0,0.0,0.0,0.0,0.0,0.0,0.0,0.0,0.0,0.0,0.0,0.0,0.0,0.0,0.0,0.0,0.0,0.0,0.0,0.0,0.0,0.0,0.0,0.0,0.0,0.0,0.0,-0.0157,-0.0628,-0.1256,-0.2195,-0.3056,-0.3917,-0.4851,-0.5401,-0.5948,-0.6261,-0.6278,-0.6274,-0.6261,-0.6261,-0.6261,-0.6261,-0.6261,-0.6261,-0.6261,-0.6271,-0.6302,-0.6346,-0.6349,-0.6376,-0.6311,0.8038,0.8038,0.8021,0.7865,0.7638,0.7584,0.7407,0.72,0.7149,0.7139,0.7139,0.7139,0.7139,0.7139,0.7139,0.7139,0.7139,0.7139,0.7139,0.7139,0.7139,0.7112,0.7099,0.7082,0.7095,0.7126,0.7149,0.717,0.72,0.7104,0.7101,0.6933,0.6567,0.5463,0.4111,0.3395,0.2868,0.2149,0.116,0.0442,0.0,0.0,0.0,0.0,0.0,0.0,0.0,-0.0721,-0.1185,-0.1341,-0.1965,-0.2433,-0.2668,-0.2747,-0.2747,-0.2747,-0.2595,-0.2518,-0.2124,0.0,0.0,0.0,0.0,0.0,0.0,0.0,0.0,0.0,0.0,0.0,0.0,0.0,0.0,0.0,0.0,0.0,0.0,0.0,0.0,0.0,0.0,0.0,0.0,0.0,0.0,0.0,0.0,0.0,0.0,0.0,0.0,-0.0393,-0.1177,-0.204,-0.2823,-0.3682,-0.454,-0.5321,-0.5948,-0.6268,-0.6308,-0.6305,-0.6274,-0.6261,-0.6261,-0.6261,-0.6264,-0.6261,-0.6288,-0.6346,-0.6417,-0.6464,-0.6502,-0.6465,-0.6488,0.8038,0.8031,0.7906,0.7824,0.7733,0.7333,0.7292,0.7316,0.7193,0.7153,0.7143,0.7143,0.7139,0.7139,0.7149,0.7139,0.7156,0.7071,0.7139,0.7139,0.7139,0.7139,0.7146,0.7153,0.7146,0.7173,0.7272,0.7316,0.7336,0.722,0.7152,0.7057,0.6684,0.582,0.4755,0.3681,0.2871,0.2154,0.1256,0.0448,0.0,0.0,0.0,0.0,0.0,0.0,0.0,-0.0164,-0.0566,-0.1127,-0.1509,-0.1728,-0.2042,-0.2354,-0.2354,-0.228,-0.2359,-0.2202,-0.1493,0.0,0.0,0.0,0.0,0.0,0.0,0.0,0.0,0.0,0.0,0.0,0.0,0.0,0.0,0.0,0.0,0.0,0.0,0.0,0.0,0.0,0.0,0.0,0.0,0.0,0.0,0.0,0.0,0.0,0.0,0.0,0.0,-0.0314,-0.0864,-0.1649,-0.251,-0.3374,-0.4403,-0.5283,-0.5918,-0.6274,-0.6311,-0.639,-0.6455,-0.64,-0.6261,-0.6278,-0.6356,-0.639,-0.6441,-0.6488,-0.6539,-0.6607,-0.6664,-0.6625,-0.6589,0.8038,0.8031,0.7953,0.7875,0.7794,0.7641,0.7539,0.7458,0.7222,0.7158,0.7231,0.718,0.7139,0.7149,0.7214,0.7251,0.7178,0.7138,0.7131,0.7088,0.7068,0.7158,0.7248,0.7248,0.7248,0.7265,0.7326,0.74,0.7485,0.7359,0.7356,0.7297,0.683,0.6012,0.5094,0.4085,0.3165,0.2156,0.1256,0.0449,0.0,0.0,0.0,0.0,0.0,0.0,0.0,0.0,0.0,-0.0566,-0.0876,-0.1022,-0.1258,-0.1492,-0.157,-0.1729,-0.1808,-0.1493,-0.0786,0.0,0.0,0.0,0.0,0.0,0.0,0.0,0.0,0.0,0.0,0.0,0.0,0.0,0.0,0.0,0.0,0.0,0.0,0.0,0.0,0.0,0.0,0.0,0.0,0.0,0.0,0.0,0.0,0.0,0.0,0.0,0.0,-0.0393,-0.0707,-0.1256,-0.2118,-0.3144,-0.4346,-0.5167,-0.5848,-0.6157,-0.6312,-0.6451,-0.6666,-0.6537,-0.6507,-0.6474,-0.6539,-0.6566,-0.6583,-0.662,-0.6675,-0.6756,-0.6831,-0.6803,-0.6847,0.8038,0.8038,0.8038,0.7963,0.7855,0.7914,0.7828,0.7617,0.7349,0.7259,0.7339,0.7207,0.7156,0.7204,0.7305,0.7373,0.7342,0.731,0.7207,0.7322,0.7217,0.7309,0.7404,0.7404,0.7428,0.7431,0.7468,0.7536,0.7611,0.7651,0.7685,0.7547,0.7155,0.6324,0.5208,0.4444,0.3598,0.2374,0.1277,0.0456,0.0,0.0,0.0,0.0,0.0,0.0,0.0,0.0,0.0,0.0,-0.0321,-0.0475,-0.0473,-0.055,-0.0629,-0.11,-0.11,-0.0786,0.0,0.0,0.0,0.0,0.0,0.0,0.0,0.0,0.0,0.0,0.0,0.0,0.0,0.0,0.0,0.0,0.0,0.0,0.0,0.0,0.0,0.0,0.0,0.0,0.0,0.0,0.0,0.0,0.0,0.0,0.0,0.0,0.0,0.0,-0.0707,-0.1099,-0.1883,-0.2705,-0.3993,-0.4671,-0.5526,-0.5955,-0.6124,-0.621,-0.6354,-0.6743,-0.6733,-0.6675,-0.6605,-0.6709,-0.6725,-0.6753,-0.6827,-0.6929,-0.7004,-0.7068,-0.7085,0.8038,0.8038,0.8038,0.8021,0.7984,0.7969,0.7904,0.7733,0.7588,0.7468,0.7356,0.7214,0.7224,0.7312,0.735,0.7444,0.757,0.7537,0.7611,0.7664,0.7563,0.756,0.756,0.7563,0.7617,0.7712,0.7729,0.7746,0.7801,0.7892,0.7862,0.7801,0.7395,0.6646,0.57,0.4821,0.3966,0.2718,0.15,0.0657,0.0,0.0,0.0,0.0,0.0,0.0,0.0,0.0,0.0,0.0,0.0,0.0,0.0,0.0,0.0,0.0,0.0,0.0,0.0,0.0,0.0,0.0,0.0,0.0,0.0,0.0,0.0,0.0,0.0,0.0,0.0,0.0,0.0,0.0,0.0,0.0,0.0,0.0,0.0,0.0,0.0,0.0,0.0,0.0,0.0,0.0,0.0,0.0,0.0,0.0,0.0,0.0,-0.0786,-0.1178,-0.1725,-0.2561,-0.3406,-0.4012,-0.4722,-0.5493,-0.5644,-0.5766,-0.602,-0.5981,-0.6447,-0.6682,-0.6706,-0.6756,-0.6786,-0.6813,-0.691,-0.7011,-0.7102,-0.7109,-0.7048,0.8038,0.8038,0.8038,0.8038,0.8024,0.7967,0.7933,0.7882,0.7719,0.7585,0.7444,0.7339,0.7295,0.7397,0.7553,0.7682,0.7787,0.7828,0.7883,0.7934,0.7907,0.7808,0.7709,0.7712,0.7801,0.7889,0.7929,0.7923,0.7933,0.7991,0.7994,0.7858,0.754,0.7076,0.6296,0.5406,0.4227,0.2966,0.2004,0.0954,0.0,0.0,0.0,0.0,0.0,0.0,0.0,0.0,0.0,0.0,0.0,0.0,0.0,0.0,0.0,0.0,0.0,0.0,0.0,0.0,0.0,0.0,0.0,0.0,0.0,0.0,0.0,0.0,0.0,0.0,0.0,0.0,0.0,0.0,0.0,0.0,0.0,0.0,0.0,0.0,0.0,0.0,0.0,0.0,0.0,0.0,0.0,0.0,0.0,0.0,0.0,0.0,0.0,-0.08,-0.1283,-0.1955,-0.2649,-0.3255,-0.3884,-0.4649,-0.5053,-0.5085,-0.4913,-0.4807,-0.5378,-0.6028,-0.6519,-0.6499,-0.6686,-0.686,-0.6906,-0.7034,-0.7044,-0.7146,-0.7098,0.8038,0.8038,0.8038,0.8021,0.7994,0.7994,0.7967,0.7899,0.7563,0.7536,0.7529,0.7397,0.735,0.7482,0.7706,0.7923,0.8038,0.8024,0.7953,0.7983,0.7959,0.7959,0.7858,0.7868,0.7916,0.7991,0.8018,0.8038,0.8021,0.8031,0.8038,0.7922,0.7736,0.7499,0.6911,0.5909,0.4578,0.3393,0.2508,0.1447,0.0,0.0,0.0,0.0,0.0,0.0,0.0,0.0,0.0,0.0,0.0,0.0,0.0,0.0,0.0,0.0,0.0,0.0,0.0,0.0,0.0,0.0,0.0,0.0,0.0,0.0,0.0,0.0,0.0,0.0,0.0,0.0,0.0,0.0,0.0,0.0,0.0,0.0,0.0,0.0,0.0,0.0,0.0,0.0,0.0,0.0,0.0,0.0,0.0,0.0,0.0,0.0,0.0,0.0,-0.0741,-0.1169,-0.1776,-0.2305,-0.3025,-0.3776,-0.4076,-0.4196,-0.4007,-0.3723,-0.408,-0.4766,-0.5442,-0.6266,-0.6319,-0.6483,-0.6773,-0.69,-0.6853,-0.6979,-0.7105,0.8038,0.8038,0.8038,0.7963,0.7855,0.7748,0.7671,0.7648,0.7297,0.7302,0.7411,0.7278,0.735,0.7604,0.7868,0.8011,0.8035,0.8035,0.8021,0.7984,0.7987,0.7987,0.8004,0.8014,0.7997,0.8038,0.8038,0.8038,0.8038,0.8038,0.8038,0.7939,0.7942,0.773,0.7208,0.6396,0.5218,0.3902,0.28,0.15,0.0,0.0,0.0,0.0,0.0,0.0,0.0,0.0,0.0,0.0,0.0,0.0,0.0,0.0,0.0,0.0,0.0,0.0,0.0,0.0,0.0,0.0,0.0,0.0,0.0,0.0,0.0,0.0,0.0,0.0,0.0,0.0,0.0,0.0,0.072,0.1048,0.1136,0.0734,0.0493,0.0,0.0,0.0,0.0,0.0,0.0,0.0,0.0,0.0,0.0,0.0,0.0,0.0,0.0,0.0,-0.0337,-0.0684,0.0,0.0,-0.2201,-0.2852,-0.2949,-0.3048,-0.2873,-0.2776,-0.3141,-0.3605,-0.4531,-0.5158,-0.5744,-0.6077,-0.6254,-0.6505,-0.66,-0.681,-0.7005,0.8137,0.8038,0.8038,0.795,0.7821,0.7614,0.7535,0.7493,0.7247,0.7184,0.7383,0.7407,0.7567,0.7821,0.8001,0.8035,0.8038,0.8038,0.8038,0.8038,0.8038,0.8038,0.8035,0.8038,0.8038,0.8038,0.8038,0.8038,0.8038,0.8038,0.8038,0.8038,0.8038,0.7945,0.7553,0.6948,0.5839,0.4427,0.2821,0.1312,0.0,0.0,0.0,0.0,0.0,0.0,0.0,0.0,0.0,0.0,0.0,0.0,0.0,0.0,0.0,0.0,0.0,0.0,0.0,0.0,0.0,0.0,0.0,0.0,0.0,0.0,0.0,0.0,0.0,0.0472,0.0,0.0,0.0,0.0,0.0,0.1561,0.1658,0.1335,0.1007,0.0757,0.059,0.0415,0.0164,0.0,0.0,0.0,0.0,0.0,0.0,0.0,0.0,0.0,0.0,0.0,0.0,0.0,0.0,0.0,-0.133,-0.1878,-0.1792,-0.1795,-0.1623,-0.1726,-0.201,-0.2752,-0.3498,-0.428,-0.5034,-0.5377,-0.5722,-0.5902,-0.6082,-0.6667,-0.6996,0.8528,0.8237,0.8041,0.7929,0.776,0.7561,0.7452,0.7475,0.7309,0.7279,0.7424,0.7556,0.7777,0.7953,0.8007,0.8038,0.8038,0.8038,0.8038,0.8038,0.8038,0.8038,0.8038,0.8038,0.8038,0.8038,0.8038,0.8038,0.8038,0.8038,0.8038,0.8038,0.8038,0.7945,0.7749,0.725,0.6345,0.4535,0.2724,0.1413,0.0,0.0,0.0,0.0,0.0,0.0,0.0,0.0,0.0,0.0,0.0,0.0,0.0,0.0,0.0,0.0,0.0,0.0,0.0,0.0,0.0,0.0,0.0,0.0,0.0,0.0318,0.0,0.0,0.0,0.0803,0.0,0.0,0.0,0.0,0.1904,0.201,0.2117,0.1881,0.1637,0.1299,0.104,0.0777,0.0514,0.0171,0.0,0.0,0.0,0.0,0.0,0.0,0.0,0.0,0.0,0.0,0.0,0.0,0.0,0.0,0.0,0.0,0.0,0.0,-0.0638,-0.0828,-0.1208,-0.1588,-0.2249,-0.3307,-0.4238,-0.4437,-0.4729,-0.5127,-0.5547,-0.6152,-0.6726,0.9217,0.8726,0.8237,0.7879,0.7631,0.7614,0.7455,0.7272,0.7339,0.7482,0.7547,0.7655,0.7801,0.7875,0.7987,0.8038,0.8038,0.8038,0.8038,0.8038,0.8038,0.8038,0.8038,0.8038,0.8038,0.8038,0.8038,0.8038,0.8038,0.8038,0.8038,0.8038,0.8038,0.7839,0.7643,0.735,0.6348,0.4736,0.3025,0.2018,0.1312,0.0707,0.0,0.0,0.0,0.0,0.0,0.0,0.0,0.0,0.0,0.0,0.0,0.0,0.0,0.0,0.0,0.0,0.0,0.0,0.0,0.0,0.0,0.0568,0.0975,0.1243,0.1086,0.0914,0.1406,0.1495,0.1249,0.1172,0.1163,0.1928,0.2793,0.3085,0.3036,0.2549,0.2303,0.1871,0.16,0.1234,0.0968,0.0614,0.0174,0.0,0.0,0.0,0.0,0.0,0.0,0.0,0.0,0.0,0.0,0.0,0.0,0.0,0.0,0.0,0.0,0.0,0.0,-0.0281,-0.0662,-0.0855,-0.1143,-0.2164,-0.3073,-0.3422,-0.3795,-0.4194,-0.4836,-0.5494,-0.606,1.0109,0.9719,0.9229,0.8706,0.8211,0.8211,0.7991,0.7717,0.7941,0.8031,0.8121,0.8058,0.8063,0.8143,0.7994,0.8038,0.8038,0.8038,0.8038,0.8038,0.8038,0.8038,0.8038,0.8038,0.8038,0.8038,0.8038,0.8038,0.8038,0.8038,0.8038,0.8038,0.8038,0.7939,0.7743,0.7244,0.6242,0.5238,0.3828,0.2822,0.1917,0.1413,0.0707,0.0,0.0,0.0,0.0,0.0,0.0,0.0,0.0,0.0,0.0,0.0,0.0,0.0,0.0,0.0,0.0,0.0,0.0,0.0997,0.0,0.1663,0.1664,0.1679,0.2019,0.2018,0.2109,0.2201,0.2271,0.2016,0.2018,0.2987,0.3631,0.4112,0.3974,0.3392,0.2865,0.2505,0.197,0.1519,0.1341,0.1074,0.0533,0.0,0.0,0.0,0.0,0.0,0.0,0.0,0.0,0.0,0.0,0.0,0.0,0.0,0.0,0.0,0.0,0.0,0.0,0.0,0.0,-0.0486,-0.0779,-0.1355,-0.1917,-0.246,-0.2929,-0.3321,-0.3973,-0.4757,-0.5295,1.1096,1.0703,1.0413,0.9718,0.8887,0.8879,0.8585,0.8258,0.8573,0.8699,0.8758,0.8575,0.8528,0.8414,0.8237,0.8035,0.8035,0.8038,0.8038,0.8038,0.8038,0.8038,0.8038,0.8038,0.8038,0.8038,0.8038,0.8038,0.8038,0.8038,0.8038,0.8038,0.8038,0.7939,0.7836,0.7238,0.6439,0.5636,0.4832,0.3729,0.2924,0.2221,0.1515,0.0606,0.0,0.0,0.0,0.0,0.0,0.0,0.0,0.0,0.0,0.0,0.0,0.0,0.0,0.0,0.0262,0.0172,0.0766,0.2126,0.281,0.2723,0.2384,0.2391,0.2763,0.2842,0.3008,0.3082,0.3076,0.2838,0.3368,0.4291,0.4649,0.4958,0.4623,0.4121,0.3583,0.3045,0.2511,0.2064,0.1527,0.1258,0.0628,0.0,0.0,0.0,0.0,0.0,0.0,0.0,0.0,0.0,0.0,0.0,0.0,0.0,0.0,0.0,0.0,0.0,0.0,0.0,0.0,0.0,-0.0497,-0.0988,-0.1367,-0.1735,-0.2122,-0.2416,-0.3339,-0.4104,-0.4412,1.2273,1.159,1.178,1.0979,0.9669,0.9456,0.9068,0.8769,0.9279,0.9441,0.9387,0.9205,0.9106,0.8829,0.8634,0.8329,0.8024,0.8035,0.8038,0.8038,0.8038,0.8038,0.8038,0.8038,0.8038,0.8038,0.8038,0.8038,0.8038,0.8038,0.8038,0.8038,0.8038,0.8038,0.7939,0.7743,0.7141,0.6434,0.5834,0.5035,0.4236,0.3328,0.2421,0.1614,0.0706,0.0,0.0,0.0,0.0,0.0,0.0,0.0,0.0,0.0,0.0,0.0,0.0,0.0537,0.1162,0.0439,0.1653,0.3393,0.3919,0.3741,0.3404,0.3524,0.3641,0.3701,0.3719,0.3551,0.3559,0.3735,0.4621,0.5333,0.5695,0.5523,0.5186,0.4782,0.4156,0.3628,0.3156,0.2693,0.1978,0.1351,0.0632,0.0,0.0,0.0,0.0,0.0,0.0,0.0,0.0,0.0,0.0,0.0,0.0,0.0,0.0,0.0,0.0,0.0,0.0,0.0,0.0,0.0,0.0,-0.0504,-0.0796,-0.1081,-0.1276,-0.1676,-0.2599,-0.3224,-0.3528,1.3426,1.2834,1.2743,1.2313,1.1574,1.109,1.0444,1.0009,1.0678,1.0956,1.0502,1.0216,0.992,0.9719,0.913,0.8627,0.8117,0.8021,0.8028,0.8038,0.8038,0.8038,0.8038,0.8038,0.8038,0.8038,0.8038,0.8038,0.8038,0.8038,0.8038,0.8038,0.8038,0.8038,0.7939,0.7743,0.7344,0.7141,0.6539,0.5837,0.534,0.4433,0.3425,0.272,0.1613,0.0905,0.0599,0.0396,0.0292,0.0575,0.0761,0.0939,0.0651,0.0555,0.055,0.0548,0.0726,0.0986,0.1792,0.2043,0.3197,0.418,0.4617,0.4524,0.409,0.4275,0.4385,0.4567,0.4743,0.4561,0.455,0.4905,0.5531,0.6248,0.6432,0.5985,0.5563,0.5184,0.4676,0.4242,0.3776,0.2872,0.2137,0.1662,0.1016,0.037,0.0,0.0,0.0,0.0,0.0,0.0,0.0,0.0,0.0,0.0,0.0,0.0,0.0,0.0,0.0,0.0,0.0,0.0,0.0,0.0,0.0,0.0,0.0,-0.0401,0.0,0.0,-0.1707,-0.232,-0.2523,1.4298,1.3908,1.3806,1.3619,1.3238,1.2365,1.1673,1.1468,1.2098,1.2201,1.159,1.1198,1.0801,1.0507,0.992,0.9229,0.8513,0.8113,0.8021,0.8035,0.8038,0.8038,0.8038,0.8038,0.8038,0.8038,0.8038,0.8038,0.8038,0.8038,0.8038,0.8038,0.8038,0.8038,0.7939,0.7846,0.7646,0.7444,0.6942,0.6639,0.6142,0.5436,0.4632,0.3827,0.292,0.1914,0.1408,0.0998,0.079,0.1275,0.1749,0.192,0.1524,0.1322,0.1309,0.1395,0.1665,0.1926,0.2384,0.3668,0.4684,0.5329,0.5445,0.5208,0.4926,0.5097,0.5275,0.5458,0.573,0.5638,0.5544,0.5908,0.6233,0.6873,0.6915,0.6463,0.6221,0.5847,0.5503,0.4971,0.4524,0.3515,0.258,0.1905,0.1421,0.0855,0.0,0.0,0.0,0.0,0.0,0.0,0.0,0.0,0.0,0.0,0.0,0.0,0.0,0.0,0.0,0.0,0.0,0.0,0.0,0.0,0.0,0.0,0.0,0.0,0.0,0.0,0.0,-0.1313,-0.1616,1.4987,1.479,1.4987,1.479,1.4202,1.334,1.2856,1.2861,1.3288,1.3186,1.2467,1.217,1.1873,1.1287,1.0703,1.0212,0.9517,0.8609,0.8212,0.8024,0.8031,0.8035,0.8038,0.8038,0.8038,0.8038,0.8038,0.8038,0.8038,0.8038,0.8038,0.8038,0.8038,0.8038,0.7942,0.7942,0.7842,0.7643,0.7543,0.7244,0.6745,0.6242,0.5737,0.5031,0.4126,0.3224,0.2618,0.2109,0.1994,0.2377,0.2952,0.282,0.2602,0.2486,0.2387,0.2381,0.2564,0.2743,0.3492,0.5092,0.5949,0.6473,0.653,0.6242,0.5919,0.5922,0.5991,0.6183,0.6373,0.637,0.6456,0.6548,0.6636,0.6961,0.7207,0.7044,0.6879,0.6632,0.6269,0.5818,0.5458,0.4716,0.3861,0.3086,0.2326,0.1462,0.0976,0.0,0.0,0.0,0.0,0.0,0.0,0.0,0.0,0.0,0.0,0.0,0.0,0.0,0.0,0.0,0.0,0.0,0.0,0.0,0.0,0.0,0.0,0.0,0.0,0.0,0.0,0.0,-0.0707,1.5452,1.5261,1.535,1.5172,1.4885,1.4598,1.4214,1.3919,1.4352,1.434,1.3721,1.3232,1.2937,1.2737,1.1975,1.1292,1.0502,0.9604,0.8707,0.8315,0.8024,0.8031,0.8035,0.8038,0.8038,0.8038,0.8038,0.8038,0.8038,0.8038,0.8038,0.8038,0.8038,0.8038,0.8038,0.8038,0.7939,0.7842,0.7842,0.7643,0.7344,0.6942,0.6537,0.5934,0.5334,0.4529,0.3929,0.3224,0.3107,0.3304,0.4002,0.3982,0.3281,0.343,0.3393,0.2476,0.285,0.3607,0.5133,0.5902,0.6584,0.7361,0.7526,0.7247,0.6875,0.6616,0.6656,0.6774,0.6911,0.6934,0.6878,0.6958,0.7127,0.7376,0.753,0.7567,0.74,0.7241,0.6873,0.6509,0.6141,0.5684,0.481,0.4334,0.3466,0.2392,0.1697,0.1292,0.0791,0.0392,0.0,0.0,0.0,0.0,0.0,0.0,0.0,0.0,0.0,0.0,0.0,0.0,0.0,0.0,0.0,0.0,0.0,0.0,0.0,0.0,0.0,0.0,0.0,0.0,0.0,1.573,1.5635,1.5635,1.5547,1.5363,1.5369,1.5166,1.4981,1.5223,1.5115,1.4598,1.41,1.3811,1.3516,1.2845,1.217,1.1492,1.0694,0.9702,0.881,0.8216,0.8021,0.8028,0.8038,0.8038,0.8038,0.8038,0.8038,0.8038,0.8038,0.8038,0.8038,0.8038,0.8038,0.8038,0.8038,0.8038,0.7939,0.7939,0.7939,0.7739,0.754,0.7141,0.6842,0.6439,0.5939,0.5334,0.4529,0.4531,0.4431,0.5039,0.514,0.4528,0.4575,0.4347,0.3606,0.3699,0.4973,0.6452,0.6934,0.7405,0.7763,0.8013,0.7739,0.7456,0.7178,0.7214,0.7285,0.7336,0.7472,0.7333,0.7289,0.7631,0.7882,0.7931,0.798,0.7828,0.7768,0.7403,0.7128,0.6764,0.6404,0.5827,0.5334,0.4728,0.3715,0.2912,0.2409,0.1602,0.0698,0.0,0.0,0.0,0.0,0.0,0.0,0.0,0.0,0.0,0.0,0.0,0.0,0.0,0.0,0.0,0.0,0.0,0.0,0.0,0.0,0.0,0.0,0.0,0.0,0.0,1.5825,1.5832,1.5825,1.573,1.5825,1.5737,1.573,1.5832,1.5797,1.5599,1.5178,1.4879,1.449,1.419,1.3709,1.3141,1.2467,1.1678,1.0797,0.9702,0.8806,0.8315,0.8024,0.8035,0.8038,0.8038,0.8038,0.8038,0.8038,0.8038,0.8038,0.8038,0.8038,0.8038,0.8038,0.8038,0.8038,0.8038,0.8038,0.7939,0.7942,0.7743,0.7643,0.7543,0.7244,0.6845,0.6337,0.6139,0.6247,0.6042,0.6042,0.6247,0.5934,0.5727,0.5411,0.5205,0.5077,0.5978,0.718,0.7677,0.7799,0.7967,0.8017,0.7845,0.7753,0.75,0.7509,0.7512,0.7556,0.76,0.7455,0.7545,0.7814,0.7945,0.7979,0.801,0.794,0.7865,0.7773,0.7493,0.7301,0.6939,0.6742,0.6237,0.5734,0.4929,0.4227,0.3627,0.2722,0.1711,0.0,0.0,0.0,0.0,0.0,0.0,0.0,0.0,0.0,0.0,0.0,0.0,0.0,0.0,0.0,0.0,0.0,0.0,0.0,0.0,0.0,0.0,0.0,0.0,0.0,1.5825,1.5825,1.5825,1.5825,1.5825,1.5825,1.5825,1.5832,1.5845,1.575,1.5642,1.535,1.5255,1.4968,1.4586,1.4016,1.3539,1.2759,1.179,1.0801,0.9706,0.8707,0.8223,0.8333,0.8237,0.8038,0.8038,0.8038,0.8038,0.8038,0.8038,0.8038,0.8038,0.8038,0.8038,0.8038,0.8038,0.8038,0.8038,0.8038,0.7939,0.7939,0.7939,0.7842,0.7646,0.7547,0.7244,0.7353,0.7256,0.7156,0.7463,0.7253,0.6839,0.6836,0.6736,0.6634,0.6528,0.7138,0.7547,0.7952,0.7949,0.8045,0.8001,0.7994,0.7906,0.7716,0.7628,0.7651,0.7685,0.7634,0.7687,0.7791,0.7872,0.7991,0.8011,0.8024,0.8038,0.7942,0.7942,0.7942,0.7839,0.764,0.7344,0.7042,0.6637,0.6134,0.5534,0.4933,0.4232,0.3222,0.1813,0.0,0.0,0.0,0.0,0.0,0.0,0.0,0.0,0.0,0.0,0.0,0.0,0.0,0.0,0.0,0.0,0.0,0.0,0.0,0.0,0.0,0.0,0.0,0.0,1.5825,1.5825,1.5825,1.5825,1.5825,1.5825,1.5825,1.5825,1.5825,1.5825,1.5825,1.5635,1.5635,1.5547,1.5166,1.4688,1.431,1.3738,1.2867,1.179,1.06,0.9604,0.9015,0.873,0.8535,0.834,0.8038,0.8038,0.8038,0.8038,0.8038,0.8041,0.8038,0.8045,0.8045,0.8041,0.8052,0.8038,0.8052,0.8048,0.8048,0.8041,0.8038,0.8041,0.7942,0.7846,0.7846,0.7952,0.7852,0.7753,0.7852,0.7852,0.754,0.7537,0.7537,0.754,0.754,0.7743,0.7945,0.8045,0.8038,0.8038,0.8038,0.8018,0.8018,0.7855,0.7845,0.7868,0.7875,0.7815,0.7818,0.7892,0.7908,0.8021,0.8024,0.8035,0.8038,0.8038,0.7942,0.7939,0.7939,0.7839,0.7643,0.7444,0.7141,0.7147,0.6645,0.616,0.5454,0.4871,0.3344,0.2127,0.1321,0.0,0.0,0.0,0.0,0.0,0.0,0.0,0.0,0.0,0.0,0.0,0.0,0.0,0.0,0.0,0.0,0.0,0.0,0.0,0.0,0.0,0.0,1.5825,1.5825,1.5825,1.5825,1.5825,1.5825,1.5825,1.5825,1.5825,1.5825,1.5825,1.5825,1.573,1.5635,1.5547,1.4968,1.4592,1.4418,1.375,1.277,1.1473,1.0592,0.9912,0.9426,0.9031,0.8535,0.8134,0.8038,0.8038,0.8038,0.8038,0.8041,0.8058,0.8072,0.8072,0.8099,0.814,0.8143,0.8136,0.8089,0.8069,0.7949,0.8041,0.8038,0.8038,0.8038,0.8038,0.8038,0.8038,0.7939,0.7942,0.7942,0.7939,0.7839,0.7939,0.7839,0.7839,0.7939,0.8041,0.8041,0.8038,0.8038,0.8038,0.8038,0.8035,0.8028,0.8018,0.8018,0.8028,0.8028,0.8028,0.8031,0.8035,0.8048,0.8048,0.8052,0.8052,0.8052,0.8052,0.8052,0.8052,0.8052,0.7979,0.7779,0.7788,0.7788,0.7601,0.7202,0.6721,0.606,0.5154,0.3912,0.2988,0.0,0.0,0.0,0.0,0.0,0.0,0.0,0.0,0.0,0.0,0.0,0.0,0.0,0.0,0.0,0.0,0.0,0.0,0.0,0.0,0.0,0.0,1.5825,1.5825,1.5825,1.5825,1.5825,1.5825,1.5825,1.5825,1.5825,1.5825,1.5825,1.5825,1.573,1.5737,1.573,1.5445,1.5159,1.5,1.4629,1.3852,1.2759,1.179,1.0811,1.0019,0.9327,0.873,0.823,0.8031,0.7952,0.7949,0.8045,0.7959,0.8194,0.833,0.835,0.8392,0.8347,0.8323,0.8262,0.8218,0.817,0.813,0.8048,0.8038,0.8038,0.8038,0.8038,0.8038,0.8038,0.8038,0.8038,0.8038,0.8038,0.8038,0.8038,0.8038,0.8038,0.8038,0.8038,0.8038,0.8038,0.8038,0.8038,0.8038,0.8038,0.8038,0.8031,0.8031,0.8035,0.8035,0.8035,0.8035,0.8041,0.7969,0.7979,0.8089,0.8096,0.8096,0.8096,0.8096,0.8096,0.8147,0.8228,0.8139,0.8067,0.8084,0.8024,0.7613,0.7817,0.7321,0.6711,0.5652,0.4495,0.0,0.0,0.0,0.0,0.0,0.0,0.0,0.0,0.0,0.0,0.0,0.0,0.0,0.0,0.0,0.0,0.0,0.0,0.0,0.0,0.0,0.0]}]]